[[{"header":{"parameterUnit":"m.s-1","parameterCategory":1,"la1":30.6,"la2":29.2853,"lo1":-89.7004,"lo2":-87.6739,"dy":0.0162,"dx":0.0183,"nx":112,"ny":82,"refTime":"2023-09-19T18:00:00:Z","depth":0,"parameterNumber":2,"parameterNumberName":"U-component_of_WINDS"},"data":[0.0,0.0,0.0,0.0,0.0,0.0,0.0,0.0,0.0,0.0,0.0,0.0,0.0,0.0,0.0,0.0,0.0,0.0,0.0,0.0,0.0,0.0,0.0,0.0,0.0,0.0,0.0,0.0,0.0,0.0,0.0,0.0,0.0,0.0,0.0,0.0,0.0,0.0,0.0,0.0,0.0,0.0,0.0,0.0,0.0,0.0,0.0,0.0,0.0,0.0,0.0,0.0,0.0,0.0,0.0,0.0,0.0,0.0,0.0,0.0,0.0,0.0,0.0,0.0,0.0,0.0,0.0,0.0,0.0,0.0,0.0,0.0,0.0,0.0,0.0,0.0,0.0,0.0,0.0,0.0,0.0,0.0,0.0,0.0,0.0,0.0,0.0,0.0,0.0,0.0,-2.7823,-2.9504,-3.0312,-3.0522,-3.0233,-3.0021,-2.9761,-2.9477,0.0,0.0,0.0,0.0,0.0,0.0,0.0,0.0,0.0,0.0,0.0,0.0,0.0,0.0,0.0,0.0,0.0,0.0,0.0,0.0,0.0,0.0,0.0,0.0,0.0,0.0,0.0,0.0,0.0,0.0,0.0,0.0,0.0,0.0,0.0,0.0,0.0,0.0,0.0,0.0,0.0,0.0,0.0,0.0,0.0,0.0,0.0,0.0,0.0,0.0,0.0,0.0,0.0,0.0,0.0,0.0,0.0,0.0,0.0,0.0,0.0,0.0,0.0,0.0,0.0,0.0,0.0,0.0,0.0,0.0,0.0,0.0,0.0,0.0,0.0,0.0,0.0,0.0,0.0,0.0,0.0,0.0,0.0,0.0,0.0,0.0,0.0,0.0,0.0,0.0,0.0,0.0,0.0,0.0,0.0,0.0,0.0,0.0,0.0,0.0,0.0,0.0,0.0,0.0,-2.863,-3.0054,-3.0702,-3.0895,-3.0582,-3.0326,-3.0068,-2.9747,0.0,0.0,0.0,0.0,0.0,0.0,0.0,0.0,0.0,0.0,0.0,0.0,0.0,0.0,0.0,0.0,0.0,0.0,0.0,0.0,0.0,0.0,0.0,0.0,0.0,0.0,0.0,0.0,0.0,0.0,0.0,0.0,0.0,0.0,0.0,0.0,0.0,0.0,0.0,0.0,0.0,0.0,0.0,0.0,0.0,0.0,0.0,0.0,0.0,0.0,0.0,0.0,0.0,0.0,0.0,0.0,0.0,0.0,0.0,0.0,0.0,0.0,0.0,0.0,0.0,0.0,0.0,0.0,0.0,0.0,0.0,0.0,0.0,0.0,0.0,0.0,0.0,0.0,0.0,0.0,0.0,0.0,0.0,0.0,0.0,0.0,0.0,0.0,0.0,0.0,0.0,0.0,0.0,0.0,0.0,0.0,0.0,0.0,0.0,0.0,0.0,0.0,0.0,-2.8484,-2.956,-3.0387,-3.0762,-3.0821,-3.0447,-3.028,-3.0036,-2.9713,-2.9087,0.0,0.0,0.0,0.0,0.0,0.0,0.0,0.0,0.0,0.0,0.0,0.0,0.0,0.0,0.0,0.0,0.0,0.0,0.0,0.0,0.0,0.0,0.0,0.0,0.0,0.0,0.0,0.0,0.0,0.0,0.0,0.0,0.0,0.0,0.0,0.0,0.0,0.0,0.0,0.0,0.0,0.0,0.0,0.0,0.0,0.0,0.0,0.0,0.0,0.0,0.0,0.0,0.0,0.0,0.0,0.0,0.0,0.0,0.0,0.0,0.0,0.0,0.0,0.0,0.0,0.0,0.0,0.0,0.0,0.0,0.0,0.0,0.0,0.0,0.0,0.0,0.0,0.0,0.0,0.0,0.0,0.0,0.0,0.0,0.0,0.0,0.0,0.0,0.0,0.0,0.0,0.0,0.0,0.0,0.0,0.0,0.0,0.0,0.0,0.0,0.0,0.0,-2.956,-3.019,-3.0568,-3.0702,-3.0702,-3.0447,-3.028,-3.0036,-2.9727,-2.9275,0.0,0.0,0.0,0.0,0.0,0.0,0.0,0.0,0.0,0.0,0.0,0.0,0.0,0.0,0.0,0.0,0.0,0.0,0.0,0.0,0.0,0.0,0.0,0.0,0.0,0.0,0.0,0.0,0.0,0.0,0.0,0.0,0.0,0.0,0.0,0.0,0.0,0.0,0.0,0.0,0.0,0.0,0.0,0.0,0.0,0.0,0.0,0.0,0.0,0.0,0.0,0.0,0.0,0.0,0.0,0.0,0.0,0.0,0.0,0.0,0.0,0.0,0.0,0.0,0.0,0.0,0.0,0.0,0.0,0.0,0.0,0.0,0.0,0.0,0.0,0.0,0.0,0.0,0.0,0.0,0.0,0.0,0.0,0.0,0.0,0.0,0.0,0.0,0.0,0.0,0.0,0.0,0.0,0.0,0.0,0.0,0.0,0.0,0.0,0.0,0.0,0.0,-2.9512,-3.0007,-3.0507,-3.0702,-3.0762,-3.0762,-3.0447,-3.019,-3.0068,-2.931,0.0,0.0,0.0,0.0,0.0,0.0,0.0,0.0,0.0,0.0,0.0,0.0,0.0,0.0,0.0,0.0,0.0,0.0,0.0,0.0,0.0,0.0,0.0,0.0,0.0,0.0,0.0,0.0,0.0,0.0,0.0,0.0,0.0,0.0,0.0,0.0,0.0,0.0,0.0,0.0,0.0,0.0,0.0,0.0,0.0,0.0,0.0,0.0,0.0,0.0,0.0,0.0,0.0,0.0,0.0,0.0,0.0,0.0,0.0,0.0,0.0,0.0,0.0,0.0,0.0,0.0,0.0,0.0,0.0,0.0,0.0,0.0,0.0,0.0,0.0,0.0,0.0,0.0,0.0,0.0,0.0,0.0,0.0,0.0,0.0,0.0,0.0,0.0,0.0,0.0,0.0,0.0,0.0,0.0,0.0,0.0,0.0,0.0,0.0,0.0,0.0,0.0,-2.9637,-3.0129,0.0,-3.0568,-3.0642,-3.0507,-3.028,-3.0083,-2.9931,0.0,0.0,0.0,0.0,0.0,0.0,0.0,0.0,0.0,0.0,0.0,0.0,0.0,0.0,0.0,0.0,0.0,0.0,0.0,0.0,0.0,0.0,0.0,0.0,0.0,0.0,0.0,0.0,0.0,0.0,0.0,0.0,0.0,0.0,0.0,0.0,0.0,0.0,0.0,0.0,0.0,0.0,0.0,0.0,0.0,0.0,0.0,0.0,0.0,0.0,0.0,0.0,0.0,0.0,0.0,0.0,0.0,0.0,0.0,0.0,0.0,0.0,0.0,0.0,0.0,0.0,0.0,0.0,0.0,0.0,0.0,0.0,0.0,0.0,0.0,0.0,0.0,0.0,0.0,0.0,0.0,0.0,0.0,0.0,0.0,0.0,0.0,0.0,0.0,0.0,0.0,0.0,0.0,0.0,0.0,0.0,0.0,0.0,0.0,0.0,0.0,0.0,-2.9233,-2.9989,-3.0557,0.0,-3.0931,-3.0931,-3.0931,-3.062,-3.0383,-3.0277,0.0,0.0,0.0,0.0,0.0,0.0,0.0,0.0,0.0,0.0,0.0,0.0,0.0,0.0,0.0,0.0,0.0,0.0,0.0,0.0,0.0,0.0,0.0,0.0,0.0,0.0,0.0,0.0,0.0,0.0,0.0,0.0,0.0,0.0,0.0,0.0,0.0,0.0,0.0,0.0,0.0,0.0,0.0,0.0,0.0,0.0,0.0,0.0,0.0,0.0,0.0,0.0,0.0,0.0,0.0,0.0,0.0,0.0,0.0,0.0,0.0,0.0,0.0,0.0,0.0,0.0,0.0,0.0,0.0,0.0,0.0,0.0,0.0,0.0,0.0,0.0,0.0,0.0,0.0,0.0,0.0,0.0,0.0,0.0,0.0,0.0,0.0,0.0,0.0,0.0,0.0,0.0,0.0,0.0,0.0,0.0,0.0,0.0,0.0,0.0,0.0,0.0,-2.9824,-3.0735,-3.1471,-3.2127,-3.1917,-3.1838,-3.2177,-3.1509,-3.1177,0.0,0.0,0.0,0.0,0.0,0.0,0.0,0.0,0.0,0.0,0.0,0.0,0.0,0.0,0.0,0.0,0.0,0.0,0.0,0.0,0.0,0.0,0.0,0.0,0.0,0.0,0.0,0.0,0.0,0.0,0.0,0.0,0.0,0.0,0.0,0.0,0.0,0.0,0.0,0.0,0.0,0.0,0.0,0.0,0.0,0.0,0.0,0.0,0.0,0.0,0.0,0.0,0.0,0.0,0.0,0.0,0.0,0.0,0.0,0.0,0.0,0.0,0.0,0.0,0.0,0.0,0.0,0.0,0.0,0.0,0.0,0.0,0.0,0.0,0.0,0.0,0.0,0.0,0.0,0.0,0.0,0.0,0.0,0.0,0.0,0.0,0.0,0.0,0.0,0.0,0.0,0.0,0.0,0.0,0.0,0.0,0.0,0.0,0.0,0.0,0.0,0.0,0.0,-3.0416,-3.1198,-3.1655,-3.2047,-3.1838,-3.1707,-3.1838,-3.1457,-3.1205,-3.1271,0.0,0.0,0.0,0.0,0.0,0.0,0.0,0.0,0.0,0.0,0.0,0.0,0.0,0.0,0.0,0.0,0.0,0.0,0.0,0.0,0.0,0.0,0.0,0.0,0.0,0.0,0.0,0.0,0.0,0.0,0.0,0.0,0.0,0.0,0.0,0.0,0.0,0.0,0.0,0.0,0.0,0.0,0.0,0.0,0.0,0.0,0.0,0.0,0.0,0.0,0.0,0.0,0.0,0.0,0.0,0.0,0.0,0.0,0.0,0.0,0.0,0.0,0.0,0.0,0.0,0.0,0.0,0.0,0.0,0.0,0.0,0.0,0.0,0.0,0.0,0.0,0.0,0.0,0.0,0.0,0.0,0.0,0.0,0.0,0.0,0.0,0.0,0.0,0.0,0.0,0.0,0.0,0.0,0.0,0.0,0.0,0.0,0.0,0.0,0.0,0.0,0.0,-3.0925,-3.1748,-3.2241,-3.2606,-3.2309,-3.2092,-3.2241,-3.1915,-3.1654,-3.1654,0.0,0.0,0.0,0.0,0.0,0.0,0.0,0.0,0.0,0.0,0.0,0.0,0.0,0.0,0.0,0.0,0.0,0.0,0.0,0.0,0.0,0.0,0.0,0.0,0.0,0.0,0.0,0.0,0.0,0.0,0.0,0.0,0.0,0.0,0.0,0.0,0.0,0.0,0.0,0.0,0.0,0.0,0.0,0.0,0.0,0.0,0.0,0.0,0.0,0.0,0.0,0.0,0.0,0.0,0.0,0.0,0.0,0.0,0.0,0.0,0.0,0.0,0.0,0.0,0.0,0.0,0.0,0.0,0.0,0.0,0.0,0.0,0.0,0.0,0.0,0.0,0.0,0.0,0.0,0.0,0.0,0.0,0.0,0.0,0.0,0.0,0.0,0.0,0.0,0.0,0.0,0.0,0.0,0.0,0.0,0.0,0.0,0.0,0.0,0.0,0.0,0.0,-3.1441,-3.2217,-3.2931,-3.3452,-3.3002,-3.2775,-3.2988,-3.2632,-3.2417,-3.2417,0.0,0.0,0.0,0.0,0.0,0.0,0.0,0.0,0.0,0.0,0.0,0.0,0.0,0.0,0.0,0.0,0.0,0.0,0.0,0.0,0.0,0.0,0.0,0.0,0.0,0.0,0.0,0.0,0.0,0.0,0.0,0.0,0.0,0.0,0.0,0.0,0.0,0.0,0.0,0.0,0.0,0.0,0.0,0.0,0.0,0.0,0.0,0.0,0.0,0.0,0.0,0.0,0.0,0.0,0.0,0.0,0.0,0.0,0.0,0.0,-3.2762,0.0,0.0,0.0,0.0,0.0,0.0,0.0,0.0,0.0,0.0,0.0,0.0,0.0,0.0,0.0,0.0,0.0,0.0,0.0,0.0,0.0,0.0,0.0,0.0,0.0,0.0,0.0,0.0,0.0,0.0,0.0,0.0,0.0,0.0,0.0,0.0,0.0,0.0,0.0,0.0,0.0,-3.1481,-3.2321,-3.2775,-3.3072,-3.2846,-3.2704,-3.2775,-3.2561,-3.2417,-3.2417,-3.2082,0.0,0.0,0.0,0.0,0.0,0.0,0.0,0.0,0.0,0.0,0.0,0.0,0.0,0.0,0.0,0.0,0.0,0.0,0.0,0.0,0.0,0.0,0.0,0.0,0.0,0.0,0.0,0.0,0.0,0.0,0.0,0.0,0.0,0.0,0.0,0.0,0.0,0.0,0.0,0.0,0.0,0.0,0.0,0.0,0.0,0.0,0.0,0.0,0.0,0.0,0.0,0.0,0.0,0.0,0.0,0.0,0.0,0.0,0.0,0.0,-3.3182,0.0,0.0,0.0,0.0,0.0,0.0,0.0,0.0,0.0,0.0,0.0,0.0,0.0,0.0,0.0,0.0,0.0,0.0,0.0,0.0,0.0,0.0,0.0,0.0,0.0,0.0,0.0,0.0,0.0,0.0,0.0,0.0,0.0,0.0,0.0,0.0,0.0,0.0,0.0,0.0,-3.1476,-3.2128,-3.2431,-3.2417,-3.2273,-3.2128,-3.1955,-3.1982,-3.1982,-3.1909,-3.179,0.0,0.0,0.0,0.0,0.0,0.0,0.0,0.0,0.0,0.0,0.0,0.0,0.0,0.0,0.0,0.0,0.0,0.0,0.0,0.0,0.0,0.0,0.0,0.0,0.0,0.0,0.0,0.0,0.0,0.0,0.0,0.0,0.0,0.0,0.0,0.0,0.0,0.0,0.0,0.0,0.0,0.0,0.0,0.0,0.0,0.0,0.0,0.0,0.0,0.0,0.0,0.0,0.0,-3.6177,-3.5984,-3.5836,-3.5474,-3.5539,-3.5889,-3.4714,-3.3972,-3.3513,-3.2875,0.0,0.0,0.0,0.0,0.0,0.0,0.0,0.0,0.0,0.0,0.0,0.0,0.0,0.0,0.0,0.0,0.0,0.0,0.0,0.0,0.0,0.0,0.0,0.0,-2.5444,-2.4909,-2.3507,0.0,0.0,0.0,0.0,0.0,0.0,0.0,0.0,0.0,0.0,0.0,-3.1468,-3.1936,-3.2169,-3.185,-3.1703,-3.1482,-3.1233,-3.1408,-3.1421,-3.1272,-3.1347,-3.1198,0.0,0.0,0.0,0.0,0.0,0.0,0.0,0.0,0.0,0.0,0.0,0.0,0.0,0.0,0.0,0.0,0.0,0.0,0.0,0.0,0.0,0.0,0.0,0.0,0.0,0.0,0.0,0.0,0.0,0.0,0.0,0.0,-3.6851,-3.6784,0.0,0.0,0.0,0.0,0.0,0.0,0.0,0.0,0.0,0.0,0.0,0.0,0.0,-3.8479,-3.8479,-3.8291,-3.818,-3.8149,-3.8027,-3.783,-3.7643,-3.7363,-3.7126,-3.6872,-3.6348,0.0,-3.5076,-3.4629,0.0,0.0,0.0,0.0,0.0,0.0,0.0,0.0,0.0,0.0,0.0,0.0,0.0,0.0,0.0,0.0,0.0,0.0,0.0,0.0,0.0,0.0,-2.6577,-2.6959,-2.6717,-2.6528,0.0,-2.5757,-2.4883,-2.4883,-2.4895,0.0,0.0,0.0,0.0,0.0,0.0,0.0,-3.1482,-3.2055,-3.2214,-3.195,-3.1716,-3.1482,-3.1334,-3.1123,-3.1061,-3.1061,-3.0911,-3.0609,-3.0126,-2.9509,0.0,0.0,0.0,0.0,0.0,0.0,0.0,0.0,0.0,0.0,0.0,0.0,0.0,0.0,0.0,0.0,0.0,0.0,0.0,0.0,0.0,0.0,0.0,0.0,0.0,0.0,0.0,0.0,0.0,-3.7081,-3.7305,-3.7284,-3.7544,-3.7774,0.0,0.0,0.0,0.0,0.0,0.0,0.0,0.0,0.0,-3.9826,-3.9634,-3.9736,-4.0136,-4.001,-3.9965,-3.9965,-3.9853,-3.9701,-3.9512,-3.9211,-3.8861,-3.8475,-3.8063,-3.7533,-3.6847,-3.5496,-3.4561,-3.4,0.0,0.0,0.0,0.0,-3.2241,-3.2033,-3.1435,-3.1043,-3.0792,-3.0283,0.0,0.0,0.0,0.0,0.0,0.0,0.0,0.0,0.0,0.0,-2.9174,-2.8904,-2.8703,-2.8486,-2.8397,-2.8195,-2.768,0.0,-2.6685,-2.7038,-2.7483,0.0,0.0,0.0,0.0,-3.1649,-3.2128,-3.2417,-3.2403,-3.1909,-3.1629,-3.1272,-3.0823,-3.0748,-3.0596,-3.0533,-3.0533,-3.0305,-2.9921,-2.9365,-2.8712,0.0,0.0,0.0,0.0,0.0,0.0,0.0,0.0,0.0,0.0,0.0,0.0,0.0,0.0,0.0,0.0,0.0,0.0,0.0,0.0,0.0,0.0,0.0,0.0,0.0,0.0,0.0,0.0,-3.7902,-3.8055,-3.8035,-3.8452,-3.8761,0.0,0.0,0.0,0.0,0.0,0.0,-4.058,-4.0382,-4.0453,-4.0838,-4.0653,-4.0762,-4.1267,-4.119,-4.1111,-4.1111,-4.1046,-4.0946,-4.0757,-4.0474,-4.0125,-3.97,-3.9269,-3.8799,-3.8185,-3.6417,-3.5461,-3.5103,-3.4584,-3.4342,-3.4222,-3.3713,-3.3443,-3.3224,-3.2706,-3.2279,-3.1959,-3.153,-3.1107,-3.0664,-3.0477,0.0,0.0,0.0,0.0,-3.1019,-3.1222,-3.1282,-3.1177,-3.0582,-3.0373,-3.0218,-2.9913,-3.0224,-3.0051,0.0,-2.86,-2.9126,-2.9327,0.0,0.0,0.0,0.0,-3.2577,-3.2974,-3.2974,-3.2761,-3.216,-3.1676,-3.1185,-3.0596,-3.0444,-3.0228,-3.0011,-3.0152,-3.0075,-2.9702,-2.93,-2.8724,-2.7903,0.0,0.0,0.0,0.0,0.0,0.0,0.0,0.0,0.0,0.0,0.0,0.0,0.0,0.0,0.0,0.0,0.0,0.0,0.0,0.0,0.0,0.0,0.0,0.0,0.0,0.0,0.0,0.0,0.0,-3.9778,-3.9687,0.0,0.0,0.0,0.0,-4.1301,-4.2084,-4.2581,-4.266,-4.2457,-4.2261,-4.2108,-4.1852,-4.1632,-4.1501,-4.1298,-4.1158,-4.1111,-4.1079,-4.1046,-4.0998,-4.0757,-4.0456,-4.0047,-3.958,-3.9083,-3.8532,-3.7848,-3.735,-3.6953,-3.6785,-3.658,-3.6267,-3.5824,-3.5498,-3.5124,-3.438,-3.3983,-3.3774,-3.3287,-3.2838,-3.2367,-3.224,-3.2033,0.0,0.0,-3.2155,-3.2155,-3.199,-3.1889,-3.1716,-3.1474,-3.1346,-3.1284,-3.1389,-3.1536,-3.1402,0.0,-3.0711,-3.1106,-3.1315,0.0,-3.2132,-3.2464,-3.3045,-3.3506,-3.3728,-3.3756,-3.3563,-3.2988,-3.2245,-3.1603,-3.1048,-3.0457,-3.0011,-2.9869,-2.9792,-2.9702,-2.9419,-2.9197,-2.8816,-2.8167,-2.7348,0.0,0.0,0.0,0.0,0.0,0.0,0.0,0.0,0.0,0.0,0.0,0.0,0.0,0.0,0.0,0.0,0.0,0.0,0.0,0.0,0.0,0.0,0.0,0.0,0.0,0.0,0.0,0.0,-4.0821,-4.0791,0.0,-4.1618,-4.196,-4.2176,-4.2298,-4.2623,-4.2814,-4.2814,-4.2676,-4.2775,-4.3104,-4.2848,-4.2866,-4.3174,-4.2963,-4.282,-4.2702,-4.2687,-4.2619,-4.2534,-4.2358,-4.1993,-4.1554,-4.1091,-4.0552,-4.006,-3.9665,-3.8717,-3.7484,-3.722,-3.7069,-3.6849,-3.6486,-3.6061,-3.5586,-3.4992,-3.4488,-3.403,-3.3453,-3.3143,-3.2941,-3.2674,-3.2645,-3.2733,-3.3092,-3.3337,-3.3554,-3.3784,-3.3835,-3.3694,-3.3454,-3.3208,-3.3113,-3.3031,-3.3017,-3.3031,-3.2793,-3.2453,-3.2331,-3.2903,-3.3058,-3.3199,-3.3673,-3.3811,-3.4045,-3.4332,-3.4264,-3.3991,-3.3563,-3.2974,-3.2187,-3.1246,-3.0748,-3.0318,-2.9869,-2.9792,-2.9702,-2.9419,-2.9197,-2.8724,-2.7983,-2.7278,-2.6019,0.0,0.0,0.0,0.0,0.0,0.0,0.0,0.0,0.0,0.0,0.0,0.0,0.0,0.0,0.0,0.0,0.0,0.0,0.0,0.0,0.0,0.0,0.0,0.0,0.0,0.0,-4.1284,-4.1819,-4.1834,-4.2042,-4.2659,-4.2984,-4.3216,-4.3292,-4.3597,-4.3769,-4.3751,-4.3695,-4.3804,-4.4144,-4.3926,-4.3931,-4.421,-4.4005,-4.3832,-4.3682,-4.36,-4.3497,-4.3446,-4.3233,-4.29,-4.2458,-4.1966,-4.1463,-4.0918,-4.0631,-3.9693,-3.8469,-3.8321,-3.8154,-3.7951,-3.7607,-3.7113,-3.651,-3.5828,-3.5166,-3.4622,-3.422,-3.4062,-3.3999,-3.3794,-3.378,-3.3932,-3.4233,-3.4495,-3.4713,-3.4963,-3.5001,-3.4935,-3.4549,-3.4399,-3.4235,-3.4031,-3.4016,-3.4085,-3.4235,-3.3756,-3.3479,-3.3991,-3.4005,-3.4088,-3.4481,-3.4414,-3.4414,-3.4831,-3.4616,-3.4346,-3.4059,-3.3339,-3.2475,-3.1368,-3.0885,-3.0394,-2.9869,-2.9792,-2.9702,-2.9419,-2.9275,-2.8791,-2.7983,-2.667,-2.5062,-2.3183,0.0,0.0,0.0,0.0,0.0,0.0,0.0,0.0,0.0,0.0,0.0,0.0,0.0,0.0,0.0,0.0,0.0,0.0,0.0,0.0,0.0,0.0,0.0,-4.2833,-4.2795,-4.2814,-4.2833,-4.2852,-4.2852,-4.2871,-4.3656,-4.4193,-4.4323,-4.5053,-4.5531,-4.5605,-4.555,-4.5419,-4.5222,-4.5065,-4.4846,-4.4505,-4.4258,-4.4048,-4.3897,-4.3682,-4.3615,-4.3582,-4.3322,-4.3032,-4.2673,-4.2133,-4.1578,-4.0977,-4.0662,-4.0337,-4.007,-4.007,-3.9935,-3.9677,-3.9185,-3.8623,-3.7927,-3.6892,-3.6148,-3.5688,-3.5688,-3.5589,-3.5504,-3.5504,-3.5504,-3.5504,-3.5504,-3.5504,-3.5439,-3.5294,-3.5213,-3.5162,-3.4831,-3.4698,-3.4698,-3.4481,-3.4414,-3.4481,-3.4698,-3.4563,-3.4481,-3.4698,-3.4698,-3.4765,-3.4868,-3.475,0.0,-3.5148,-3.4898,-3.4631,-3.4414,-3.3409,-3.2403,-3.1589,-3.0872,-3.0216,-2.9869,-2.9792,-2.9702,-2.9419,-2.9419,-2.9028,-2.8167,-2.5452,-2.3404,-2.1943,0.0,0.0,0.0,0.0,0.0,0.0,0.0,0.0,0.0,0.0,0.0,0.0,0.0,0.0,0.0,0.0,0.0,0.0,0.0,0.0,0.0,0.0,-4.3742,-4.3038,-4.2961,-4.3174,-4.3733,-4.3828,-4.4058,-4.469,-4.4959,-4.5149,-4.5241,-4.5453,-4.5586,-4.5586,-4.555,-4.5438,-4.5342,-4.5216,-4.5038,-4.487,-4.4541,-4.4288,-4.4121,-4.3865,-4.3701,-4.3582,-4.3428,-4.3087,-4.2673,-4.2297,-4.1692,-4.0977,-4.0728,-4.0436,-4.007,-4.007,-3.9986,-3.9798,-3.9484,-3.8678,-3.7637,-3.7042,-3.6445,-3.5894,-3.5752,-3.5589,-3.5504,-3.5504,-3.5504,-3.5504,-3.5504,-3.5504,-3.5504,-3.5439,-3.5439,-3.5359,-3.5309,-3.5309,-3.5228,-3.5228,-3.5228,-3.5228,-3.5243,-3.5243,-3.5162,-3.5096,-3.4831,-3.4765,-3.4868,-3.4683,0.0,-3.4935,-3.4817,-3.4631,-3.4414,-3.377,-3.2903,-3.1823,-3.1334,-3.0748,-3.0088,-3.0011,-2.9767,-2.9209,-2.9197,-2.8474,-2.7021,-2.4628,-2.2824,0.0,0.0,0.0,0.0,0.0,0.0,0.0,0.0,0.0,0.0,0.0,0.0,0.0,0.0,0.0,0.0,0.0,0.0,0.0,0.0,0.0,0.0,-4.4836,-4.4682,-4.4147,-4.409,-4.4263,-4.4726,-4.4803,-4.4995,-4.5493,-4.5531,-4.5568,-4.5586,-4.5586,-4.5586,-4.5586,-4.5568,-4.5513,-4.5438,-4.5341,-4.5237,-4.5087,-4.4802,-4.4568,-4.443,-4.4036,-4.3832,-4.3734,-4.3516,-4.3178,-4.275,-4.2378,-4.1796,-4.1071,-4.0823,-4.0436,0.0,0.0,0.0,0.0,0.0,-3.8511,-3.7637,-3.7163,-3.6616,-3.6037,-3.5894,-3.5668,-3.5504,-3.5504,-3.5504,-3.5504,-3.5504,-3.5504,-3.5504,-3.5504,-3.5504,-3.5504,-3.5504,-3.5504,-3.5504,-3.5504,-3.5504,-3.5504,-3.5504,-3.5504,0.0,-3.5359,-3.5096,-3.4964,-3.5001,-3.4802,-3.4735,-3.5016,-3.4817,-3.4616,-3.4317,-3.3618,-3.2846,-3.1776,-3.1347,0.0,0.0,0.0,-2.9767,-2.9131,-2.8645,0.0,0.0,0.0,-2.2736,-2.1774,-1.9812,0.0,0.0,-1.6197,-1.4962,0.0,0.0,0.0,0.0,0.0,0.0,0.0,0.0,0.0,0.0,0.0,0.0,0.0,0.0,0.0,0.0,-4.5586,-4.5586,-4.5586,-4.5586,-4.5586,-4.5586,-4.5586,-4.5586,-4.5586,-4.5586,-4.5586,-4.5586,-4.5586,-4.5586,-4.5586,0.0,0.0,0.0,0.0,-4.5342,-4.5222,-4.5019,-4.4846,-4.4693,-4.4229,-4.3974,-4.3883,-4.355,-4.3214,-4.2882,-4.2436,-4.1839,-4.1163,-4.0871,-4.0485,-4.007,-4.007,-3.9918,-3.9573,-3.8914,-3.8343,-3.7828,-3.7358,0.0,0.0,-3.61,-3.5797,-3.5569,-3.5504,-3.5489,-3.5504,-3.5504,-3.5504,-3.5504,-3.5504,-3.5504,-3.5504,-3.5504,-3.5504,-3.5504,-3.5504,-3.5504,-3.5504,-3.5504,-3.5504,-3.5504,-3.5504,-3.5359,-3.5213,-3.5213,-3.5001,-3.5001,-3.5148,-3.4898,-3.4549,-3.4153,0.0,0.0,-3.1703,-3.1136,-3.0622,-3.0152,-3.0075,-2.9677,-2.9131,-2.8087,-2.7278,-2.6891,-2.4553,-2.2911,-2.1952,-1.9903,-1.855,-1.7994,-1.6581,-1.535,0.0,0.0,0.0,0.0,0.0,0.0,0.0,0.0,0.0,0.0,0.0,0.0,0.0,0.0,0.0,-4.5586,-4.5586,-4.5586,-4.5586,-4.5586,-4.5586,-4.5586,-4.5586,-4.5586,-4.5586,-4.5586,-4.5586,-4.5586,-4.5586,-4.5586,-4.5586,-4.5586,-4.5586,-4.5586,-4.5513,-4.5438,-4.5362,-4.5154,-4.4943,-4.4712,0.0,0.0,-4.3804,-4.3566,-4.3268,-4.2882,-4.2613,-4.2026,-4.1163,-4.0948,-4.0583,-4.007,-3.9986,-3.9798,-3.9484,-3.9077,-3.8511,-3.7828,-3.7476,-3.6952,-3.6414,-3.6211,-3.6022,-3.5846,-3.5703,-3.5638,0.0,-3.5554,-3.5504,-3.5504,-3.5504,-3.5504,-3.5504,-3.5504,-3.5504,-3.5504,-3.5504,-3.5504,-3.5504,-3.5504,-3.5504,-3.5504,-3.5504,-3.5359,-3.5213,-3.5213,-3.5001,-3.5001,-3.5148,-3.4898,-3.4549,-3.4153,-3.3395,-3.2632,-3.1877,-3.1434,-3.0973,-3.0368,-2.9677,-2.9209,-2.9131,-2.7914,-2.7021,-2.661,-2.4563,-2.2921,-2.1774,-1.9994,-1.8635,-1.7721,-1.6871,-1.5913,0.0,0.0,0.0,0.0,0.0,0.0,0.0,0.0,0.0,0.0,0.0,-4.5671,0.0,0.0,-4.5586,-4.5586,-4.5586,-4.5586,-4.5586,-4.5586,-4.5586,-4.5586,-4.5586,-4.5586,-4.5586,-4.5586,-4.5586,-4.5586,-4.5586,-4.5586,-4.5586,-4.5586,-4.5586,-4.5586,-4.5568,-4.5513,-4.5438,-4.5279,-4.508,-4.4796,-4.4355,-4.4048,-4.3851,-4.36,-4.3268,-4.2882,-4.267,-4.2086,-4.1146,-4.071,-4.032,-4.0087,-3.9935,-3.9746,-3.9432,-3.886,-3.827,-3.7695,-3.7238,-3.6769,-3.6336,-3.6148,-3.6022,-3.5973,-3.5752,-3.5688,-3.5703,-3.5554,-3.5504,-3.5504,-3.5504,-3.5504,-3.5504,-3.5504,-3.5554,-3.5589,-3.5589,-3.5668,-3.5733,-3.5604,-3.5589,-3.5604,-3.5504,-3.5439,-3.5359,-3.5359,-3.5294,-3.5228,-3.5359,-3.4964,-3.4481,-3.4002,-3.3101,-3.2273,-3.1643,-3.1048,-3.0596,-3.0292,-2.9521,-2.9131,-2.9131,-2.7995,-2.7115,-2.6704,-2.4648,-2.3096,-2.205,-2.0266,-1.8912,-1.8087,-1.7333,-1.6285,0.0,0.0,0.0,0.0,0.0,0.0,0.0,0.0,-4.5879,-4.5824,-4.5738,-4.5693,-4.5603,-4.5586,-4.5586,-4.5586,-4.5586,-4.5586,-4.5586,-4.5586,-4.5586,-4.5586,-4.5586,-4.5586,-4.5586,-4.5586,-4.5586,-4.5586,-4.5586,-4.5586,-4.5586,-4.5586,-4.5586,-4.5586,-4.5586,-4.5568,-4.5495,-4.536,-4.5148,-4.4846,-4.4393,-4.4109,-4.3883,-4.3634,-4.3268,-4.2882,-4.2494,-4.1856,-4.1071,-4.0419,-4.007,-4.0087,-3.9935,-3.9746,-3.9379,-3.8623,-3.8042,-3.7535,-3.6892,-3.6538,-3.6211,-3.6163,-3.61,-3.61,-3.5879,-3.5894,-3.5831,-3.5683,-3.5619,-3.5554,-3.5554,-3.5554,-3.5554,-3.5554,-3.5653,-3.5752,-3.5816,-3.5958,-3.6037,-3.5816,-3.5752,-3.5703,-3.5554,-3.5504,-3.5504,-3.5504,-3.5504,-3.5504,-3.5504,-3.503,-3.4481,-3.3865,-3.2747,-3.185,-3.1198,-3.0533,-3.0075,-3.0075,-2.9521,-2.9131,-2.9131,-2.8087,-2.736,-2.6798,-2.4914,-2.3444,-2.2394,-2.0619,-1.9363,-1.8535,-1.7792,-1.6662,-4.6303,-4.6296,0.0,-4.623,-4.6162,-4.6118,0.0,0.0,-4.588,-4.581,-4.5738,-4.5693,-4.5603,-4.5586,-4.5586,-4.5586,-4.5586,-4.5586,-4.5586,-4.5586,-4.5586,-4.5586,-4.5586,-4.5586,-4.5586,-4.5586,-4.5586,-4.5586,-4.5586,-4.5586,-4.5586,-4.5586,-4.5586,-4.5586,-4.5586,-4.555,-4.5419,-4.5339,-4.5103,-4.4738,-4.4355,-4.4079,-4.3804,-4.36,-4.3268,-4.2844,-4.1796,-4.1226,-4.0871,-4.032,-4.007,-4.0087,-3.9935,-3.9746,-3.9432,-3.8805,-3.8189,-3.7567,-3.6907,-3.66,-3.6492,-3.6429,-3.6538,-3.66,-3.6476,-3.6429,-3.6367,-3.6037,-3.591,-3.591,-3.5703,-3.5688,-3.5688,-3.5688,-3.5831,-3.6022,-3.6148,-3.6289,-3.6352,-3.6211,-3.6022,-3.5894,-3.5703,-3.5604,-3.5504,-3.5504,-3.5504,-3.5504,-3.5504,-3.503,-3.4481,-3.3865,-3.2747,-3.169,-3.0583,-3.0216,-3.0075,-3.0075,-2.9664,-2.9275,-2.9131,-2.8223,-2.7406,-2.6528,-2.5179,-2.3714,-2.2394,-2.1069,-1.9894,-1.8796,-1.7963,-1.7131,-4.6295,0.0,0.0,0.0,-4.6157,-4.6093,-4.6007,-4.5905,-4.5819,-4.5754,-4.569,-4.564,-4.5622,-4.5586,-4.5586,0.0,-4.5586,-4.5586,-4.5586,-4.5586,-4.5586,-4.5586,-4.5586,-4.5586,-4.5586,-4.5586,-4.5586,-4.5586,-4.5586,-4.5586,-4.5586,-4.5586,-4.5586,-4.5586,-4.5586,-4.5549,-4.5457,-4.536,-4.5148,-4.4796,-4.4412,-4.4079,-4.3851,-4.36,-4.3232,-4.267,-4.1831,-4.1226,-4.0871,-4.0387,-4.0188,-4.007,-4.0037,-3.9884,-3.9642,-3.886,-3.8116,-3.7433,-3.6892,-3.66,-3.6492,-3.66,-3.6785,-3.6952,-3.6815,-3.6738,-3.6631,-3.6211,-3.6085,-3.6022,-3.5752,-3.5767,-3.5894,-3.5894,-3.6148,-3.6461,-3.6554,-3.6754,-3.6831,-3.6523,-3.6414,-3.6226,-3.5894,-3.5718,-3.5589,-3.5589,-3.5554,-3.5439,-3.5359,-3.4898,-3.3977,-3.2577,-3.175,-3.0973,-3.0152,-2.9934,-2.9934,-2.9934,-2.9586,-2.9341,-2.9275,-2.8291,-2.7487,-2.694,-2.5337,-2.4059,-2.3018,-2.1695,-2.0628,-1.9637,-1.8611,-1.7692,-4.6303,0.0,0.0,-4.6201,-4.6154,-4.6076,-4.5953,-4.5874,-4.581,-4.577,-4.5703,-4.5671,-4.5654,-4.5673,-4.5637,-4.564,-4.564,-4.5622,-4.5586,-4.5586,-4.5586,-4.5586,-4.5586,-4.5586,-4.5586,-4.5586,-4.5586,-4.5586,-4.5586,-4.5586,-4.5586,-4.5586,-4.5586,-4.5586,-4.5586,-4.5568,-4.5495,-4.536,-4.517,-4.4895,-4.4421,-4.4091,-4.3897,-4.3532,-4.3123,-4.2591,-4.1892,-4.1318,-4.0918,-4.0485,-4.0238,-4.007,-4.007,-4.0037,-3.9781,-3.9077,-3.8399,-3.7653,-3.7074,-3.6831,-3.6785,-3.6831,-3.7134,-3.7358,-3.7207,-3.7207,-3.7087,-3.6616,-3.6507,-3.6383,-3.607,-3.6085,-3.6226,-3.6226,-3.6523,-3.6937,-3.7147,-3.7282,-3.7298,-3.6952,-3.6723,-3.6429,-3.61,-3.5894,-3.5688,-3.5688,-3.5604,-3.5439,-3.5213,-3.4534,-3.3395,-3.1663,-3.1035,-3.0483,-2.9869,-2.9792,-2.9792,-2.9792,-2.9611,-2.9509,-2.9419,-2.8462,-2.7742,-2.7185,-2.5589,-2.4413,-2.3724,-2.2413,-2.1445,-2.0645,-1.9438,-1.8342,0.0,0.0,-4.6277,-4.6211,-4.6157,-4.6084,-4.6007,-4.5949,-4.5893,-4.5893,-4.5847,-4.5786,-4.5795,-4.5781,-4.577,-4.5709,-4.5693,-4.5657,-4.5622,-4.5586,-4.5586,-4.5586,-4.5586,-4.5586,0.0,-4.5586,-4.5586,-4.5586,-4.5586,-4.5586,-4.5586,-4.5586,-4.5586,-4.5586,-4.5586,-4.5568,-4.5495,-4.536,-4.517,-4.4895,-4.4421,-4.4091,-4.3865,-4.334,-4.2956,-4.2673,-4.1917,-4.1363,-4.0977,-4.0485,-4.0238,-4.007,-4.007,-4.0037,-3.9849,-3.9606,-3.9094,-3.8455,-3.7637,-3.7358,-3.7358,-3.7358,-3.7594,-3.7886,-3.7886,-3.7886,-3.7828,-3.7476,-3.7298,-3.7074,-3.6785,-3.6646,-3.6662,-3.6662,-3.7074,-3.7476,-3.7828,-3.787,-3.777,-3.7417,-3.7013,-3.66,-3.6274,-3.5943,-3.5688,-3.5688,-3.5604,-3.5439,-3.5213,-3.4113,-3.2832,-3.1663,-3.1035,-3.0483,-2.9869,-2.9792,-2.9792,-2.9792,-2.9792,-2.9689,-2.9419,-2.8816,-2.8099,-2.7185,-2.603,-2.502,-2.4155,-2.3222,-2.2344,-2.1606,-2.043,-1.9347,-4.6307,0.0,-4.6273,-4.623,-4.617,-4.6142,-4.6027,-4.5977,-4.5941,-4.5905,-4.588,-4.5867,-4.5866,-4.5819,-4.5776,-4.5719,-4.5706,-4.5693,-4.5622,-4.5586,-4.5586,-4.5586,-4.5586,0.0,0.0,0.0,0.0,-4.5586,-4.5586,-4.5586,-4.5586,-4.5586,-4.5586,-4.5586,-4.5586,-4.5586,-4.5568,-4.538,-4.5213,-4.5014,-4.4383,-4.3923,-4.3634,-4.3411,-4.3068,-4.2655,-4.2216,-4.1622,-4.0977,-4.068,-4.0387,-4.007,-4.007,-4.0087,-3.9986,-3.9849,-3.9573,-3.9169,-3.8327,-3.7927,-3.787,-3.81,-3.8343,-3.8511,-3.8511,-3.8511,-3.8399,-3.7985,-3.777,-3.7594,-3.7238,-3.7178,-3.7178,-3.7298,-3.7637,-3.8042,-3.8286,-3.8343,-3.823,-3.7828,-3.7417,-3.6997,-3.6585,-3.6274,-3.5958,-3.5604,-3.5279,-3.5016,-3.4683,-3.3756,-3.2761,-3.1836,-3.1198,-3.0609,-3.0088,-3.0011,-2.9934,-2.9792,-2.9792,-2.9792,-2.9702,-2.9052,-2.8407,-2.7846,-2.6599,-2.5695,-2.502,-2.4003,-2.3212,-2.257,-2.1239,-2.0076,-4.6308,-4.6307,-4.6282,-4.6248,-4.6225,-4.6176,-4.6091,-4.608,-4.6054,-4.6018,-4.6018,-4.5998,-4.5975,-4.5941,-4.588,-4.5757,-4.5735,-4.5706,-4.5603,-4.5586,-4.5586,-4.5586,-4.5586,-4.5586,0.0,0.0,0.0,-4.5586,-4.5586,-4.5586,-4.5586,-4.5586,-4.5586,-4.5586,-4.5586,-4.5586,-4.5586,-4.54,-4.5129,-4.4758,-4.424,-4.3814,-4.3497,-4.3411,-4.3196,-4.2806,-4.2378,-4.1839,-4.118,-4.0823,-4.0485,-4.0188,-4.0138,-4.007,-4.007,-3.9935,-3.9849,-3.9677,-3.8882,-3.8551,-3.8551,-3.8717,-3.8914,-3.904,-3.904,-3.904,-3.8969,-3.8606,-3.8383,-3.8173,-3.7886,-3.777,-3.777,-3.7943,-3.827,-3.8623,-3.8805,-3.8805,-3.8623,-3.8116,-3.777,-3.7373,-3.6923,-3.6414,-3.5973,-3.5554,-3.5148,-3.4802,-3.4549,-3.3701,-3.2846,-3.2055,-3.1482,-3.0823,-3.0228,-3.0152,-3.0011,-2.9792,-2.9792,-2.9792,-2.9792,-2.9131,-2.8645,-2.8339,-2.7185,-2.6362,-2.5957,-2.502,-2.4327,-2.38,-2.2394,-2.115,-4.6308,-4.6308,-4.6307,-4.6303,-4.6254,-4.6202,-4.621,-4.6221,-4.6192,-4.6211,-4.6211,-4.6176,0.0,0.0,-4.6047,-4.5841,-4.5791,-4.575,-4.562,-4.5586,-4.5586,0.0,0.0,0.0,0.0,0.0,0.0,-4.5586,0.0,-4.5586,-4.5586,-4.5586,-4.5586,-4.5586,-4.5586,-4.5586,-4.5586,-4.538,-4.4905,-4.4192,-4.4079,-4.3814,-4.3497,-4.3446,-4.3287,-4.3067,-4.2476,-4.1984,-4.156,-4.0965,-4.0551,-4.0305,-4.0138,-4.007,-4.007,-3.9952,-3.9901,-3.9833,-3.9382,-3.9259,-3.9206,-3.9259,-3.9345,-3.9501,-3.9501,-3.9501,-3.9484,-3.9276,-3.9061,-3.8805,-3.8694,-3.8544,-3.8504,-3.8583,-3.886,-3.9077,-3.9272,-3.9148,-3.8914,-3.8439,-3.8017,-3.7583,-3.706,-3.6429,-3.5925,-3.5554,-3.5148,-3.4868,-3.4698,-3.3908,-3.3129,-3.2489,-3.1776,-3.1123,-3.052,-3.0228,-3.0011,-2.9792,-2.9792,-2.9792,-2.9792,-2.9209,-2.8724,-2.851,-2.7684,-2.7196,-2.6974,-2.6279,-2.5695,-2.5189,-2.3877,-2.2561,-4.6308,-4.6308,-4.6308,-4.6307,-4.6285,-4.6262,-4.627,-4.6267,-4.6264,-4.6218,-4.6195,-4.6186,0.0,0.0,0.0,-4.5899,-4.5824,0.0,-4.562,-4.5586,0.0,0.0,0.0,-4.5586,-4.5586,-4.5586,0.0,0.0,-4.5586,-4.5586,-4.5586,-4.5586,-4.5586,-4.5586,-4.5586,-4.5586,-4.5586,-4.53,-4.4833,-4.4192,-4.4079,-4.3814,-4.3497,-4.3497,-4.334,-4.3067,-4.2729,-4.2192,-4.156,-4.1088,-4.0662,-4.0305,-4.0138,-4.007,-4.0087,-4.0087,-4.0037,-4.0037,-3.9918,-3.9764,-3.9609,-3.9661,-3.9729,-3.9798,-3.9798,-3.9798,-3.9746,-3.9625,-3.9468,-3.9325,-3.9272,-3.9131,-3.9061,-3.9202,-3.9415,-3.952,-3.9573,-3.9573,-3.9398,-3.9044,-3.8383,-3.7727,-3.7194,-3.6585,-3.6022,-3.5703,-3.5329,-3.5016,-3.4765,-3.4128,-3.3479,-3.2917,-3.2417,-3.1763,-3.0898,-3.0685,-3.0318,-2.9869,-2.9792,-2.9792,-2.9792,-2.9443,-2.9118,-2.8973,-2.8419,-2.8099,-2.7857,-2.7185,-2.6599,-2.6113,-2.4967,-2.377,-4.6308,-4.6308,-4.6308,-4.6308,-4.6308,-4.6307,-4.6305,-4.6303,-4.6284,-4.6241,-4.6241,0.0,0.0,0.0,0.0,0.0,0.0,0.0,-4.5657,-4.5622,-4.5586,0.0,-4.5586,0.0,-4.5586,-4.5951,-4.6163,0.0,-4.5817,-4.5586,-4.5586,-4.5586,-4.5586,-4.5586,-4.5586,-4.5568,-4.5515,-4.5235,-4.4833,-4.4308,-4.4091,-4.3846,-4.3548,-4.3513,-4.3393,-4.3215,0.0,-4.2476,-4.1917,-4.1373,-4.0931,-4.0566,-4.0288,-4.0188,-4.0188,-4.0138,-4.007,-4.007,-4.007,-3.9969,-3.9884,-3.9986,-3.9986,-3.9986,-3.9986,-3.9986,-3.9986,-3.9884,-3.9798,-3.9694,-3.9694,-3.9573,-3.9435,-3.9642,-3.9746,-3.9781,-3.9781,-3.9781,-3.9677,-3.9222,-3.8551,-3.7943,-3.7358,-3.686,-3.6368,-3.6085,-3.5782,-3.5459,-3.5279,-3.4668,-3.3991,-3.3409,-3.2917,-3.2273,-3.1185,-3.0836,-3.047,-2.9869,-2.9792,-2.9792,-2.9792,-2.9521,-2.9341,-2.9197,-2.8895,-2.8736,-2.8566,-2.8155,-2.7672,-2.7185,-2.6152,-2.5041,-4.6308,-4.6308,-4.6308,-4.6308,-4.6308,-4.6308,-4.6308,-4.6308,-4.6308,-4.6308,0.0,-4.6308,-4.6297,0.0,-4.6157,-4.6008,0.0,-4.5805,-4.5706,-4.5657,-4.5622,-4.5586,-4.5586,-4.5586,-4.5586,-4.6394,-4.6913,-4.6913,-4.6201,-4.5759,-4.5759,-4.5663,-4.5586,-4.5586,-4.5586,-4.5551,-4.5398,-4.5213,-4.4857,-4.4402,-4.4151,-4.3878,-4.3582,-4.3513,-4.3463,-4.3394,-4.305,-4.2729,-4.2396,-4.1727,-4.1283,-4.1024,-4.0566,-4.0337,-4.0355,-4.0188,-4.0138,-4.0121,-4.0138,-4.007,-4.007,-4.007,-4.007,-4.007,-4.007,-4.007,-4.007,-4.007,-4.0037,-3.9952,-3.9952,-3.9833,-3.9781,-3.9901,-3.9952,-3.9952,-3.9952,-3.9952,-3.9781,-3.9239,-3.8733,-3.827,-3.7695,-3.7266,-3.6921,-3.6662,-3.6352,-3.6085,-3.61,-3.5344,-3.4549,-3.3991,-3.3409,-3.2605,-3.1455,-3.0973,-3.047,-2.9869,-2.9792,-2.9792,-2.9792,-2.9599,-2.9419,-2.9419,-2.9287,-2.9209,-2.9209,-2.8961,-2.8724,-2.8339,-2.7406,-2.6307,-4.6308,-4.6308,-4.6308,-4.6308,-4.6308,-4.6308,-4.6308,-4.6308,0.0,0.0,0.0,-4.6308,-4.6297,-4.6257,0.0,-4.6017,0.0,0.0,0.0,0.0,-4.5657,0.0,0.0,0.0,0.0,0.0,0.0,0.0,0.0,-4.6682,-4.6682,-4.599,-4.5586,-4.5586,-4.5586,-4.5551,-4.5398,-4.5254,-4.4905,-4.4402,-4.4162,-4.3923,-4.3582,-4.3513,-4.3463,-4.3394,-4.316,0.0,-4.2512,-4.2026,-4.1622,-4.13,-4.0866,-4.071,-4.06,-4.0355,-4.0255,-4.0238,-4.0138,-4.007,-4.007,-4.007,-4.007,-4.007,-4.007,-4.007,-4.007,-4.007,-4.007,-4.0087,-4.0087,-4.0037,-4.0037,-4.0087,-4.0087,-4.0087,-4.0087,-4.0087,-3.9986,-3.9781,-3.9382,-3.8936,-3.8623,-3.7985,-3.7401,-3.7298,-3.6982,-3.6677,-3.6585,-3.5718,-3.4949,-3.4549,-3.3894,-3.3017,-3.2042,-3.1334,-3.0685,-3.0088,-2.9869,-2.9792,-2.9792,-2.9792,-2.9702,-2.9702,-2.9714,-2.9714,-2.9714,-2.9431,-2.9184,-2.8895,-2.8247,-2.7336,-4.6308,-4.6308,-4.6308,-4.6308,-4.6308,-4.6308,-4.6308,0.0,0.0,0.0,-4.6308,-4.6308,-4.6303,0.0,0.0,0.0,0.0,0.0,0.0,0.0,0.0,0.0,0.0,0.0,0.0,0.0,0.0,0.0,0.0,-4.6913,-4.6913,-4.6067,-4.5586,-4.5586,-4.5586,-4.555,-4.5458,-4.5281,-4.5023,-4.4655,-4.4336,-4.403,-4.3767,-4.3615,-4.3532,-4.3428,-4.3305,-4.3123,-4.2862,-4.2454,-4.211,-4.1753,-4.1311,-4.1024,-4.0823,-4.0534,-4.0337,-4.0305,-4.0138,-4.007,-4.007,-4.007,-4.007,-4.007,-4.007,-4.007,-4.007,-4.007,-4.007,-4.007,-4.007,-4.007,-4.007,-4.007,-4.0138,-4.0238,-4.0271,-4.0337,-4.0238,-4.0037,-3.9764,-3.9451,-3.9061,-3.8606,-3.827,-3.8173,-3.7854,-3.7621,-3.7519,-3.686,-3.6006,-3.5184,-3.4423,-3.352,-3.2475,-3.1776,-3.1198,-3.0609,-3.0394,-3.0241,-3.0241,-3.0088,-2.9934,-2.9934,-2.9869,-2.9792,-2.9792,-2.9689,-2.9521,-2.9275,-2.8724,-2.7995,-4.6308,-4.6308,-4.6308,-4.6308,-4.6308,-4.6308,-4.6308,-4.6308,0.0,0.0,-4.6308,-4.6308,-4.6307,0.0,0.0,0.0,0.0,0.0,0.0,0.0,0.0,0.0,0.0,0.0,0.0,0.0,0.0,0.0,0.0,0.0,-4.6624,-4.597,-4.5586,-4.5586,-4.5586,-4.5568,-4.5495,-4.5341,-4.5135,-4.4919,-4.4503,-4.4162,-4.3929,-4.3682,-4.3548,-4.3497,-4.3411,-4.334,-4.3214,-4.2842,-4.2534,-4.2239,-4.1753,-4.1373,-4.1071,-4.0693,-4.0485,-4.0337,-4.0188,-4.007,-4.007,-4.007,-4.007,-4.007,-4.007,-4.007,-4.007,-4.007,-4.007,-4.007,-4.007,-4.007,-4.0121,-4.0171,-4.0271,-4.0419,-4.0566,-4.0614,-4.0517,-4.032,-4.0087,-3.9884,-3.947,-3.9222,-3.9077,-3.8969,-3.8678,-3.8495,-3.8439,-3.7985,-3.7207,-3.6087,-3.5124,-3.4206,-3.3101,-3.2403,-3.1776,-3.1272,-3.0986,-3.0836,-3.0836,-3.052,-3.0292,-3.0305,-3.0164,-3.0023,-3.0023,-3.0023,-2.9844,-2.9509,-2.9197,-2.8566,-4.6308,-4.6308,-4.6308,-4.6308,-4.6308,-4.6308,-4.6308,0.0,0.0,-4.6308,-4.6308,-4.6308,-4.6307,-4.6284,-4.6276,0.0,0.0,0.0,0.0,0.0,0.0,0.0,0.0,0.0,0.0,0.0,0.0,0.0,0.0,0.0,-4.5759,-4.5624,-4.5586,-4.5586,-4.5586,-4.5568,-4.5495,-4.5419,-4.5235,-4.501,-4.4565,-4.425,-4.3974,-4.3716,-4.3548,-4.3497,-4.3411,-4.3394,0.0,-4.3123,-4.2918,-4.2616,-4.2239,-4.1899,-4.1498,-4.096,-4.0645,-4.0436,-4.0188,-4.007,-4.007,-4.007,-4.007,-4.007,-4.007,-4.007,-4.007,-4.007,-4.007,-4.007,-4.007,-4.007,-4.0171,-4.0436,-4.0597,-4.0819,-4.0931,-4.0931,-4.0931,-4.0754,-4.0451,-4.0188,-4.0037,-3.9677,-3.9432,-3.9448,-3.9222,-3.9044,-3.8969,-3.8678,-3.8286,-3.7754,-3.6259,-3.4993,-3.4245,-3.3241,-3.2417,-3.2055,-3.1676,-3.1368,-3.1158,-3.1158,-3.1022,-3.0911,-3.0911,-3.0761,-3.0622,-3.0622,-3.0394,-2.9998,-2.9779,-2.9221,-4.6308,-4.6308,-4.6308,-4.6308,-4.6308,-4.6308,-4.6308,0.0,0.0,-4.6308,-4.6308,-4.6308,-4.6308,-4.6307,-4.6284,-4.6254,0.0,0.0,0.0,0.0,0.0,0.0,0.0,0.0,0.0,0.0,0.0,0.0,0.0,0.0,-4.5605,-4.5586,-4.5586,-4.5586,-4.5586,-4.5586,-4.5568,-4.5438,-4.53,-4.5125,-4.4751,-4.4383,-4.4048,-4.3832,-4.3634,-4.3497,-4.3463,-4.3463,0.0,-4.334,-4.316,-4.2918,-4.2573,-4.2169,-4.1719,-4.1328,-4.1024,-4.084,-4.0534,-4.0436,-4.0436,-4.0288,-4.0288,-4.032,-4.0121,-4.0138,-4.0238,-4.0238,-4.0288,-4.032,-4.032,-4.0387,-4.0534,-4.0758,-4.0977,-4.1237,-4.1356,-4.1401,-4.1356,-4.1192,-4.0931,-4.0662,-4.0485,-4.0238,-4.0087,-3.9986,-3.9816,-3.9696,-3.9573,-3.9309,-3.8969,-3.8623,-3.71,-3.5867,-3.5275,-3.4566,-3.3973,-3.363,-3.3199,-3.2918,-3.2577,-3.2146,-3.1809,-3.1703,-3.1394,-3.1246,-3.1172,-3.1022,-3.096,-3.0722,-3.0419,-2.996,-4.6308,-4.6308,-4.6308,-4.6308,-4.6308,-4.6308,0.0,0.0,-4.6308,-4.6308,-4.6308,-4.6308,-4.6308,-4.6308,-4.6307,-4.6305,0.0,-4.6214,0.0,0.0,0.0,0.0,0.0,0.0,0.0,0.0,0.0,0.0,0.0,0.0,-4.564,-4.5622,-4.5586,-4.5586,-4.5586,-4.5586,-4.5586,-4.5476,-4.5321,-4.5192,-4.4846,-4.4486,-4.4091,-4.3897,-4.3686,-4.3497,-4.3497,-4.3497,0.0,-4.3446,-4.334,-4.3178,-4.2842,-4.2472,-4.2044,-4.1683,-4.1408,-4.1215,-4.0888,-4.0776,-4.0728,-4.0502,-4.0485,-4.0583,-4.037,-4.037,-4.0404,-4.0387,-4.0436,-4.0583,-4.0566,-4.0758,-4.0948,-4.1146,-4.1463,-4.177,-4.1941,-4.1984,-4.1881,-4.1683,-4.1401,-4.11,-4.0918,-4.0728,-4.0583,-4.0436,-4.0337,-4.0238,-4.0087,-3.9901,-3.9642,-3.9309,-3.8149,-3.7128,-3.6446,-3.5867,-3.5419,-3.5094,-3.4684,-3.4298,-3.3973,-3.3408,-3.3003,-3.2747,-3.2506,-3.229,-3.2146,-3.2015,-3.1796,-3.1576,-3.1206,-3.0696,-4.6308,-4.6308,-4.6308,-4.6308,-4.6308,-4.6308,0.0,0.0,-4.6308,-4.6308,-4.6308,-4.6308,-4.6308,-4.6308,-4.6308,-4.6307,-4.6305,0.0,0.0,0.0,0.0,0.0,0.0,0.0,0.0,0.0,0.0,0.0,0.0,0.0,-4.5693,-4.564,-4.5586,-4.5586,-4.5586,-4.5586,-4.5586,-4.5476,-4.5321,-4.5192,-4.4846,-4.4486,-4.4091,-4.3897,-4.3686,-4.3497,-4.3497,-4.3497,0.0,-4.3497,-4.3463,-4.3394,-4.3178,-4.2899,-4.253,-4.2068,-4.1788,-4.156,-4.1117,-4.0977,-4.0977,-4.0776,-4.0793,-4.0871,-4.0819,-4.0758,-4.0648,-4.0534,-4.0583,-4.0728,-4.0772,-4.1082,-4.1418,-4.1622,-4.205,-4.2436,-4.2552,-4.2609,-4.2512,-4.2257,-4.1906,-4.1578,-4.1237,-4.1071,-4.0948,-4.0745,-4.0697,-4.0648,-4.0534,-4.0387,-4.0205,-3.9901,-3.9609,-3.881,-3.7519,-3.6874,-3.6415,-3.6089,-3.5804,-3.5434,-3.5109,-3.4942,-3.4677,-3.4312,-3.4245,-3.4109,-3.3796,-3.3575,-3.3073,-3.2362,-3.2187,-3.1529,-4.6308,-4.6308,-4.6308,-4.6308,-4.6308,-4.6308,-4.6308,0.0,-4.6308,-4.6308,-4.6308,-4.6308,-4.6308,-4.6308,-4.6308,-4.6308,-4.6307,0.0,0.0,0.0,0.0,0.0,0.0,0.0,0.0,0.0,0.0,0.0,0.0,0.0,-4.5703,-4.569,-4.564,-4.5586,-4.5586,-4.5586,-4.5586,-4.5476,-4.5321,-4.5192,-4.4846,-4.4486,-4.4091,-4.3897,-4.3686,-4.3497,-4.3497,-4.3497,-4.3497,-4.3497,-4.3463,-4.3394,-4.3233,-4.3031,-4.2786,-4.2555,-4.2356,-4.2228,-4.1924,-4.1796,-4.1701,-4.1408,-4.1346,-4.1418,-4.1346,-4.1209,-4.1088,-4.1226,-4.1272,-4.1318,-4.1401,-4.164,-4.1917,-4.2133,-4.2476,-4.2768,-4.2936,-4.2936,-4.2842,-4.2595,-4.2338,-4.2092,-4.1874,-4.1683,-4.1552,-4.1335,-4.1335,-4.118,-4.0884,-4.0789,-4.0662,-4.032,-4.0121,-3.9592,-3.8551,-3.8254,-3.7953,-3.7648,-3.7354,-3.6935,-3.6322,-3.5976,-3.5657,-3.5385,-3.519,-3.4993,-3.4861,-3.4461,-3.3905,-3.3367,-3.3044,-3.2676,0.0,-4.6308,-4.6308,-4.6307,-4.6307,0.0,0.0,0.0,-4.6307,-4.6308,-4.6308,-4.6308,-4.6308,-4.6308,-4.6308,-4.6308,-4.6308,0.0,0.0,0.0,0.0,0.0,0.0,0.0,0.0,0.0,0.0,0.0,0.0,0.0,-4.5776,-4.5735,-4.5706,-4.564,-4.5603,-4.5586,-4.5586,-4.5476,-4.5321,-4.5192,-4.4889,-4.4513,-4.4121,-4.3929,-4.3719,-4.3532,-4.3532,-4.3497,0.0,-4.3497,-4.3463,-4.3411,-4.334,-4.3214,-4.305,-4.29,-4.2824,-4.2727,-4.2454,-4.2333,-4.2228,-4.1892,-4.1874,-4.1966,-4.1984,-4.177,-4.1507,-4.1719,-4.1762,-4.1805,-4.1924,-4.2151,-4.2374,-4.2613,-4.29,-4.3105,-4.3215,-4.3215,-4.316,-4.292,-4.2768,-4.2573,-4.2374,-4.2274,-4.2092,-4.1856,-4.1831,-4.1683,-4.1373,-4.1283,-4.1146,-4.0884,-4.0662,-4.032,-3.9696,-3.9292,-3.8969,-3.8662,-3.8439,-3.81,-3.7605,-3.7251,-3.7011,-3.6798,-3.6569,-3.6384,-3.6259,-3.5578,-3.4993,-3.4543,-3.4192,-3.3988,0.0,0.0,0.0,0.0,0.0,0.0,0.0,0.0,0.0,-4.6286,-4.6306,-4.6307,-4.6308,-4.6308,-4.6308,-4.6308,-4.6308,0.0,0.0,0.0,0.0,0.0,0.0,0.0,0.0,0.0,0.0,0.0,0.0,0.0,-4.5919,-4.5838,-4.5785,-4.5709,-4.564,-4.5603,-4.5586,-4.5476,-4.5321,-4.5192,-4.4943,-4.4621,-4.4192,-4.4005,-4.38,0.0,-4.3548,-4.3532,-4.3532,-4.3479,-4.3497,-4.3479,-4.3446,-4.3429,-4.3376,-4.3215,-4.3141,-4.3104,-4.2765,-4.2649,-4.2609,-4.2269,-4.2292,-4.2476,-4.2673,-4.2378,-4.2026,-4.2127,-4.2145,-4.221,-4.2396,-4.2577,-4.2788,-4.3086,-4.3287,-4.3429,-4.3429,-4.3429,-4.3376,-4.3232,-4.3178,-4.3049,-4.2788,-4.275,-4.2616,-4.2297,-4.2239,-4.2175,-4.1966,-4.1839,-4.1666,-4.1463,-4.1209,-4.0977,-4.0793,-4.0037,-3.952,-3.9312,-3.9169,-3.9061,-3.8898,-3.8684,-3.8557,-3.839,-3.8254,-3.7969,-3.7589,-3.6723,-3.6133,-3.58,-3.5593,-3.5385,-4.6167,0.0,-4.6212,-4.6228,-4.6228,0.0,0.0,0.0,0.0,0.0,0.0,0.0,0.0,-4.6305,-4.6307,-4.6307,-4.6308,0.0,0.0,0.0,0.0,0.0,0.0,0.0,0.0,0.0,0.0,0.0,0.0,-4.608,-4.5988,-4.5902,-4.5848,-4.5791,-4.5715,-4.5651,-4.5586,-4.5513,-4.5381,-4.5199,-4.5019,-4.477,-4.4421,-4.417,-4.3974,-4.3832,-4.3649,-4.3582,-4.3582,-4.3513,-4.3497,-4.3497,-4.3497,-4.3463,-4.3463,-4.3428,-4.3393,-4.3393,-4.3269,-4.3142,-4.3031,-4.2936,-4.2899,-4.2956,-4.305,-4.2882,-4.2673,-4.2691,-4.2691,-4.2768,-4.2957,-4.3105,-4.3232,-4.3426,-4.36,-4.3704,-4.3704,-4.3704,-4.3652,-4.3529,-4.3444,-4.3339,-4.3196,-4.3105,-4.305,-4.2918,-4.288,-4.2786,-4.2537,-4.2454,-4.2251,-4.1977,-4.1683,-4.1445,-4.1255,-4.071,-4.0337,-4.0204,-4.012,-4.0003,-3.9885,-3.9629,-3.9456,-3.9456,-3.892,-3.827,-3.7621,-3.7282,-3.6982,-3.6585,-3.6477,-3.6399,-4.6026,-4.6072,-4.6147,-4.6156,-4.615,-4.6156,0.0,0.0,0.0,0.0,0.0,0.0,0.0,0.0,0.0,0.0,0.0,0.0,0.0,0.0,0.0,0.0,0.0,0.0,0.0,0.0,0.0,0.0,0.0,-4.6176,-4.6107,-4.6026,-4.5947,-4.5854,-4.5786,-4.5715,-4.564,-4.555,-4.5419,-4.5302,-4.5173,-4.4967,-4.4719,-4.4458,-4.4229,-4.4079,-4.3892,-4.3795,-4.3716,-4.3701,-4.3634,-4.3566,-4.3566,-4.3532,-4.3497,-4.3497,-4.3497,-4.3497,-4.3411,-4.3305,-4.3214,-4.3233,-4.3251,-4.3251,-4.3322,-4.3268,-4.3178,-4.3069,-4.3069,-4.3142,-4.3321,-4.3408,-4.3545,-4.373,-4.3846,-4.3897,-4.3929,-4.3929,-4.391,-4.3841,-4.3795,-4.373,-4.3646,-4.3597,-4.3548,-4.3463,-4.3428,-4.3286,-4.316,-4.2957,-4.2786,-4.2494,-4.2192,-4.1924,-4.1744,-4.1507,-4.1237,-4.0853,-4.0849,-4.0832,-4.0737,-4.0655,-4.0494,-4.0334,-3.9885,-3.9315,-3.8707,-3.8541,-3.8196,-3.7576,-3.7464,-3.7247,-4.5905,-4.5958,-4.6052,-4.6065,-4.6075,-4.6065,-4.6083,0.0,0.0,0.0,0.0,0.0,0.0,0.0,0.0,0.0,0.0,0.0,0.0,0.0,0.0,0.0,0.0,0.0,0.0,0.0,0.0,0.0,0.0,-4.6218,-4.622,-4.6151,-4.6063,-4.5933,-4.5848,-4.5771,-4.5726,-4.5586,-4.5495,-4.5419,-4.53,-4.5151,-4.5038,-4.477,-4.4568,-4.4374,0.0,0.0,-4.3974,-4.3961,-4.3814,-4.3682,-4.3682,-4.3615,-4.3548,-4.3548,-4.3548,-4.3497,-4.3446,-4.334,-4.3268,-4.3376,-4.3411,-4.3446,-4.3497,-4.36,-4.3582,-4.3375,-4.3356,-4.3461,-4.3612,-4.3712,-4.3809,-4.4036,-4.4067,-4.4079,-4.417,-4.417,-4.4199,-4.4199,-4.4151,-4.4121,-4.4079,-4.4048,-4.3986,-4.3942,-4.3828,-4.3744,-4.3646,-4.3426,-4.3196,-4.2995,-4.2673,-4.2436,-4.2228,-4.2167,-4.1855,-4.1332,-4.1499,-4.1552,-4.1552,-4.1604,-4.1402,-4.0909,-4.0659,-4.0257,-3.9697,-3.9598,-3.916,-3.8338,-3.8221,-3.7803,-4.5824,-4.5838,-4.586,-4.5917,-4.5941,-4.5953,-4.5994,0.0,0.0,0.0,0.0,0.0,0.0,0.0,0.0,0.0,0.0,0.0,0.0,0.0,0.0,0.0,0.0,0.0,0.0,0.0,0.0,0.0,0.0,-4.6282,-4.6287,-4.623,-4.615,-4.6072,-4.5958,-4.5861,-4.5785,-4.5654,-4.555,-4.5495,-4.54,-4.5302,-4.5159,-4.4995,-4.4895,-4.4777,0.0,-4.4346,-4.4318,-4.4151,-4.4048,-4.4017,-4.3955,-4.3878,-4.3832,-4.3832,-4.3734,-4.36,-4.3497,-4.3463,-4.3463,-4.3497,-4.3532,-4.3548,-4.3582,-4.3734,-4.3865,-4.3878,-4.3846,-4.3846,-4.3986,-4.4091,-4.4181,-4.4383,-4.4411,-4.444,-4.4524,-4.4505,-4.4532,-4.4587,-4.4467,-4.4346,-4.4346,-4.425,-4.4181,-4.4151,-4.4091,-4.3999,-4.3942,-4.3697,-4.3442,-4.3267,-4.3087,-4.2918,-4.2768,-4.2154,-4.1737,-4.1623,-4.2135,-4.2374,-4.2257,-4.2257,-4.1689,-4.0499,-4.035,-3.969,-3.847,-3.847,-3.8308,-3.8048,-3.7919,-3.7838,-4.5703,-4.5687,-4.5703,-4.5731,-4.5771,-4.5814,-4.5887,0.0,0.0,0.0,0.0,0.0,0.0,0.0,0.0,0.0,0.0,0.0,0.0,0.0,0.0,0.0,0.0,0.0,0.0,0.0,0.0,0.0,0.0,0.0,-4.6303,-4.627,-4.6225,-4.6164,-4.6017,-4.5922,-4.5852,-4.5715,-4.5618,-4.555,-4.5495,-4.5419,-4.5342,-4.5258,-4.5151,-4.5045,0.0,-4.4783,-4.4655,-4.4576,-4.4439,-4.4279,-4.4221,-4.4121,-4.4005,-4.3929,-4.3818,-4.3719,-4.3701,-4.3734,-4.3734,-4.3749,-4.3781,-4.3828,-4.386,-4.3986,-4.4121,-4.4192,-4.4181,-4.417,-4.4317,-4.4458,-4.4568,-4.4693,-4.4712,-4.4745,-4.4846,-4.487,-4.4895,-4.4943,-4.49,-4.4814,-4.4764,-4.4732,-4.4681,-4.4681,-4.4207,-4.3818,-4.3736,-4.3069,-4.2551,-4.2414,-4.2257,-4.2142,-4.1986,-4.1708,-4.1405,-4.1125,-4.1361,-4.1523,-4.1578,-4.1542,-4.125,-4.063,-4.0533,-4.0125,-3.9438,-3.9438,-3.9146,-3.8596,-3.8415,-3.808,-4.5603,-4.5586,-4.5586,-4.5586,0.0,-4.57,-4.5761,0.0,0.0,0.0,0.0,0.0,0.0,0.0,0.0,0.0,0.0,0.0,0.0,0.0,0.0,0.0,0.0,0.0,0.0,0.0,0.0,0.0,0.0,0.0,-4.6307,-4.6303,-4.6264,-4.6201,-4.6096,-4.5978,-4.5899,-4.5791,-4.5703,-4.5622,-4.5568,-4.5513,-4.5513,-4.5438,-4.5361,-4.5282,-4.5258,-4.517,-4.5014,-4.4967,-4.4808,-4.4591,-4.4565,-4.4448,-4.424,-4.4048,-4.3942,-4.3929,-4.3961,-4.3961,-4.3974,-4.4017,-4.4079,-4.4091,-4.4151,-4.4308,-4.4448,-4.4511,-4.4538,-4.4538,-4.4667,-4.4796,-4.4895,-4.4986,-4.4991,-4.5033,-4.5148,-4.517,-4.5192,-4.5235,-4.5256,-4.5156,-4.4903,-4.4843,-4.4786,-4.4576,-4.3874,-4.3322,-4.3256,-4.2441,-4.1827,-4.167,-4.1564,-4.1371,-4.107,-4.1119,-4.0923,-4.0339,-4.062,-4.0873,-4.0991,-4.0991,-4.0848,-4.0643,-4.0577,-4.0419,-4.0117,-4.0084,-3.9706,-3.8989,-3.8726,-3.8241,-4.5586,-4.5586,-4.5586,-4.5586,-4.5603,0.0,-4.569,-4.5703,0.0,-4.58,0.0,0.0,0.0,0.0,0.0,0.0,0.0,0.0,0.0,0.0,0.0,0.0,0.0,0.0,0.0,0.0,0.0,0.0,0.0,0.0,-4.6308,-4.6307,-4.6262,-4.6202,-4.6131,-4.6024,-4.5894,-4.5833,-4.5754,-4.5693,-4.5622,-4.5586,-4.5586,-4.5513,-4.5495,-4.5476,-4.5419,-4.5378,-4.5338,-4.5213,-4.517,-4.5148,-4.5061,-4.4919,-4.4719,-4.4393,-4.4279,-4.425,-4.4121,-4.4121,-4.4162,-4.4162,-4.4279,-4.4374,-4.4374,-4.4584,-4.487,-4.4943,-4.5045,-4.5115,-4.5014,-4.508,-4.5192,-4.5254,-4.5275,-4.5297,-4.5359,-4.5378,-4.5379,-4.5381,-4.538,-4.513,-4.4306,-4.4132,-4.3805,-4.2983,-4.2766,-4.2642,-4.25,-4.2246,-4.2025,-4.189,-4.1773,-4.1372,-4.0626,-4.057,-4.0234,-3.9424,-4.068,-4.1415,-4.1391,-4.1433,-4.0996,-4.008,-4.0122,-3.9753,-3.8918,-3.8865,-3.8756,-3.864,-3.8307,-3.8002,-4.5586,-4.5586,-4.5586,-4.5586,-4.5586,0.0,0.0,-4.569,-4.5703,0.0,0.0,0.0,0.0,0.0,0.0,0.0,0.0,0.0,0.0,0.0,0.0,0.0,0.0,0.0,0.0,0.0,0.0,0.0,0.0,0.0,-4.6308,-4.6307,-4.6284,-4.6251,-4.6197,-4.6111,-4.5949,-4.5912,-4.581,-4.5703,-4.562,-4.5586,-4.5586,-4.5568,-4.5568,-4.5568,-4.5551,-4.5495,-4.5458,-4.54,-4.536,-4.5317,-4.517,-4.5033,-4.4895,-4.47,-4.4576,-4.4568,-4.4595,-4.4602,-4.4655,-4.4732,-4.4783,-4.4833,-4.4881,-4.5,-4.5113,-4.5213,-4.532,-4.5361,-4.5277,-4.5298,-4.5341,-4.54,-4.5419,-4.5438,-4.5549,-4.5163,-4.4776,-4.4839,-4.4437,-4.3978,-4.3651,-4.3577,-4.3461,-4.3134,-4.2552,-4.2138,-4.2045,-4.1418,-4.095,-4.0848,-4.0719,-4.0518,-4.0197,-4.0178,-4.0068,-3.9747,-3.997,-4.0151,-4.0232,-4.024,-4.0169,-3.994,-3.9964,-3.9814,-3.947,-3.9414,-3.9287,-3.9091,-3.8836,-3.8579,-4.5586,-4.5586,-4.5586,0.0,0.0,0.0,-4.5657,-4.5673,0.0,0.0,0.0,0.0,0.0,0.0,0.0,0.0,0.0,0.0,0.0,0.0,0.0,0.0,0.0,0.0,0.0,0.0,0.0,0.0,0.0,-4.6308,-4.6308,-4.6308,-4.6306,-4.6297,-4.6234,-4.6138,-4.6026,-4.5941,-4.5847,-4.5727,-4.5671,-4.5622,-4.5586,-4.5586,-4.5586,-4.5586,-4.5586,-4.5568,-4.5531,-4.5531,-4.5495,-4.5458,-4.5298,-4.5194,-4.5109,-4.4972,-4.49,-4.4895,-4.4967,-4.501,-4.5038,-4.5125,-4.517,-4.5192,-4.5254,-4.5279,-4.5302,-4.54,-4.5495,-4.555,-4.5496,-4.5495,-4.5513,-4.5549,-4.5372,-4.5211,-4.5326,-4.4679,-4.4076,-4.4111,-4.3666,-4.3221,-4.295,-4.2925,-4.2828,-4.2557,-4.1944,-4.1503,-4.1456,-4.08,-4.0321,-4.0233,-4.012,-4.0062,-4.0062,-4.0062,-4.0062,-4.0062,-3.9769,-3.9628,-3.9675,-3.9698,-3.9788,-3.9958,-3.9979,-3.9979,-3.9979,-3.9914,-3.9781,-3.9575,-3.935,-3.9091,-4.5586,-4.5586,0.0,0.0,0.0,0.0,0.0,0.0,0.0,0.0,0.0,0.0,0.0,0.0,0.0,0.0,0.0,0.0,0.0,0.0,0.0,0.0,0.0,0.0,0.0,0.0,0.0,0.0,0.0,-4.6308,-4.6308,-4.6308,-4.6308,-4.6301,-4.6241,-4.6162,-4.6088,-4.5966,-4.588,-4.58,-4.5719,-4.5676,-4.5586,-4.5586,-4.5586,-4.5586,-4.5586,-4.5586,-4.5586,-4.5586,-4.5586,-4.5586,-4.5532,-4.5457,-4.5381,-4.5243,-4.5239,-4.5297,-4.5233,-4.5254,-4.5297,-4.5297,-4.5338,-4.5398,-4.5418,-4.5438,-4.5495,-4.5495,-4.5586,-4.569,-4.569,-4.569,-4.5671,-4.57,-4.5066,-4.4504,-4.4583,-4.3911,-4.3284,-4.3284,-4.3284,-4.3024,-4.2241,-4.2086,-4.1795,-4.0923,-4.0746,-4.0692,-4.0706,-4.0582,-4.045,-4.0306,-4.0233,-4.0215,-4.0215,-4.0215,-4.0215,-4.0215,-4.0215,-4.0139,-4.0022,-4.0081,-4.0101,-4.0101,-4.0158,-4.0215,-4.0215,-4.0138,-4.0077,-3.9996,-3.967,-3.9433,-4.5586,0.0,0.0,0.0,0.0,0.0,0.0,0.0,0.0,0.0,0.0,0.0,0.0,0.0,0.0,0.0,0.0,0.0,0.0,0.0,0.0,0.0,0.0,0.0,0.0,0.0,0.0,0.0,-4.6308,-4.6308,-4.6308,-4.6308,-4.6308,-4.6306,-4.6276,-4.6234,-4.617,-4.6083,-4.5977,-4.5879,-4.586,-4.5765,-4.5676,-4.5622,-4.5586,-4.5586,-4.5586,-4.5586,-4.5586,-4.5586,-4.5586,-4.5586,-4.5532,-4.5495,-4.5457,-4.5362,-4.5361,-4.5361,-4.54,-4.5419,-4.5458,-4.5495,-4.5514,-4.5551,-4.5607,-4.5622,-4.5657,-4.5703,-4.5295,-4.4862,-4.4901,-4.4498,-4.4215,-4.4788,-4.4305,-4.3726,-4.3802,-4.3177,-4.2599,-4.2603,-4.2103,-4.1617,-4.137,-4.1331,-4.1234,-4.0981,-4.0914,-4.0885,-4.0779,-4.075,-4.0681,-4.0583,-4.0523,-4.0476,-4.0476,-4.0444,-4.0408,-4.0408,-4.046,-4.0411,-4.0214,-4.0233,-4.0288,-4.0372,-4.0408,-4.0425,-4.0476,-4.0408,-4.0323,-4.0215,-3.9962,-3.9791,-4.5586,0.0,0.0,0.0,0.0,0.0,0.0,0.0,0.0,0.0,0.0,0.0,0.0,0.0,0.0,0.0,0.0,0.0,0.0,0.0,0.0,0.0,0.0,0.0,0.0,0.0,0.0,0.0,-4.6308,-4.6308,-4.6308,-4.6308,-4.6308,-4.6307,-4.6301,-4.6267,-4.6201,-4.617,-4.6091,-4.5979,-4.5944,-4.5899,-4.5824,-4.5715,-4.5668,-4.5671,-4.5657,-4.564,-4.564,-4.5603,-4.5586,-4.5605,-4.5568,-4.555,-4.5531,-4.5495,-4.5495,-4.5513,-4.5568,-4.5603,-4.5637,-4.5671,-4.5687,-4.5684,-4.5735,-4.577,-4.5708,-4.5404,-4.4962,-4.4518,-4.4207,-4.3557,-4.317,-4.3962,-4.3558,-4.2963,-4.3006,-4.2395,-4.1813,-4.1827,-4.1402,-4.1031,-4.1031,-4.1031,-4.1031,-4.1031,-4.1047,-4.0987,-4.0882,-4.0859,-4.0807,-4.075,-4.0694,-4.0673,-4.064,-4.0607,-4.0593,-4.0593,-4.0626,-4.0598,-4.0504,-4.0473,-4.0508,-4.0583,-4.0612,-4.064,-4.0673,-4.0607,-4.053,-4.0454,-4.0283,-4.0157,-4.5586,0.0,0.0,0.0,0.0,0.0,0.0,0.0,0.0,0.0,0.0,0.0,0.0,0.0,0.0,0.0,0.0,0.0,0.0,0.0,0.0,0.0,0.0,0.0,0.0,0.0,0.0,-4.6308,-4.6308,-4.6308,-4.6308,-4.6308,-4.6308,-4.6307,-4.6305,-4.6278,-4.6206,-4.6216,-4.6183,-4.6112,-4.6054,-4.6027,-4.6017,-4.5861,-4.5819,-4.5815,-4.5738,-4.5706,-4.569,-4.5637,-4.562,-4.562,-4.562,-4.562,-4.562,-4.562,-4.5657,-4.5726,-4.5726,-4.5754,-4.5815,-4.5795,-4.5805,-4.5794,-4.5731,-4.5744,-4.5596,-4.4737,-4.4486,-4.4297,-4.3501,-4.2755,-4.237,-4.3108,-4.2727,-4.2192,-4.2188,-4.1624,-4.1091,-4.1114,-4.1114,-4.1114,-4.1114,-4.1114,-4.1114,-4.1094,-4.1097,-4.1081,-4.1013,-4.0954,-4.0894,-4.082,-4.0818,-4.0781,-4.0718,-4.0706,-4.0706,-4.0706,-4.0706,-4.075,-4.0812,-4.0752,-4.0713,-4.0726,-4.0776,-4.0812,-4.0823,-4.075,-4.0718,-4.0706,-4.0596,-4.0487,0.0,0.0,0.0,0.0,0.0,0.0,0.0,0.0,0.0,0.0,0.0,0.0,0.0,0.0,0.0,0.0,0.0,0.0,0.0,0.0,0.0,0.0,0.0,0.0,0.0,0.0,0.0,-4.6307,-4.6306,-4.6306,-4.6307,-4.6306,-4.6306,-4.6308,-4.6308,-4.6288,-4.6285,-4.6273,-4.6238,-4.6191,-4.6167,-4.615,-4.6151,-4.5947,-4.5887,-4.588,-4.5852,-4.5838,-4.5791,-4.5757,-4.5757,-4.5757,-4.5757,-4.5757,-4.5757,-4.5757,-4.5757,-4.5791,-4.5838,-4.5866,-4.588,-4.5887,-4.588,-4.5757,-4.5126,-4.4944,-4.4791,-4.3975,-4.3288,-4.2785,-4.2649,-4.1998,-4.141,-4.1581,-4.1488,-4.1358,-4.135,-4.1222,-4.1129,-4.117,-4.1171,-4.1171,-4.1171,-4.1171,-4.1151,-4.1112,-4.1093,-4.1092,-4.1086,-4.1013,-4.0968,-4.0953,-4.0906,-4.0867,-4.0859,-4.0818,-4.0784,-4.0784,-4.0828,-4.0869,-4.0878,-4.0815,-4.0792,-4.0868,-4.0878,-4.0878,-4.0876,-4.0857,-4.0858,-4.0859,-4.0779,-4.0703,0.0,0.0,0.0,0.0,0.0,0.0,0.0,0.0,0.0,0.0,0.0,0.0,0.0,0.0,0.0,0.0,0.0,0.0,0.0,0.0,0.0,0.0,0.0,0.0,0.0,0.0,-4.6257,-4.6254,-4.6254,-4.6256,-4.6258,-4.6256,-4.6278,-4.6301,-4.6306,-4.6307,-4.6308,-4.6306,-4.628,-4.6258,-4.6248,-4.6238,-4.6201,-4.606,-4.6008,-4.5988,-4.5953,-4.5917,-4.5886,-4.5848,-4.5854,-4.5854,-4.5854,-4.5854,-4.5854,-4.5854,-4.588,-4.5905,-4.5949,-4.5964,-4.5939,-4.5502,-4.5405,-4.5267,-4.4437,-4.4172,-4.4012,-4.3195,-4.2671,-4.2256,-4.1882,-4.1445,-4.1103,-4.1105,-4.1105,-4.1103,-4.1108,-4.1131,-4.1152,-4.1191,-4.1191,-4.1191,-4.1191,-4.1172,-4.1132,-4.1112,-4.111,-4.1108,-4.1091,-4.1035,-4.0995,-4.1008,-4.0968,-4.0944,-4.0959,-4.0922,-4.089,-4.089,-4.0928,-4.0939,-4.0955,-4.0914,-4.0909,-4.0954,-4.0941,-4.0944,-4.0944,-4.0944,-4.0955,-4.0944,-4.0908,-4.0877,0.0,0.0,0.0,0.0,0.0,0.0,0.0,0.0,0.0,0.0,0.0,0.0,0.0,0.0,0.0,0.0,0.0,0.0,0.0,0.0,0.0,0.0,0.0,0.0,0.0,0.0,-4.6177,-4.6177,-4.6182,-4.6186,-4.6171,-4.6171,-4.6214,-4.6284,-4.6273,-4.6282,-4.6306,-4.6308,-4.6307,-4.6307,-4.6301,-4.6276,-4.6212,-4.6153,-4.6125,-4.6112,-4.6063,-4.6027,-4.6037,-4.5977,-4.5956,-4.5956,-4.5956,-4.5956,-4.5956,-4.5956,-4.5988,-4.6027,-4.6027,-4.5963,-4.5781,-4.5059,-4.4766,-4.4534,-4.3656,-4.3387,-4.3224,-4.2409,-4.2184,-4.2019,-4.1299,-4.1128,-4.1112,-4.1093,-4.1093,-4.1093,-4.1112,-4.1152,-4.1191,-4.1172,-4.1172,-4.1171,-4.1171,-4.115,-4.1105,-4.1082,-4.1072,-4.1078,-4.107,-4.1016,-4.0991,-4.0984,-4.0991,-4.0996,-4.0995,-4.0994,-4.0994,-4.0994,-4.0994,-4.0995,-4.0996,-4.0994,-4.0976,-4.097,-4.0992,-4.0995,-4.0996,-4.0996,-4.0996,-4.0996,-4.0995,-4.0994,0.0,0.0,0.0,0.0,0.0,0.0,0.0,0.0,0.0,0.0,0.0,0.0,0.0,0.0,0.0,0.0,0.0,0.0,0.0,0.0,0.0,0.0,0.0,0.0,0.0,0.0,-4.6046,-4.6105,-4.6103,-4.6123,-4.6112,-4.6118,-4.6144,-4.6215,-4.6201,-4.6245,-4.6303,-4.6307,-4.6308,-4.6308,-4.6308,-4.6308,-4.6289,-4.6285,-4.6231,-4.6201,-4.6172,-4.6162,-4.617,-4.6164,-4.6164,-4.6164,-4.6164,-4.6164,-4.6164,-4.6164,-4.6164,-4.617,-4.6167,-4.5685,-4.5046,-4.5,-4.4477,-4.37,-4.2829,-4.2558,-4.2385,-4.1517,-4.1266,-4.1267,-4.1191,-4.1191,-4.1172,-4.1112,-4.1093,-4.1112,-4.1172,-4.1191,-4.1172,-4.1112,-4.1107,-4.1101,-4.1101,-4.1104,-4.1081,-4.1013,-4.0968,-4.0937,-4.0932,-4.0932,-4.091,-4.0909,-4.0969,-4.1003,-4.0999,-4.1009,-4.0992,-4.0992,-4.1009,-4.1001,-4.1007,-4.094,-4.0896,-4.0828,-4.0937,-4.1004,-4.0999,-4.0999,-4.1001,-4.1006,-4.1006,-4.1009,0.0,0.0,0.0,0.0,0.0,0.0,0.0,0.0,0.0,0.0,0.0,0.0,0.0,0.0,0.0,0.0,0.0,0.0,0.0,0.0,0.0,0.0,0.0,0.0,0.0,0.0,-4.5929,-4.5977,-4.5997,-4.5977,-4.5988,-4.6027,-4.6056,-4.608,-4.6112,-4.6172,-4.6238,-4.6231,-4.6239,-4.6241,-4.6241,-4.6241,-4.6241,-4.6243,-4.625,-4.6256,-4.6267,-4.6261,-4.6257,-4.621,-4.621,-4.621,-4.621,-4.621,-4.621,-4.621,-4.5917,-4.5535,-4.5539,-4.4959,-4.4147,-4.3681,-4.3273,-4.2827,-4.1988,-4.1697,-4.1581,-4.1211,-4.1093,-4.1111,-4.1147,-4.1146,-4.1144,-4.1103,-4.1099,-4.1116,-4.1138,-4.1144,-4.1146,-4.1119,-4.1091,-4.1085,-4.1058,-4.1033,-4.1025,-4.0994,-4.0902,-4.083,-4.0849,-4.0818,-4.0798,-4.0829,-4.0878,-4.0894,-4.0887,-4.0889,-4.0896,-4.0896,-4.0889,-4.0867,-4.0835,-4.0762,-4.071,-4.0636,-4.0752,-4.0813,-4.0779,-4.0751,-4.0731,-4.0768,-4.0768,-4.0805,0.0,0.0,0.0,0.0,0.0,0.0,0.0,0.0,0.0,0.0,0.0,0.0,0.0,0.0,0.0,0.0,0.0,0.0,0.0,0.0,0.0,0.0,0.0,0.0,0.0,0.0,-4.5805,-4.5866,-4.5874,-4.5867,-4.5867,-4.5912,-4.596,-4.5977,-4.6026,-4.6084,-4.617,-4.6182,-4.6195,-4.6195,-4.6195,-4.6195,-4.6195,-4.6195,-4.6234,-4.6268,-4.6268,-4.6267,-4.6267,-4.6225,-4.6204,-4.6184,-4.5969,-4.5891,-4.5872,-4.5657,-4.519,-4.4664,-4.4664,-4.4101,-4.3262,-4.2617,-4.2246,-4.1951,-4.1366,-4.1149,-4.1108,-4.1107,-4.1101,-4.1094,-4.1072,-4.1065,-4.1062,-4.1074,-4.1066,-4.1061,-4.107,-4.1078,-4.1078,-4.1066,-4.1052,-4.1037,-4.0961,-4.0948,-4.0902,-4.0876,-4.0789,-4.0711,-4.0694,-4.0668,-4.0675,-4.072,-4.0764,-4.0769,-4.0773,-4.0773,-4.0773,-4.0773,-4.0761,-4.0718,-4.0642,-4.0577,-4.0457,-4.0348,-4.0389,-4.0414,-4.0496,-4.0448,-4.0448,-4.0496,-4.0496,-4.053,0.0,0.0,0.0,0.0,0.0,0.0,0.0,0.0,0.0,0.0,0.0,0.0,0.0,0.0,0.0,0.0,0.0,0.0,0.0,0.0,0.0,0.0,0.0,0.0,0.0,0.0,0.0,-4.58,-4.5765,-4.5731,-4.5795,-4.5815,-4.5838,-4.5906,-4.5922,-4.5959,-4.6096,-4.617,-4.6211,-4.6211,-4.6211,-4.6211,-4.6211,-4.6211,-4.6192,-4.6216,-4.6218,-4.6209,-4.6209,-4.6209,-4.6209,-4.6111,-4.535,-4.5057,-4.4959,-4.4123,-4.3791,-4.3771,-4.3771,-4.3202,-4.2461,-4.2402,-4.1836,-4.115,-4.1111,-4.1091,-4.1108,-4.1101,-4.1097,-4.1094,-4.1022,-4.1018,-4.1013,-4.1006,-4.1013,-4.1006,-4.1013,-4.1017,-4.1019,-4.1013,-4.0957,-4.0897,-4.0811,-4.0757,-4.0662,-4.0554,-4.053,-4.0489,-4.0427,-4.0457,-4.0504,-4.0504,-4.0626,-4.07,-4.07,-4.07,-4.07,-4.07,-4.0654,-4.0574,-4.0519,-4.0367,-4.0193,-3.9943,-3.969,-3.9783,-4.0221,-4.0221,-4.0221,-4.0221,-4.0221,-4.0221,0.0,0.0,0.0,0.0,0.0,0.0,0.0,0.0,0.0,0.0,0.0,0.0,0.0,0.0,0.0,0.0,0.0,0.0,0.0,0.0,0.0,0.0,0.0,0.0,0.0,0.0,0.0,-4.5671,-4.5654,-4.5654,-4.5671,-4.5706,-4.5754,-4.5776,-4.5808,-4.5886,-4.5966,-4.5998,-4.6018,-4.6018,-4.6018,-4.5706,-4.5162,-4.5162,-4.489,-4.4394,-4.4392,-4.4766,-4.5362,-4.5362,-4.5031,-4.4508,-4.4216,-4.4099,-4.4059,-4.3747,-4.3279,-4.2811,-4.2811,-4.2221,-4.1499,-4.1499,-4.1285,-4.1051,-4.1051,-4.1037,-4.1042,-4.1037,-4.1007,-4.0972,-4.0945,-4.0902,-4.0867,-4.082,-4.08,-4.08,-4.0751,-4.0801,-4.0869,-4.081,-4.0787,-4.0742,-4.063,-4.0554,-4.0481,-4.0383,-4.0302,-4.0251,-4.027,-4.0251,-4.0269,-4.0286,-4.0358,-4.0392,-4.0392,-4.0392,-4.0392,-4.0392,-4.0321,-4.0269,-4.0252,-4.008,-3.9835,-3.9585,-3.9364,-3.9327,-3.95,-3.9406,-3.9382,-3.943,-3.943,-3.95,0.0,0.0,0.0,0.0,0.0,0.0,0.0,0.0,0.0,0.0,0.0,0.0,0.0,0.0,0.0,0.0,0.0,0.0,0.0,0.0,0.0,0.0,0.0,0.0,0.0,0.0,0.0,-4.5586,-4.5586,0.0,-4.5586,-4.564,-4.5673,-4.5703,-4.5761,-4.5678,-4.5428,-4.5441,-4.5318,-4.5028,-4.5028,-4.4718,-4.4156,-4.4156,-4.3865,-4.3373,-4.3373,-4.3763,-4.4389,-4.4389,-4.4058,-4.3493,-4.3201,-4.3104,-4.3065,-4.2773,-4.2286,-4.1799,-4.1799,-4.1422,-4.0935,-4.0935,-4.0935,-4.0935,-4.0935,-4.0914,-4.0902,-4.0894,-4.084,-4.0768,-4.0776,-4.073,-4.0649,-4.0615,-4.0588,-4.0559,-4.0485,-4.0582,-4.0694,-4.0642,-4.0602,-4.0511,-4.0367,-4.0285,-4.0195,-4.0062,-4.0002,-3.996,-3.9981,-4.0001,-4.006,-4.008,-4.012,-4.012,-4.012,-4.01,-4.0099,-4.008,-3.996,-3.9876,-3.9826,-3.9604,-3.9364,-3.9073,-3.8799,-3.8603,-3.842,-3.8626,-3.8733,-3.8781,-3.8781,-3.8802,0.0,0.0,0.0,0.0,0.0,0.0,0.0,0.0,0.0,0.0,0.0,0.0,0.0,0.0,0.0,0.0,0.0,0.0,0.0,0.0,0.0,0.0,0.0,0.0,0.0,0.0,0.0,-4.5586,-4.5586,-4.5586,-4.5586,-4.5566,-4.5601,-4.5654,-4.5696,-4.5317,-4.4467,-4.4529,-4.4117,-4.3285,-4.3285,-4.3285,-4.3247,-4.3247,-4.3227,-4.3208,-4.3208,-4.3247,-4.3307,-4.3338,-4.3338,-4.3241,-4.2388,-4.2047,-4.195,-4.1117,-4.0807,-4.0807,-4.0807,-4.0807,-4.0807,-4.0787,-4.0787,-4.0776,-4.0776,-4.0734,-4.068,-4.0694,-4.0604,-4.0496,-4.0492,-4.0434,-4.0389,-4.0389,-4.0341,-4.027,-4.0196,-4.0353,-4.0481,-4.0489,-4.0375,-4.0214,-4.0022,-3.9918,-3.9804,-3.9532,-3.9599,-3.9647,-3.9483,-3.9717,-3.9873,-3.9851,-3.992,-3.9963,-3.9963,-3.9897,-3.9829,-3.9762,-3.9599,-3.9408,-3.9298,-3.9027,-3.8722,-3.8387,-3.8062,-3.7578,-3.6981,-3.7891,-3.8305,-3.8227,-3.8227,-3.8158,-4.3532,0.0,0.0,0.0,0.0,0.0,0.0,0.0,0.0,0.0,0.0,0.0,0.0,0.0,0.0,0.0,0.0,0.0,0.0,0.0,0.0,0.0,0.0,0.0,0.0,0.0,-4.5586,0.0,-4.5586,-4.5586,-4.5586,-4.4989,-4.468,-4.468,-4.4135,-4.3728,-4.3497,-4.3497,-4.3381,-4.3079,-4.3079,-4.272,-4.2074,-4.2074,-4.1694,-4.1065,-4.1065,-4.1063,-4.1152,-4.2033,-4.2027,-4.1427,-4.1176,-4.1098,-4.1059,-4.0815,-4.0718,-4.0738,-4.0732,-4.072,-4.072,-4.061,-4.0582,-4.0563,-4.0516,-4.0506,-4.0462,-4.0431,-4.0351,-4.0266,-4.0157,-4.012,-4.0101,-4.0041,-4.002,-3.9979,-3.9854,-3.9878,-3.9941,-4.006,-4.0039,-3.9937,-3.9679,-3.958,-3.9477,-3.9317,-3.9272,-3.9245,-3.9219,-3.9272,-3.9279,-3.9171,-3.9178,-3.9186,-3.9133,-3.9125,-3.9044,-3.8943,-3.883,-3.8744,-3.8645,-3.848,-3.8259,-3.798,-3.7649,-3.7193,-3.6586,-3.6985,-3.7044,-3.6777,-3.6855,-3.6837,0.0,0.0,0.0,0.0,0.0,0.0,-4.3814,-4.3942,0.0,0.0,0.0,0.0,0.0,0.0,0.0,0.0,0.0,0.0,0.0,0.0,0.0,0.0,0.0,0.0,0.0,-4.5514,-4.5568,-4.5568,-4.5259,-4.4913,-4.4566,-4.4085,-4.3797,-4.3797,-4.3319,-4.2896,-4.2514,-4.248,-4.227,-4.1871,-4.1816,-4.1494,-4.096,-4.0941,-4.0616,-4.012,-4.012,-4.012,-4.0158,-4.0888,-4.0924,-4.0545,-4.0559,-4.0564,-4.053,-4.053,-4.053,-4.0481,-4.0504,-4.0473,-4.0438,-4.037,-4.0317,-4.0281,-4.0245,-4.0211,-4.0177,-4.0139,-4.0022,-3.9878,-3.9728,-3.9705,-3.9702,-3.9651,-3.9647,-3.9604,-3.9477,-3.9452,-3.9502,-3.967,-3.967,-3.9556,-3.9234,-3.9119,-3.9027,-3.8844,-3.8815,-3.8815,-3.8755,-3.8766,-3.873,-3.8633,-3.8566,-3.8536,-3.8376,-3.8314,-3.82,-3.802,-3.7835,-3.7664,-3.7612,-3.7417,-3.7177,-3.6967,-3.6676,-3.6187,-3.5453,-3.6071,-3.6096,-3.5674,-3.564,-3.5535,0.0,0.0,0.0,0.0,0.0,0.0,-4.3582,-4.3734,-4.3865,0.0,0.0,0.0,0.0,0.0,0.0,0.0,0.0,0.0,0.0,0.0,0.0,0.0,0.0,0.0,-4.5338,-4.5323,-4.5342,-4.5323,-4.4591,-4.3818,-4.3107,-4.2992,-4.2934,-4.2934,-4.2785,-4.2309,-4.1541,-4.1453,-4.1035,-4.0252,-4.0139,-4.0061,-4.0041,-3.9982,-3.9941,-3.9922,-3.9922,-3.9922,-3.9922,-3.9922,-4.0081,-4.027,-4.0325,-4.0325,-4.027,-4.027,-4.0233,-4.0196,-4.0177,-4.012,-4.0061,-4.0041,-3.9982,-3.9943,-3.9922,-3.9897,-3.9829,-3.9807,-3.9647,-3.9427,-3.9298,-3.9245,-3.9227,-3.92,-3.9219,-3.9192,-3.9045,-3.8998,-3.9055,-3.92,-3.92,-3.9091,-3.87,-3.8566,-3.846,-3.8289,-3.8303,-3.8285,-3.8223,-3.8216,-3.8162,-3.8047,-3.7941,-3.7785,-3.7594,-3.7363,-3.7198,-3.7011,-3.6663,-3.64,-3.637,-3.6061,-3.5805,-3.5691,-3.538,-3.4844,-3.4037,-3.5078,-3.5261,-3.4605,-3.4462,-3.4203,0.0,0.0,0.0,0.0,0.0,0.0,-4.3513,-4.3566,-4.36,0.0,0.0,0.0,0.0,0.0,0.0,0.0,0.0,0.0,0.0,0.0,0.0,0.0,0.0,0.0,-4.508,-4.4543,-4.4227,-4.4287,-4.3561,-4.3024,-4.287,-4.2312,-4.1948,-4.1893,-4.1204,-4.069,-4.0406,-4.0406,-4.0253,-3.9977,-3.9937,-3.9829,-3.9628,-3.9604,-3.9556,-3.9433,-3.9433,-3.9433,-3.9439,-3.9556,-3.9769,-4.0062,-4.0062,-4.0062,-4.0062,-4.0062,-4.0042,-4.0022,-3.9979,-3.9956,-3.9895,-3.9675,-3.9604,-3.958,-3.9483,-3.9433,-3.9401,-3.935,-3.9219,-3.9082,-3.9073,-3.8923,-3.8789,-3.8748,-3.8707,-3.8646,-3.8554,-3.846,-3.8328,-3.8147,-3.8423,-3.8566,-3.8249,-3.8132,-3.798,-3.7897,-3.7897,-3.7844,-3.7667,-3.7614,-3.7432,-3.6943,-3.6711,-3.6435,-3.6146,-3.5942,-3.5753,-3.5657,-3.5586,-3.5497,-3.5363,-3.5318,-3.5199,-3.5001,-3.4219,-3.3566,-3.2992,-3.3515,-3.3463,-3.2977,-3.2694,-3.2423,0.0,0.0,0.0,-4.3305,0.0,0.0,0.0,-4.3463,-4.3497,0.0,0.0,0.0,0.0,0.0,0.0,0.0,0.0,0.0,0.0,0.0,0.0,0.0,0.0,0.0,-4.3542,-4.3274,-4.3012,-4.2675,-4.2277,-4.1857,-4.1437,-4.1055,-4.0845,-4.0807,-4.0348,-4.008,-4.0,-3.9876,-3.9766,-3.9693,-3.9599,-3.9477,-3.935,-3.9324,-3.9245,-3.9137,-3.9137,-3.9091,-3.9008,-3.9073,-3.9171,-3.9339,-3.9705,-3.9813,-3.9747,-3.9747,-3.9724,-3.9656,-3.9604,-3.9575,-3.9526,-3.9401,-3.9324,-3.9298,-3.9219,-3.9137,-3.9073,-3.8855,-3.8737,-3.8676,-3.8554,-3.841,-3.8314,-3.8216,-3.8183,-3.8117,-3.7982,-3.7826,-3.7596,-3.7266,-3.7212,-3.7324,-3.7487,-3.7396,-3.7268,-3.7114,-3.6999,-3.6921,-3.6803,-3.6666,-3.6405,-3.5985,-3.5752,-3.5442,-3.4985,-3.4717,-3.4526,-3.4349,-3.4153,-3.4005,-3.3955,-3.3721,-3.3502,-3.3208,-3.2571,-3.1952,-3.1315,-3.1113,-3.1258,-3.1562,-3.0998,-3.0572,0.0,0.0,0.0,0.0,0.0,-4.3305,0.0,0.0,0.0,0.0,0.0,0.0,0.0,0.0,0.0,0.0,0.0,0.0,0.0,0.0,0.0,0.0,0.0,0.0,-4.1983,-4.1989,-4.1745,-4.0959,-4.0943,-4.0661,-3.9939,-3.9941,-3.9941,-3.9901,-3.9854,-3.9807,-3.9762,-3.9551,-3.9427,-3.9401,-3.9237,-3.9129,-3.9101,-3.9064,-3.896,-3.8873,-3.8826,-3.8718,-3.8548,-3.853,-3.8499,-3.853,-3.9216,-3.9414,-3.9331,-3.9331,-3.9253,-3.9173,-3.9146,-3.911,-3.9073,-3.9045,-3.897,-3.8913,-3.8913,-3.8815,-3.8664,-3.8415,-3.8285,-3.8168,-3.7966,-3.7827,-3.7756,-3.7667,-3.7596,-3.7523,-3.734,-3.7152,-3.6865,-3.6481,-3.6088,-3.6028,-3.6545,-3.6545,-3.6422,-3.6232,-3.6062,-3.595,-3.5907,-3.5654,-3.5369,-3.5078,-3.4814,-3.4431,-3.3937,-3.3633,-3.3375,-3.3077,-3.2772,-3.2571,-3.2501,-3.2028,-3.1618,-3.126,-3.0822,-3.0199,-2.9468,-2.8688,-2.8892,-3.0076,-2.9282,-2.873,0.0,0.0,0.0,0.0,-4.2844,0.0,0.0,0.0,0.0,-4.3232,0.0,0.0,0.0,0.0,0.0,0.0,0.0,0.0,0.0,0.0,0.0,0.0,0.0,-4.1683,-4.1659,-4.1128,-4.045,-3.9589,-3.9633,-3.965,-3.9556,-3.9675,-3.9675,-3.9556,-3.9532,-3.9477,-3.929,-3.9264,-3.9183,-3.9064,-3.9036,-3.8939,-3.875,-3.875,-3.8627,-3.8387,-3.8252,-3.8168,-3.8068,-3.8032,-3.8013,-3.8029,-3.853,-3.873,-3.87,-3.87,-3.87,-3.867,-3.8597,-3.8585,-3.8572,-3.8433,-3.8336,-3.8216,-3.8216,-3.8168,-3.8086,-3.8052,-3.7809,-3.7614,-3.7578,-3.7283,-3.7017,-3.7017,-3.6878,-3.6696,-3.6539,-3.6374,-3.6122,-3.5681,-3.5431,-3.5402,-3.5786,-3.5759,-3.5644,-3.5459,-3.5397,-3.5323,-3.5157,-3.4878,-3.4592,-3.4219,-3.37,-3.3251,-3.2841,-3.2547,-3.2272,-3.1905,-3.1849,-3.1664,-3.1405,-3.094,-3.0497,-3.0093,-2.9205,-2.8447,-2.7853,-2.6659,-2.6671,-2.7775,-2.73,-2.6764,0.0,0.0,0.0,0.0,0.0,0.0,-4.2652,0.0,-4.2793,0.0,0.0,0.0,0.0,0.0,0.0,0.0,-3.9714,0.0,0.0,0.0,0.0,0.0,0.0,0.0,-4.014,-3.9844,-3.9547,-3.9202,-3.9245,-3.9272,-3.9272,-3.9324,-3.9324,-3.9272,-3.9219,-3.9156,-3.9036,-3.895,-3.8833,-3.8634,-3.8621,-3.8496,-3.8368,-3.8303,-3.8171,-3.7933,-3.7809,-3.7614,-3.7358,-3.734,-3.7266,-3.7152,-3.736,-3.7737,-3.8212,-3.8212,-3.818,-3.8132,-3.8083,-3.8083,-3.8083,-3.8018,-3.7966,-3.7879,-3.7809,-3.7739,-3.7667,-3.7432,-3.7246,-3.7094,-3.686,-3.6678,-3.6516,-3.6374,-3.6249,-3.6139,-3.5847,-3.5582,-3.5203,-3.4591,-3.4235,-3.4003,-3.3921,-3.4382,-3.4752,-3.4625,-3.4301,-3.4037,-3.3836,-3.3582,-3.3271,-3.2848,-3.2485,-3.217,-3.1694,-3.1407,-3.1116,-3.0881,-3.051,-3.0058,-2.9552,-2.9087,-2.8616,-2.8023,-2.7141,-2.6319,-2.5563,-2.4435,-2.3933,-2.3921,-2.4673,-2.485,-4.0836,0.0,0.0,0.0,0.0,0.0,0.0,0.0,0.0,0.0,0.0,0.0,0.0,0.0,0.0,0.0,0.0,-3.8271,0.0,0.0,0.0,0.0,0.0,0.0,0.0,-3.8803,-3.8833,-3.8873,-3.8873,-3.8873,-3.8873,-3.8902,-3.8902,-3.8873,-3.8833,-3.8773,-3.8664,-3.8578,-3.8433,-3.8285,-3.8204,-3.8086,-3.7913,-3.7897,-3.7721,-3.7468,-3.7376,-3.7094,-3.6799,-3.6759,-3.6638,-3.6492,-3.6492,-3.6882,-3.747,-3.7506,-3.7524,-3.7487,-3.7487,-3.7487,-3.7487,-3.7487,-3.7487,-3.745,-3.7228,-3.7208,-3.7076,-3.6724,-3.658,-3.6457,-3.6139,-3.5985,-3.5898,-3.5644,-3.5582,-3.5464,-3.5098,-3.4752,-3.4284,-3.3633,-3.3198,-3.2857,-3.2422,-3.3145,-3.3732,-3.3594,-3.3177,-3.2841,-3.2664,-3.2407,-3.2074,-3.1721,-3.1377,-3.1043,-3.0644,-3.0208,-2.9889,-2.9532,-2.8889,-2.8312,-2.7789,-2.7365,-2.6735,-2.5983,-2.518,-2.4244,-2.3396,-2.236,-2.1466,-2.0807,-2.2307,-2.284,0.0,0.0,0.0,-4.0594,0.0,0.0,0.0,0.0,-4.1711,0.0,0.0,0.0,0.0,0.0,0.0,0.0,0.0,0.0,0.0,0.0,0.0,0.0,0.0,0.0,0.0,-3.8354,-3.834,-3.834,-3.834,-3.834,-3.834,-3.8401,-3.8401,-3.834,-3.834,-3.8256,-3.8135,-3.8052,-3.8018,-3.8018,-3.7862,-3.7703,-3.7505,-3.7505,-3.7321,-3.69,-3.6838,-3.6713,-3.6485,-3.6385,-3.6301,-3.6301,-3.6301,-3.6343,-3.6367,-3.6574,-3.6655,-3.6615,-3.6615,-3.6615,-3.6615,-3.6615,-3.6615,-3.6615,-3.6474,-3.6392,-3.6284,-3.5994,-3.5776,-3.5616,-3.5464,-3.527,-3.5071,-3.488,-3.4818,-3.4643,-3.425,-3.3866,-3.3475,-3.2949,-3.2586,-3.2272,-3.1807,-3.2241,-3.2532,-3.2185,-3.213,-3.2018,-3.1792,-3.145,-3.116,-3.1028,-3.0435,-2.995,-2.9566,-2.9066,-2.8427,-2.7564,-2.6963,-2.6612,-2.6395,-2.5857,-2.5228,-2.4506,-2.3323,-2.2275,-2.1466,-2.0498,-1.9728,-1.9316,-2.0401,-2.0575,0.0,0.0,-3.9969,-3.9817,0.0,0.0,0.0,0.0,0.0,0.0,0.0,0.0,0.0,0.0,0.0,0.0,0.0,0.0,0.0,0.0,0.0,0.0,0.0,0.0,0.0,0.0,0.0,-3.7984,-3.7984,-3.7984,-3.7984,-3.8,-3.8,-3.7984,-3.7984,-3.7897,-3.7685,-3.7703,-3.7559,-3.7283,-3.7246,-3.7038,-3.6764,-3.6741,-3.6498,-3.6088,-3.6037,-3.5854,-3.5577,-3.5532,-3.5424,-3.5379,-3.5379,-3.5379,-3.547,-3.6156,-3.6326,-3.6224,-3.6114,-3.6071,-3.6071,-3.5968,-3.5924,-3.5924,-3.5776,-3.5644,-3.5509,-3.5237,-3.5052,-3.4864,-3.4593,-3.448,-3.4333,-3.3935,-3.3783,-3.3563,-3.3039,-3.2648,-3.2321,-3.1736,-3.1465,-3.1175,-3.0703,-3.0689,-3.0911,-3.145,-3.1334,-3.1116,-3.0837,-3.0464,-3.0025,-2.9428,-2.8925,-2.8414,-2.7867,-2.7272,-2.6667,-2.5983,-2.5578,-2.5075,-2.4506,-2.3784,-2.3051,-2.2456,-2.1324,-2.0478,-1.97,-1.8594,-1.7641,-1.7082,-1.6968,-1.7543,-3.9451,-3.9345,0.0,-3.899,-3.9226,0.0,-3.968,0.0,0.0,0.0,0.0,0.0,0.0,0.0,0.0,0.0,0.0,0.0,0.0,-3.6974,0.0,0.0,0.0,0.0,0.0,0.0,-3.7559,-3.7487,-3.7395,-3.7358,-3.7358,-3.7358,-3.7358,-3.7358,-3.7358,-3.7283,-3.7114,-3.7094,-3.69,-3.6522,-3.6539,-3.6333,-3.6037,-3.5968,-3.5732,-3.5386,-3.5283,-3.5131,-3.4899,-3.4899,-3.4851,-3.4739,-3.4739,-3.4739,-3.4835,-3.5543,-3.5722,-3.5571,-3.5453,-3.5362,-3.5316,-3.5224,-3.5224,-3.5161,-3.4975,-3.4864,-3.4721,-3.4333,-3.4185,-3.4036,-3.3697,-3.361,-3.3455,-3.3055,-3.2756,-3.247,-3.186,-3.1519,-3.1115,-3.0569,-3.0343,-3.0101,-2.9623,-2.9296,-2.947,-3.0329,-3.0208,-2.9889,-2.9532,-2.9156,-2.862,-2.7973,-2.7511,-2.6815,-2.5901,-2.5274,-2.4708,-2.399,-2.3616,-2.3103,-2.2456,-2.178,-2.1181,-2.0498,-1.965,-1.8859,-1.7971,-1.6927,-1.6026,-1.5206,-1.4531,-1.4851]},{"header":{"parameterUnit":"m.s-1","parameterCategory":1,"la1":30.6,"la2":29.2853,"lo1":-89.7004,"lo2":-87.6739,"dy":0.0162,"dx":0.0183,"nx":112,"ny":82,"refTime":"2023-09-19T18:00:00:Z","depth":0,"parameterNumber":3,"parameterNumberName":"V-component_of_WINDS"},"data":[0.0,0.0,0.0,0.0,0.0,0.0,0.0,0.0,0.0,0.0,0.0,0.0,0.0,0.0,0.0,0.0,0.0,0.0,0.0,0.0,0.0,0.0,0.0,0.0,0.0,0.0,0.0,0.0,0.0,0.0,0.0,0.0,0.0,0.0,0.0,0.0,0.0,0.0,0.0,0.0,0.0,0.0,0.0,0.0,0.0,0.0,0.0,0.0,0.0,0.0,0.0,0.0,0.0,0.0,0.0,0.0,0.0,0.0,0.0,0.0,0.0,0.0,0.0,0.0,0.0,0.0,0.0,0.0,0.0,0.0,0.0,0.0,0.0,0.0,0.0,0.0,0.0,0.0,0.0,0.0,0.0,0.0,0.0,0.0,0.0,0.0,0.0,0.0,0.0,0.0,-2.9064,-2.8492,-2.7776,-2.7603,-2.7947,-2.8118,-2.8365,-2.8716,0.0,0.0,0.0,0.0,0.0,0.0,0.0,0.0,0.0,0.0,0.0,0.0,0.0,0.0,0.0,0.0,0.0,0.0,0.0,0.0,0.0,0.0,0.0,0.0,0.0,0.0,0.0,0.0,0.0,0.0,0.0,0.0,0.0,0.0,0.0,0.0,0.0,0.0,0.0,0.0,0.0,0.0,0.0,0.0,0.0,0.0,0.0,0.0,0.0,0.0,0.0,0.0,0.0,0.0,0.0,0.0,0.0,0.0,0.0,0.0,0.0,0.0,0.0,0.0,0.0,0.0,0.0,0.0,0.0,0.0,0.0,0.0,0.0,0.0,0.0,0.0,0.0,0.0,0.0,0.0,0.0,0.0,0.0,0.0,0.0,0.0,0.0,0.0,0.0,0.0,0.0,0.0,0.0,0.0,0.0,0.0,0.0,0.0,0.0,0.0,0.0,0.0,0.0,0.0,-2.9261,-2.8026,-2.7403,-2.7214,-2.7536,-2.7789,-2.8039,-2.8352,0.0,0.0,0.0,0.0,0.0,0.0,0.0,0.0,0.0,0.0,0.0,0.0,0.0,0.0,0.0,0.0,0.0,0.0,0.0,0.0,0.0,0.0,0.0,0.0,0.0,0.0,0.0,0.0,0.0,0.0,0.0,0.0,0.0,0.0,0.0,0.0,0.0,0.0,0.0,0.0,0.0,0.0,0.0,0.0,0.0,0.0,0.0,0.0,0.0,0.0,0.0,0.0,0.0,0.0,0.0,0.0,0.0,0.0,0.0,0.0,0.0,0.0,0.0,0.0,0.0,0.0,0.0,0.0,0.0,0.0,0.0,0.0,0.0,0.0,0.0,0.0,0.0,0.0,0.0,0.0,0.0,0.0,0.0,0.0,0.0,0.0,0.0,0.0,0.0,0.0,0.0,0.0,0.0,0.0,0.0,0.0,0.0,0.0,0.0,0.0,0.0,0.0,0.0,-2.924,-2.8546,-2.7723,-2.7335,-2.7268,-2.7656,-2.7868,-2.8131,-2.8444,-2.8584,0.0,0.0,0.0,0.0,0.0,0.0,0.0,0.0,0.0,0.0,0.0,0.0,0.0,0.0,0.0,0.0,0.0,0.0,0.0,0.0,0.0,0.0,0.0,0.0,0.0,0.0,0.0,0.0,0.0,0.0,0.0,0.0,0.0,0.0,0.0,0.0,0.0,0.0,0.0,0.0,0.0,0.0,0.0,0.0,0.0,0.0,0.0,0.0,0.0,0.0,0.0,0.0,0.0,0.0,0.0,0.0,0.0,0.0,0.0,0.0,0.0,0.0,0.0,0.0,0.0,0.0,0.0,0.0,0.0,0.0,0.0,0.0,0.0,0.0,0.0,0.0,0.0,0.0,0.0,0.0,0.0,0.0,0.0,0.0,0.0,0.0,0.0,0.0,0.0,0.0,0.0,0.0,0.0,0.0,0.0,0.0,0.0,0.0,0.0,0.0,0.0,0.0,-2.8546,-2.7908,-2.7523,-2.7403,-2.7403,-2.7656,-2.7868,-2.8131,-2.8457,-2.8894,0.0,0.0,0.0,0.0,0.0,0.0,0.0,0.0,0.0,0.0,0.0,0.0,0.0,0.0,0.0,0.0,0.0,0.0,0.0,0.0,0.0,0.0,0.0,0.0,0.0,0.0,0.0,0.0,0.0,0.0,0.0,0.0,0.0,0.0,0.0,0.0,0.0,0.0,0.0,0.0,0.0,0.0,0.0,0.0,0.0,0.0,0.0,0.0,0.0,0.0,0.0,0.0,0.0,0.0,0.0,0.0,0.0,0.0,0.0,0.0,0.0,0.0,0.0,0.0,0.0,0.0,0.0,0.0,0.0,0.0,0.0,0.0,0.0,0.0,0.0,0.0,0.0,0.0,0.0,0.0,0.0,0.0,0.0,0.0,0.0,0.0,0.0,0.0,0.0,0.0,0.0,0.0,0.0,0.0,0.0,0.0,0.0,0.0,0.0,0.0,0.0,0.0,-2.8624,-2.8105,-2.759,-2.7403,-2.7335,-2.7335,-2.7656,-2.7908,-2.8039,-2.8803,0.0,0.0,0.0,0.0,0.0,0.0,0.0,0.0,0.0,0.0,0.0,0.0,0.0,0.0,0.0,0.0,0.0,0.0,0.0,0.0,0.0,0.0,0.0,0.0,0.0,0.0,0.0,0.0,0.0,0.0,0.0,0.0,0.0,0.0,0.0,0.0,0.0,0.0,0.0,0.0,0.0,0.0,0.0,0.0,0.0,0.0,0.0,0.0,0.0,0.0,0.0,0.0,0.0,0.0,0.0,0.0,0.0,0.0,0.0,0.0,0.0,0.0,0.0,0.0,0.0,0.0,0.0,0.0,0.0,0.0,0.0,0.0,0.0,0.0,0.0,0.0,0.0,0.0,0.0,0.0,0.0,0.0,0.0,0.0,0.0,0.0,0.0,0.0,0.0,0.0,0.0,0.0,0.0,0.0,0.0,0.0,0.0,0.0,0.0,0.0,0.0,0.0,-2.8495,-2.7973,0.0,-2.7523,-2.7469,-2.759,-2.7868,-2.8052,-2.8157,0.0,0.0,0.0,0.0,0.0,0.0,0.0,0.0,0.0,0.0,0.0,0.0,0.0,0.0,0.0,0.0,0.0,0.0,0.0,0.0,0.0,0.0,0.0,0.0,0.0,0.0,0.0,0.0,0.0,0.0,0.0,0.0,0.0,0.0,0.0,0.0,0.0,0.0,0.0,0.0,0.0,0.0,0.0,0.0,0.0,0.0,0.0,0.0,0.0,0.0,0.0,0.0,0.0,0.0,0.0,0.0,0.0,0.0,0.0,0.0,0.0,0.0,0.0,0.0,0.0,0.0,0.0,0.0,0.0,0.0,0.0,0.0,0.0,0.0,0.0,0.0,0.0,0.0,0.0,0.0,0.0,0.0,0.0,0.0,0.0,0.0,0.0,0.0,0.0,0.0,0.0,0.0,0.0,0.0,0.0,0.0,0.0,0.0,0.0,0.0,0.0,0.0,-2.9489,-2.9086,-2.8746,0.0,-2.8343,-2.8343,-2.8343,-2.8679,-2.8958,-2.8984,0.0,0.0,0.0,0.0,0.0,0.0,0.0,0.0,0.0,0.0,0.0,0.0,0.0,0.0,0.0,0.0,0.0,0.0,0.0,0.0,0.0,0.0,0.0,0.0,0.0,0.0,0.0,0.0,0.0,0.0,0.0,0.0,0.0,0.0,0.0,0.0,0.0,0.0,0.0,0.0,0.0,0.0,0.0,0.0,0.0,0.0,0.0,0.0,0.0,0.0,0.0,0.0,0.0,0.0,0.0,0.0,0.0,0.0,0.0,0.0,0.0,0.0,0.0,0.0,0.0,0.0,0.0,0.0,0.0,0.0,0.0,0.0,0.0,0.0,0.0,0.0,0.0,0.0,0.0,0.0,0.0,0.0,0.0,0.0,0.0,0.0,0.0,0.0,0.0,0.0,0.0,0.0,0.0,0.0,0.0,0.0,0.0,0.0,0.0,0.0,0.0,0.0,-3.0086,-3.0335,-3.0391,-2.9697,-2.9894,-2.995,-2.9614,-3.0295,-3.0637,0.0,0.0,0.0,0.0,0.0,0.0,0.0,0.0,0.0,0.0,0.0,0.0,0.0,0.0,0.0,0.0,0.0,0.0,0.0,0.0,0.0,0.0,0.0,0.0,0.0,0.0,0.0,0.0,0.0,0.0,0.0,0.0,0.0,0.0,0.0,0.0,0.0,0.0,0.0,0.0,0.0,0.0,0.0,0.0,0.0,0.0,0.0,0.0,0.0,0.0,0.0,0.0,0.0,0.0,0.0,0.0,0.0,0.0,0.0,0.0,0.0,0.0,0.0,0.0,0.0,0.0,0.0,0.0,0.0,0.0,0.0,0.0,0.0,0.0,0.0,0.0,0.0,0.0,0.0,0.0,0.0,0.0,0.0,0.0,0.0,0.0,0.0,0.0,0.0,0.0,0.0,0.0,0.0,0.0,0.0,0.0,0.0,0.0,0.0,0.0,0.0,0.0,0.0,-3.0682,-3.0392,-3.0171,-2.9754,-2.995,-3.0089,-2.995,-3.0378,-3.0665,-3.0597,0.0,0.0,0.0,0.0,0.0,0.0,0.0,0.0,0.0,0.0,0.0,0.0,0.0,0.0,0.0,0.0,0.0,0.0,0.0,0.0,0.0,0.0,0.0,0.0,0.0,0.0,0.0,0.0,0.0,0.0,0.0,0.0,0.0,0.0,0.0,0.0,0.0,0.0,0.0,0.0,0.0,0.0,0.0,0.0,0.0,0.0,0.0,0.0,0.0,0.0,0.0,0.0,0.0,0.0,0.0,0.0,0.0,0.0,0.0,0.0,0.0,0.0,0.0,0.0,0.0,0.0,0.0,0.0,0.0,0.0,0.0,0.0,0.0,0.0,0.0,0.0,0.0,0.0,0.0,0.0,0.0,0.0,0.0,0.0,0.0,0.0,0.0,0.0,0.0,0.0,0.0,0.0,0.0,0.0,0.0,0.0,0.0,0.0,0.0,0.0,0.0,0.0,-3.1469,-3.1199,-3.0999,-3.0673,-3.0929,-3.1126,-3.0999,-3.1363,-3.1654,-3.1654,0.0,0.0,0.0,0.0,0.0,0.0,0.0,0.0,0.0,0.0,0.0,0.0,0.0,0.0,0.0,0.0,0.0,0.0,0.0,0.0,0.0,0.0,0.0,0.0,0.0,0.0,0.0,0.0,0.0,0.0,0.0,0.0,0.0,0.0,0.0,0.0,0.0,0.0,0.0,0.0,0.0,0.0,0.0,0.0,0.0,0.0,0.0,0.0,0.0,0.0,0.0,0.0,0.0,0.0,0.0,0.0,0.0,0.0,0.0,0.0,0.0,0.0,0.0,0.0,0.0,0.0,0.0,0.0,0.0,0.0,0.0,0.0,0.0,0.0,0.0,0.0,0.0,0.0,0.0,0.0,0.0,0.0,0.0,0.0,0.0,0.0,0.0,0.0,0.0,0.0,0.0,0.0,0.0,0.0,0.0,0.0,0.0,0.0,0.0,0.0,0.0,0.0,-3.2275,-3.2499,-3.2503,-3.2023,-3.2431,-3.2632,-3.2417,-3.2775,-3.2988,-3.2988,0.0,0.0,0.0,0.0,0.0,0.0,0.0,0.0,0.0,0.0,0.0,0.0,0.0,0.0,0.0,0.0,0.0,0.0,0.0,0.0,0.0,0.0,0.0,0.0,0.0,0.0,0.0,0.0,0.0,0.0,0.0,0.0,0.0,0.0,0.0,0.0,0.0,0.0,0.0,0.0,0.0,0.0,0.0,0.0,0.0,0.0,0.0,0.0,0.0,0.0,0.0,0.0,0.0,0.0,0.0,0.0,0.0,0.0,0.0,0.0,-1.7881,0.0,0.0,0.0,0.0,0.0,0.0,0.0,0.0,0.0,0.0,0.0,0.0,0.0,0.0,0.0,0.0,0.0,0.0,0.0,0.0,0.0,0.0,0.0,0.0,0.0,0.0,0.0,0.0,0.0,0.0,0.0,0.0,0.0,0.0,0.0,0.0,0.0,0.0,0.0,0.0,0.0,-3.332,-3.289,-3.2632,-3.2359,-3.2561,-3.2704,-3.2632,-3.2846,-3.2988,-3.2988,-3.3368,0.0,0.0,0.0,0.0,0.0,0.0,0.0,0.0,0.0,0.0,0.0,0.0,0.0,0.0,0.0,0.0,0.0,0.0,0.0,0.0,0.0,0.0,0.0,0.0,0.0,0.0,0.0,0.0,0.0,0.0,0.0,0.0,0.0,0.0,0.0,0.0,0.0,0.0,0.0,0.0,0.0,0.0,0.0,0.0,0.0,0.0,0.0,0.0,0.0,0.0,0.0,0.0,0.0,0.0,0.0,0.0,0.0,0.0,0.0,0.0,-1.8774,0.0,0.0,0.0,0.0,0.0,0.0,0.0,0.0,0.0,0.0,0.0,0.0,0.0,0.0,0.0,0.0,0.0,0.0,0.0,0.0,0.0,0.0,0.0,0.0,0.0,0.0,0.0,0.0,0.0,0.0,0.0,0.0,0.0,0.0,0.0,0.0,0.0,0.0,0.0,0.0,-3.3754,-3.3269,-3.3002,-3.2988,-3.3129,-3.3269,-3.3381,-3.3409,-3.3409,-3.3479,-3.3646,0.0,0.0,0.0,0.0,0.0,0.0,0.0,0.0,0.0,0.0,0.0,0.0,0.0,0.0,0.0,0.0,0.0,0.0,0.0,0.0,0.0,0.0,0.0,0.0,0.0,0.0,0.0,0.0,0.0,0.0,0.0,0.0,0.0,0.0,0.0,0.0,0.0,0.0,0.0,0.0,0.0,0.0,0.0,0.0,0.0,0.0,0.0,0.0,0.0,0.0,0.0,0.0,0.0,-1.4525,-1.4997,-1.5397,-1.6167,-1.6951,-1.7796,-1.8458,-1.9123,-1.9839,-2.0843,0.0,0.0,0.0,0.0,0.0,0.0,0.0,0.0,0.0,0.0,0.0,0.0,0.0,0.0,0.0,0.0,0.0,0.0,0.0,0.0,0.0,0.0,0.0,0.0,-3.2567,-3.2757,-3.3109,0.0,0.0,0.0,0.0,0.0,0.0,0.0,0.0,0.0,0.0,0.0,-3.3894,-3.3507,-3.3312,-3.3563,-3.3701,-3.3908,-3.4085,-3.3977,-3.3991,-3.4128,-3.4059,-3.4196,0.0,0.0,0.0,0.0,0.0,0.0,0.0,0.0,0.0,0.0,0.0,0.0,0.0,0.0,0.0,0.0,0.0,0.0,0.0,0.0,0.0,0.0,0.0,0.0,0.0,0.0,0.0,0.0,0.0,0.0,0.0,0.0,-1.022,-1.0461,0.0,0.0,0.0,0.0,0.0,0.0,0.0,0.0,0.0,0.0,0.0,0.0,0.0,-1.3626,-1.3626,-1.4032,-1.4275,-1.4358,-1.4788,-1.5284,-1.5688,-1.6343,-1.7017,-1.7785,-1.862,0.0,-2.0765,-2.1429,0.0,0.0,0.0,0.0,0.0,0.0,0.0,0.0,0.0,0.0,0.0,0.0,0.0,0.0,0.0,0.0,0.0,0.0,0.0,0.0,0.0,0.0,-3.1394,-3.2272,-3.27,-3.3054,0.0,-3.4026,-3.4092,-3.4092,-3.4902,0.0,0.0,0.0,0.0,0.0,0.0,0.0,-3.3908,-3.3339,-3.3213,-3.3521,-3.3716,-3.3908,-3.4045,-3.4264,-3.4346,-3.4346,-3.4481,-3.475,-3.5118,-3.5638,0.0,0.0,0.0,0.0,0.0,0.0,0.0,0.0,0.0,0.0,0.0,0.0,0.0,0.0,0.0,0.0,0.0,0.0,0.0,0.0,0.0,0.0,0.0,0.0,0.0,0.0,0.0,0.0,0.0,-0.959,-0.9735,-0.9816,-1.05,-1.0832,0.0,0.0,0.0,0.0,0.0,0.0,0.0,0.0,0.0,-1.2748,-1.3454,-1.3877,-1.4213,-1.4563,-1.4744,-1.4744,-1.5099,-1.5439,-1.5864,-1.6543,-1.7302,-1.8146,-1.9081,-2.0062,-2.106,-2.1433,-2.2231,-2.315,0.0,0.0,0.0,0.0,-2.5417,-2.5709,-2.6377,-2.6867,-2.7242,-2.7749,0.0,0.0,0.0,0.0,0.0,0.0,0.0,0.0,0.0,0.0,-3.1013,-3.1821,-3.2159,-3.2482,-3.3102,-3.3453,-3.3729,0.0,-3.462,-3.5236,-3.5336,0.0,0.0,0.0,0.0,-3.3644,-3.3269,-3.2988,-3.2974,-3.3479,-3.377,-3.4128,-3.4534,-3.4601,-3.4735,-3.4817,-3.4817,-3.5016,-3.5344,-3.5782,-3.6258,0.0,0.0,0.0,0.0,0.0,0.0,0.0,0.0,0.0,0.0,0.0,0.0,0.0,0.0,0.0,0.0,0.0,0.0,0.0,0.0,0.0,0.0,0.0,0.0,0.0,0.0,0.0,0.0,-0.945,-0.94,-0.9483,-1.0213,-1.0567,0.0,0.0,0.0,0.0,0.0,0.0,-0.993,-1.0632,-1.1409,-1.2388,-1.3111,-1.3837,-1.4411,-1.4687,-1.4963,-1.4963,-1.5143,-1.5411,-1.585,-1.6455,-1.7239,-1.8197,-1.9153,-2.009,-2.0949,-2.1451,-2.2051,-2.2688,-2.3437,-2.3824,-2.3962,-2.4607,-2.4973,-2.5264,-2.5899,-2.6491,-2.6936,-2.7408,-2.7887,-2.8345,-2.8545,0.0,0.0,0.0,0.0,-2.9565,-3.0283,-3.0474,-3.0637,-3.1531,-3.1867,-3.2122,-3.2645,-3.3128,-3.3522,0.0,-3.4235,-3.4558,-3.4337,0.0,0.0,0.0,0.0,-3.272,-3.2403,-3.2403,-3.2618,-3.3157,-3.3673,-3.4182,-3.4735,-3.4868,-3.5082,-3.5294,-3.5148,-3.5213,-3.5554,-3.5861,-3.6274,-3.686,0.0,0.0,0.0,0.0,0.0,0.0,0.0,0.0,0.0,0.0,0.0,0.0,0.0,0.0,0.0,0.0,0.0,0.0,0.0,0.0,0.0,0.0,0.0,0.0,0.0,0.0,0.0,0.0,0.0,-0.9918,-1.0356,0.0,0.0,0.0,0.0,-0.9251,-0.933,-0.9343,-0.9068,-0.9802,-1.0537,-1.1283,-1.2199,-1.3126,-1.3785,-1.4321,-1.4777,-1.4963,-1.5053,-1.5143,-1.5328,-1.585,-1.6551,-1.7517,-1.8456,-1.9486,-2.0596,-2.1632,-2.2442,-2.3091,-2.3322,-2.3642,-2.4119,-2.4737,-2.5204,-2.5754,-2.674,-2.7274,-2.7594,-2.818,-2.8672,-2.9144,-2.9285,-2.9482,0.0,0.0,-2.9465,-2.9465,-2.9701,-2.9867,-3.0362,-3.175,-3.2178,-3.2537,-3.3514,-3.3671,-3.3528,0.0,-3.3662,-3.4095,-3.3876,0.0,-3.3129,-3.2749,-3.2191,-3.1796,-3.1589,-3.1616,-3.185,-3.2417,-3.3101,-3.3742,-3.4332,-3.4883,-3.5294,-3.5439,-3.5504,-3.5554,-3.5688,-3.5894,-3.6226,-3.6708,-3.7298,0.0,0.0,0.0,0.0,0.0,0.0,0.0,0.0,0.0,0.0,0.0,0.0,0.0,0.0,0.0,0.0,0.0,0.0,0.0,0.0,0.0,0.0,0.0,0.0,0.0,0.0,0.0,0.0,-0.9424,-0.9887,0.0,-0.9704,-0.9784,-0.9543,-0.8798,-0.8769,-0.8711,-0.8711,-0.9363,-1.0072,-1.0947,-1.1984,-1.2901,-1.382,-1.4584,-1.5058,-1.5332,-1.5431,-1.5617,-1.5903,-1.6366,-1.718,-1.8068,-1.9052,-2.0218,-2.13,-2.1987,-2.2353,-2.2523,-2.292,-2.3163,-2.3475,-2.4035,-2.4668,-2.5383,-2.613,-2.6824,-2.7434,-2.8195,-2.8558,-2.8762,-2.9035,-2.9009,-2.9087,-2.9535,-2.9494,-2.9426,-3.0021,-3.0199,-3.0472,-3.1196,-3.1514,-3.1699,-3.2177,-3.2304,-3.2177,-3.1946,-3.2595,-3.3044,-3.2475,-3.2345,-3.22,-3.1676,-3.1529,-3.1334,-3.1048,-3.1123,-3.1421,-3.185,-3.2403,-3.3185,-3.4099,-3.4601,-3.503,-3.5439,-3.5504,-3.5554,-3.5688,-3.5894,-3.6274,-3.6799,-3.7373,-3.8214,0.0,0.0,0.0,0.0,0.0,0.0,0.0,0.0,0.0,0.0,0.0,0.0,0.0,0.0,0.0,0.0,0.0,0.0,0.0,0.0,0.0,0.0,0.0,0.0,0.0,0.0,-0.8869,-0.8984,-0.937,-0.9513,-0.9165,-0.9235,-0.8989,-0.8513,-0.8376,-0.831,-0.8405,-0.8791,-0.9511,-1.0395,-1.136,-1.239,-1.3516,-1.4298,-1.4879,-1.5255,-1.5547,-1.5832,-1.6028,-1.6595,-1.7333,-1.8241,-1.9347,-2.0447,-2.1642,-2.2176,-2.2457,-2.2547,-2.2798,-2.3039,-2.3371,-2.3958,-2.4681,-2.5564,-2.6511,-2.7351,-2.8037,-2.8587,-2.8836,-2.891,-2.9119,-2.9106,-2.9109,-2.9627,-2.9592,-2.9517,-3.0126,-3.0292,-3.0368,-3.0836,-3.0973,-3.1097,-3.132,-3.1307,-3.1233,-3.1097,-3.1616,-3.1909,-3.1421,-3.1434,-3.1373,-3.0911,-3.0986,-3.0986,-3.0546,-3.0761,-3.1061,-3.1347,-3.2055,-3.2903,-3.3934,-3.4452,-3.4964,-3.5439,-3.5504,-3.5554,-3.5688,-3.5831,-3.6196,-3.6799,-3.7738,-3.8778,-3.9952,0.0,0.0,0.0,0.0,0.0,0.0,0.0,0.0,0.0,0.0,0.0,0.0,0.0,0.0,0.0,0.0,0.0,0.0,0.0,0.0,0.0,0.0,0.0,-0.852,-0.861,-0.8613,-0.8617,-0.8816,-0.8913,-0.8625,-0.8783,-0.869,-0.8215,-0.835,-0.8233,-0.8041,-0.8237,-0.8726,-0.9509,-1.0404,-1.1389,-1.2657,-1.3426,-1.41,-1.4688,-1.5255,-1.5445,-1.554,-1.6305,-1.6951,-1.7785,-1.898,-2.0167,-2.1445,-2.2078,-2.2706,-2.3135,-2.3135,-2.3406,-2.3841,-2.4605,-2.5443,-2.6434,-2.7926,-2.8882,-2.9419,-2.9419,-2.9599,-2.9792,-2.9792,-2.9792,-2.9792,-2.9792,-2.9792,-2.9869,-3.0011,-3.0075,-3.0164,-3.0546,-3.0698,-3.0698,-3.0911,-3.0986,-3.0911,-3.0698,-3.0849,-3.0911,-3.0698,-3.0698,-3.0622,-3.0444,-3.0609,0.0,-3.0152,-3.047,-3.0773,-3.0986,-3.1982,-3.2974,-3.3728,-3.4438,-3.5067,-3.5439,-3.5504,-3.5554,-3.5688,-3.5688,-3.6006,-3.6708,-3.8453,-3.9732,-4.0625,0.0,0.0,0.0,0.0,0.0,0.0,0.0,0.0,0.0,0.0,0.0,0.0,0.0,0.0,0.0,0.0,0.0,0.0,0.0,0.0,0.0,0.0,-0.7811,-0.8074,-0.8059,-0.8197,-0.86,-0.8619,-0.8664,-0.8485,-0.8536,-0.8368,-0.8079,-0.8117,-0.8038,-0.8038,-0.8237,-0.8627,-0.9019,-0.9817,-1.0605,-1.1292,-1.2457,-1.3329,-1.3806,-1.4783,-1.5261,-1.554,-1.6021,-1.6864,-1.7785,-1.8611,-1.9886,-2.1445,-2.1998,-2.253,-2.3135,-2.3135,-2.3319,-2.3677,-2.4196,-2.5359,-2.6846,-2.7661,-2.8474,-2.9197,-2.9341,-2.9599,-2.9792,-2.9792,-2.9792,-2.9792,-2.9792,-2.9792,-2.9792,-2.9869,-2.9869,-2.9934,-3.0023,-3.0023,-3.0088,-3.0088,-3.0088,-3.0088,-3.01,-3.01,-3.0164,-3.0241,-3.0546,-3.0622,-3.0444,-3.0685,0.0,-3.0368,-3.0533,-3.0773,-3.0986,-3.1629,-3.2475,-3.3534,-3.4045,-3.4601,-3.5228,-3.5294,-3.5474,-3.591,-3.5894,-3.6445,-3.7535,-3.9032,-4.0136,0.0,0.0,0.0,0.0,0.0,0.0,0.0,0.0,0.0,0.0,0.0,0.0,0.0,0.0,0.0,0.0,0.0,0.0,0.0,0.0,0.0,0.0,-0.7906,-0.7879,-0.7983,-0.7973,-0.8004,-0.829,-0.8304,-0.8339,-0.8226,-0.8233,-0.8137,-0.8038,-0.8038,-0.8038,-0.8038,-0.8137,-0.8333,-0.8627,-0.9225,-0.9719,-1.0306,-1.1482,-1.236,-1.2845,-1.4202,-1.4879,-1.5166,-1.5838,-1.6683,-1.7598,-1.8427,-1.9712,-2.1266,-2.182,-2.253,0.0,0.0,0.0,0.0,0.0,-2.5611,-2.6846,-2.7499,-2.8223,-2.9052,-2.9197,-2.9534,-2.9792,-2.9792,-2.9792,-2.9792,-2.9792,-2.9792,-2.9792,-2.9792,-2.9792,-2.9792,-2.9792,-2.9792,-2.9792,-2.9792,-2.9792,-2.9792,-2.9792,-2.9792,0.0,-2.9934,-3.0241,-3.0394,-3.0292,-3.052,-3.0596,-3.0305,-3.0533,-3.0761,-3.1035,-3.1763,-3.2561,-3.3632,-3.4059,0.0,0.0,0.0,-3.5474,-3.5973,-3.6336,0.0,0.0,0.0,-4.0186,-4.0737,-4.177,0.0,0.0,-4.3321,-4.3763,0.0,0.0,0.0,0.0,0.0,0.0,0.0,0.0,0.0,0.0,0.0,0.0,0.0,0.0,0.0,0.0,-0.8038,-0.8038,-0.8038,-0.8038,-0.8038,-0.8038,-0.8038,-0.8038,-0.8038,-0.8038,-0.8038,-0.8038,-0.8038,-0.8038,-0.8038,0.0,0.0,0.0,0.0,-0.9019,-0.9509,-1.06,-1.1389,-1.1975,-1.3522,-1.4394,-1.479,-1.5743,-1.6588,-1.7326,-1.8342,-1.9621,-2.1087,-2.1731,-2.2441,-2.3135,-2.3135,-2.3396,-2.4013,-2.5031,-2.5863,-2.661,-2.7267,0.0,0.0,-2.8973,-2.9378,-2.9714,-2.9792,-2.9779,-2.9792,-2.9792,-2.9792,-2.9792,-2.9792,-2.9792,-2.9792,-2.9792,-2.9792,-2.9792,-2.9792,-2.9792,-2.9792,-2.9792,-2.9792,-2.9792,-2.9792,-2.9934,-3.0075,-3.0075,-3.0292,-3.0292,-3.0152,-3.047,-3.0836,-3.1158,0.0,0.0,-3.3701,-3.4278,-3.4765,-3.5148,-3.5213,-3.5524,-3.5973,-3.6769,-3.7373,-3.77,-3.9102,-4.0086,-4.0642,-4.1727,-4.2409,-4.2649,-4.3196,-4.3649,0.0,0.0,0.0,0.0,0.0,0.0,0.0,0.0,0.0,0.0,0.0,0.0,0.0,0.0,0.0,-0.8038,-0.8038,-0.8038,-0.8038,-0.8038,-0.8038,-0.8038,-0.8038,-0.8038,-0.8038,-0.8038,-0.8038,-0.8038,-0.8038,-0.8038,-0.8038,-0.8038,-0.8038,-0.8038,-0.8333,-0.8627,-0.892,-1.001,-1.0998,-1.198,0.0,0.0,-1.5083,-1.5642,-1.6393,-1.7326,-1.7978,-1.9263,-2.1087,-2.1544,-2.2264,-2.3135,-2.3319,-2.3677,-2.4196,-2.4775,-2.5611,-2.661,-2.7103,-2.7846,-2.8578,-2.8803,-2.904,-2.9287,-2.9431,-2.9509,0.0,-2.9702,-2.9792,-2.9792,-2.9792,-2.9792,-2.9792,-2.9792,-2.9792,-2.9792,-2.9792,-2.9792,-2.9792,-2.9792,-2.9792,-2.9792,-2.9792,-2.9934,-3.0075,-3.0075,-3.0292,-3.0292,-3.0152,-3.047,-3.0836,-3.1158,-3.1969,-3.2775,-3.3591,-3.4005,-3.4399,-3.4935,-3.5524,-3.591,-3.5973,-3.6876,-3.7535,-3.7828,-3.9119,-4.0103,-4.0737,-4.1683,-4.2351,-4.2783,-4.3105,-4.3426,0.0,0.0,0.0,0.0,0.0,0.0,0.0,0.0,0.0,0.0,0.0,-0.754,0.0,0.0,-0.8038,-0.8038,-0.8038,-0.8038,-0.8038,-0.8038,-0.8038,-0.8038,-0.8038,-0.8038,-0.8038,-0.8038,-0.8038,-0.8038,-0.8038,-0.8038,-0.8038,-0.8038,-0.8038,-0.8038,-0.8137,-0.8333,-0.8627,-0.9521,-1.0511,-1.1585,-1.3033,-1.41,-1.4885,-1.5547,-1.6393,-1.7326,-1.7893,-1.918,-2.1078,-2.1989,-2.2696,-2.3144,-2.3406,-2.3764,-2.4282,-2.5115,-2.5935,-2.6764,-2.7429,-2.8087,-2.8645,-2.8882,-2.904,-2.9131,-2.9341,-2.9419,-2.9431,-2.9702,-2.9792,-2.9792,-2.9792,-2.9792,-2.9792,-2.9792,-2.9702,-2.9599,-2.9599,-2.9534,-2.9456,-2.9611,-2.9599,-2.9611,-2.9792,-2.9869,-2.9934,-2.9934,-3.0011,-3.0088,-2.9934,-3.0394,-3.0911,-3.1294,-3.2245,-3.3129,-3.3785,-3.4332,-3.4735,-3.5001,-3.5653,-3.5973,-3.5973,-3.6815,-3.7492,-3.7786,-3.9065,-4.0003,-4.0611,-4.1552,-4.2228,-4.2609,-4.29,-4.3267,0.0,0.0,0.0,0.0,0.0,0.0,0.0,0.0,-0.5532,-0.6542,-0.7244,-0.7646,-0.7939,-0.8038,-0.8038,-0.8038,-0.8038,-0.8038,-0.8038,-0.8038,-0.8038,-0.8038,-0.8038,-0.8038,-0.8038,-0.8038,-0.8038,-0.8038,-0.8038,-0.8038,-0.8038,-0.8038,-0.8038,-0.8038,-0.8038,-0.8137,-0.8432,-0.9229,-1.0216,-1.1389,-1.2834,-1.3908,-1.479,-1.5452,-1.6393,-1.7326,-1.8257,-1.9629,-2.1266,-2.252,-2.3135,-2.3144,-2.3406,-2.3764,-2.4368,-2.5443,-2.6268,-2.7021,-2.7926,-2.8419,-2.8803,-2.8895,-2.8973,-2.8973,-2.9184,-2.9197,-2.9275,-2.9546,-2.9624,-2.9702,-2.9702,-2.9702,-2.9702,-2.9702,-2.9521,-2.9341,-2.9263,-2.9118,-2.9052,-2.9263,-2.9341,-2.9431,-2.9702,-2.9792,-2.9792,-2.9792,-2.9792,-2.9792,-2.9792,-3.0318,-3.0911,-3.1442,-3.2605,-3.3563,-3.4196,-3.4817,-3.5213,-3.5213,-3.5653,-3.5973,-3.5973,-3.6769,-3.7314,-3.7743,-3.892,-3.98,-4.04,-4.1356,-4.2002,-4.2374,-4.2691,-4.3124,-0.1516,-0.1718,0.0,-0.1917,-0.252,-0.3225,0.0,0.0,-0.5837,-0.6642,-0.7244,-0.7646,-0.7939,-0.8038,-0.8038,-0.8038,-0.8038,-0.8038,-0.8038,-0.8038,-0.8038,-0.8038,-0.8038,-0.8038,-0.8038,-0.8038,-0.8038,-0.8038,-0.8038,-0.8038,-0.8038,-0.8038,-0.8038,-0.8038,-0.8038,-0.8237,-0.8726,-0.9327,-1.0413,-1.1883,-1.3033,-1.4004,-1.5083,-1.5547,-1.6393,-1.7419,-1.9712,-2.1006,-2.1731,-2.2696,-2.3135,-2.3144,-2.3406,-2.3764,-2.4282,-2.52,-2.6124,-2.7044,-2.7938,-2.8339,-2.851,-2.859,-2.8419,-2.8339,-2.8498,-2.859,-2.8669,-2.9052,-2.9209,-2.9209,-2.9431,-2.9419,-2.9419,-2.9419,-2.9275,-2.904,-2.8882,-2.8736,-2.8657,-2.8803,-2.904,-2.9197,-2.9431,-2.9611,-2.9792,-2.9792,-2.9792,-2.9792,-2.9792,-3.0318,-3.0911,-3.1442,-3.2605,-3.3687,-3.4721,-3.5067,-3.5213,-3.5213,-3.5509,-3.5831,-3.5973,-3.6616,-3.7207,-3.7886,-3.8772,-3.9662,-4.04,-4.1128,-4.1709,-4.2216,-4.2577,-4.2939,-0.1111,0.0,0.0,0.0,-0.3228,-0.4033,-0.4734,-0.5636,-0.6439,-0.7144,-0.7543,-0.7842,-0.7942,-0.8038,-0.8038,0.0,-0.8038,-0.8038,-0.8038,-0.8038,-0.8038,-0.8038,-0.8038,-0.8038,-0.8038,-0.8038,-0.8038,-0.8038,-0.8038,-0.8038,-0.8038,-0.8038,-0.8038,-0.8038,-0.8038,-0.8134,-0.8528,-0.9229,-1.0216,-1.1585,-1.284,-1.4004,-1.4885,-1.5547,-1.6487,-1.7893,-1.9729,-2.1006,-2.1731,-2.2618,-2.2969,-2.3135,-2.3232,-2.3493,-2.3937,-2.5115,-2.6196,-2.7196,-2.7926,-2.8339,-2.851,-2.8339,-2.8099,-2.7846,-2.7995,-2.8063,-2.8235,-2.8803,-2.8961,-2.904,-2.9341,-2.9353,-2.9197,-2.9197,-2.8882,-2.8486,-2.8303,-2.8075,-2.8007,-2.8407,-2.8578,-2.8816,-2.9197,-2.9443,-2.9599,-2.9599,-2.9702,-2.9869,-2.9934,-3.047,-3.1408,-3.272,-3.3604,-3.4399,-3.5148,-3.5359,-3.5359,-3.5359,-3.5574,-3.5752,-3.5831,-3.6538,-3.7147,-3.7594,-3.8645,-3.9454,-4.007,-4.0802,-4.1373,-4.1874,-4.2297,-4.2711,-0.0707,0.0,0.0,-0.2522,-0.3531,-0.4437,-0.5236,-0.6039,-0.6642,-0.7045,-0.7341,-0.754,-0.764,-0.7643,-0.7739,-0.7842,-0.7842,-0.7942,-0.8038,-0.8038,-0.8038,-0.8038,-0.8038,-0.8038,-0.8038,-0.8038,-0.8038,-0.8038,-0.8038,-0.8038,-0.8038,-0.8038,-0.8038,-0.8038,-0.8038,-0.8137,-0.8432,-0.9229,-1.0117,-1.1194,-1.2737,-1.3902,-1.4688,-1.5737,-1.677,-1.8079,-1.9646,-2.0826,-2.1642,-2.2441,-2.2882,-2.3135,-2.3135,-2.3232,-2.3667,-2.4775,-2.5779,-2.6857,-2.7684,-2.8007,-2.8099,-2.8007,-2.7603,-2.7267,-2.7406,-2.7406,-2.7568,-2.8223,-2.8395,-2.8554,-2.8949,-2.8961,-2.8816,-2.8816,-2.8407,-2.7834,-2.7487,-2.7336,-2.7348,-2.7846,-2.8179,-2.859,-2.8973,-2.9197,-2.9419,-2.9419,-2.9611,-2.9869,-3.0075,-3.0823,-3.1969,-3.3659,-3.4317,-3.4913,-3.5439,-3.5504,-3.5504,-3.5504,-3.5604,-3.5638,-3.5688,-3.643,-3.6982,-3.7417,-3.8479,-3.9259,-3.9679,-4.0434,-4.0977,-4.1408,-4.1924,-4.2436,0.0,0.0,-0.1717,-0.2321,-0.3228,-0.4133,-0.4734,-0.5438,-0.6042,-0.6042,-0.6239,-0.6537,-0.6742,-0.6842,-0.7045,-0.7547,-0.7646,-0.7743,-0.7942,-0.8038,-0.8038,-0.8038,-0.8038,-0.8038,0.0,-0.8038,-0.8038,-0.8038,-0.8038,-0.8038,-0.8038,-0.8038,-0.8038,-0.8038,-0.8038,-0.8137,-0.8432,-0.9229,-1.0117,-1.1194,-1.2737,-1.3902,-1.4783,-1.6312,-1.7246,-1.7785,-1.9546,-2.0736,-2.1445,-2.2441,-2.2882,-2.3135,-2.3135,-2.3232,-2.359,-2.4034,-2.4786,-2.5695,-2.6846,-2.7267,-2.7267,-2.7267,-2.694,-2.6528,-2.6528,-2.6528,-2.661,-2.7103,-2.7348,-2.7684,-2.8099,-2.8247,-2.8259,-2.8259,-2.7684,-2.7103,-2.661,-2.6517,-2.6693,-2.7185,-2.7765,-2.8339,-2.8724,-2.9106,-2.9419,-2.9419,-2.9611,-2.9869,-3.0075,-3.1259,-3.2547,-3.3659,-3.4317,-3.4913,-3.5439,-3.5504,-3.5504,-3.5504,-3.5504,-3.5539,-3.5688,-3.6226,-3.6785,-3.7417,-3.823,-3.8898,-3.9418,-4.002,-4.0517,-4.0849,-4.1428,-4.1966,-0.0404,0.0,-0.1212,-0.1917,-0.2723,-0.3429,-0.4331,-0.4832,-0.5336,-0.5636,-0.5837,-0.5937,-0.6242,-0.6439,-0.6739,-0.7241,-0.7444,-0.7646,-0.7942,-0.8038,-0.8038,-0.8038,-0.8038,0.0,0.0,0.0,0.0,-0.8038,-0.8038,-0.8038,-0.8038,-0.8038,-0.8038,-0.8038,-0.8038,-0.8038,-0.8137,-0.913,-0.992,-1.0703,-1.2937,-1.4484,-1.5452,-1.6123,-1.6965,-1.7777,-1.8796,-2.0076,-2.1445,-2.2087,-2.2618,-2.3135,-2.3135,-2.3144,-2.3319,-2.359,-2.4013,-2.4594,-2.5852,-2.6434,-2.6517,-2.6185,-2.5863,-2.5611,-2.5611,-2.5611,-2.5779,-2.6351,-2.6693,-2.694,-2.7429,-2.751,-2.751,-2.7348,-2.6846,-2.6268,-2.5946,-2.5863,-2.603,-2.661,-2.7185,-2.7753,-2.8327,-2.8724,-2.9118,-2.9611,-2.9998,-3.0305,-3.0685,-3.1616,-3.2618,-3.3548,-3.4196,-3.475,-3.5228,-3.5294,-3.5359,-3.5504,-3.5504,-3.5504,-3.5554,-3.6037,-3.6523,-3.6952,-3.7812,-3.8455,-3.8898,-3.9556,-4.0003,-4.0302,-4.1019,-4.1622,-0.0202,-0.0404,-0.0808,-0.1413,-0.2018,-0.2622,-0.3324,-0.3728,-0.4029,-0.4431,-0.4431,-0.4632,-0.5035,-0.5336,-0.5837,-0.6736,-0.7141,-0.7444,-0.7939,-0.8038,-0.8038,-0.8038,-0.8038,-0.8038,0.0,0.0,0.0,-0.8038,-0.8038,-0.8038,-0.8038,-0.8038,-0.8038,-0.8038,-0.8038,-0.8038,-0.8038,-0.9031,-1.0212,-1.1575,-1.342,-1.4873,-1.5832,-1.6123,-1.669,-1.7512,-1.8427,-1.9621,-2.1096,-2.182,-2.2441,-2.2969,-2.3057,-2.3135,-2.3135,-2.3406,-2.359,-2.3841,-2.5009,-2.5516,-2.5516,-2.5263,-2.5031,-2.4871,-2.4871,-2.4871,-2.4946,-2.5432,-2.5768,-2.6113,-2.6528,-2.6693,-2.6693,-2.6445,-2.5935,-2.5443,-2.52,-2.52,-2.5443,-2.6196,-2.6693,-2.7278,-2.795,-2.8578,-2.9131,-2.9702,-3.0152,-3.052,-3.0836,-3.1703,-3.2561,-3.3339,-3.3908,-3.4534,-3.5082,-3.5148,-3.5294,-3.5504,-3.5504,-3.5504,-3.5504,-3.5973,-3.6336,-3.66,-3.7417,-3.8001,-3.8303,-3.8898,-3.9312,-3.961,-4.04,-4.1065,0.0,-0.0202,-0.0404,-0.0707,-0.1211,-0.1613,-0.1917,-0.2119,-0.232,-0.2321,-0.2321,-0.2622,0.0,0.0,-0.4535,-0.6137,-0.6639,-0.7042,-0.7839,-0.8038,-0.8038,0.0,0.0,0.0,0.0,0.0,0.0,-0.8038,0.0,-0.8038,-0.8038,-0.8038,-0.8038,-0.8038,-0.8038,-0.8038,-0.8038,-0.913,-1.0988,-1.3511,-1.4004,-1.4873,-1.5832,-1.6028,-1.6508,-1.7073,-1.8249,-1.9355,-2.0382,-2.1553,-2.2362,-2.2803,-2.3057,-2.3135,-2.3135,-2.3416,-2.3503,-2.358,-2.4251,-2.4413,-2.4498,-2.4413,-2.4348,-2.4206,-2.4206,-2.4206,-2.4196,-2.4423,-2.4765,-2.52,-2.5369,-2.5633,-2.5728,-2.5538,-2.5115,-2.4775,-2.454,-2.47,-2.5031,-2.5684,-2.6373,-2.7056,-2.78,-2.859,-2.9221,-2.9702,-3.0152,-3.0444,-3.0698,-3.1482,-3.2273,-3.2917,-3.3632,-3.4264,-3.4802,-3.5082,-3.5294,-3.5504,-3.5504,-3.5504,-3.5504,-3.591,-3.6274,-3.6492,-3.7074,-3.7433,-3.7642,-3.8059,-3.8455,-3.8788,-3.9542,-4.0285,0.0,0.0,-0.0202,-0.0404,-0.0606,-0.0808,-0.1313,-0.1414,-0.1515,-0.1715,-0.1815,-0.2017,0.0,0.0,0.0,-0.5839,-0.6542,0.0,-0.7839,-0.8038,0.0,0.0,0.0,-0.8038,-0.8038,-0.8038,0.0,0.0,-0.8038,-0.8038,-0.8038,-0.8038,-0.8038,-0.8038,-0.8038,-0.8038,-0.8038,-0.9422,-1.1282,-1.3511,-1.4004,-1.4873,-1.5832,-1.5832,-1.6312,-1.7073,-1.7699,-1.8896,-2.0382,-2.1275,-2.2078,-2.2803,-2.3057,-2.3135,-2.3144,-2.3144,-2.3232,-2.3232,-2.3396,-2.3657,-2.3917,-2.3831,-2.3754,-2.3677,-2.3677,-2.3677,-2.3764,-2.3927,-2.4186,-2.4454,-2.454,-2.469,-2.4765,-2.4615,-2.4272,-2.41,-2.4013,-2.4013,-2.4262,-2.4754,-2.5768,-2.6787,-2.7522,-2.8327,-2.904,-2.9431,-2.9908,-3.0305,-3.0622,-3.1272,-3.1909,-3.2489,-3.2988,-3.3618,-3.4467,-3.4683,-3.503,-3.5439,-3.5504,-3.5504,-3.5504,-3.5718,-3.5958,-3.61,-3.6538,-3.6785,-3.6968,-3.7417,-3.7812,-3.8173,-3.8816,-3.956,0.0,0.0,0.0,-0.0202,-0.0202,-0.0303,-0.0606,-0.0707,-0.0707,-0.0908,-0.0908,0.0,0.0,0.0,0.0,0.0,0.0,0.0,-0.7743,-0.7942,-0.8038,0.0,-0.8038,0.0,-0.8038,-0.8102,-0.814,0.0,-0.8079,-0.8038,-0.8038,-0.8038,-0.8038,-0.8038,-0.8038,-0.8137,-0.8538,-0.9821,-1.1282,-1.3125,-1.3902,-1.4777,-1.5635,-1.573,-1.6116,-1.6697,0.0,-1.8249,-1.9546,-2.0628,-2.1535,-2.2255,-2.2794,-2.2969,-2.2969,-2.3057,-2.3135,-2.3135,-2.3135,-2.3309,-2.3493,-2.3319,-2.3319,-2.3319,-2.3319,-2.3319,-2.3319,-2.3493,-2.3677,-2.3851,-2.3851,-2.4013,-2.4166,-2.3937,-2.3764,-2.3667,-2.3667,-2.3667,-2.3841,-2.4509,-2.5516,-2.6445,-2.7267,-2.7903,-2.8542,-2.8961,-2.9365,-2.9754,-2.9998,-3.0672,-3.1421,-3.1982,-3.2489,-3.3129,-3.4182,-3.4549,-3.4898,-3.5439,-3.5504,-3.5504,-3.5504,-3.5653,-3.5752,-3.5894,-3.6163,-3.6289,-3.6399,-3.6693,-3.7058,-3.7417,-3.8051,-3.8745,0.0,0.0,0.0,0.0,0.0,0.0,0.0,0.0,0.0,0.0,0.0,-0.0202,-0.101,0.0,-0.2924,-0.4531,0.0,-0.6539,-0.7444,-0.7743,-0.7942,-0.8038,-0.8038,-0.8038,-0.8038,-0.818,-0.8272,-0.8272,-0.8147,-0.8069,-0.8069,-0.8052,-0.8038,-0.8038,-0.8038,-0.834,-0.9236,-0.992,-1.1184,-1.2732,-1.3709,-1.4682,-1.554,-1.573,-1.5927,-1.6224,-1.6958,-1.7699,-1.8434,-1.9903,-2.0808,-2.1356,-2.2255,-2.2706,-2.2715,-2.2969,-2.3057,-2.3047,-2.3057,-2.3135,-2.3135,-2.3135,-2.3135,-2.3135,-2.3135,-2.3135,-2.3135,-2.3135,-2.3232,-2.3416,-2.3416,-2.358,-2.3667,-2.3503,-2.3416,-2.3416,-2.3416,-2.3416,-2.3667,-2.4519,-2.5274,-2.5935,-2.6764,-2.7325,-2.7822,-2.8259,-2.8657,-2.8961,-2.8973,-2.9921,-3.0836,-3.1421,-3.1982,-3.2747,-3.3879,-3.4399,-3.4898,-3.5439,-3.5504,-3.5504,-3.5504,-3.5589,-3.5688,-3.5688,-3.5846,-3.591,-3.591,-3.6085,-3.6274,-3.66,-3.7207,-3.7921,0.0,0.0,0.0,0.0,0.0,0.0,0.0,0.0,0.0,0.0,0.0,-0.0202,-0.101,-0.1716,0.0,-0.4228,0.0,0.0,0.0,0.0,-0.7743,0.0,0.0,0.0,0.0,0.0,0.0,0.0,0.0,-0.8231,-0.8231,-0.8109,-0.8038,-0.8038,-0.8038,-0.834,-0.9236,-0.9826,-1.0988,-1.2732,-1.3607,-1.4484,-1.554,-1.573,-1.5927,-1.6224,-1.6784,0.0,-1.8265,-1.9263,-2.0076,-2.0817,-2.1615,-2.1989,-2.2274,-2.2715,-2.2891,-2.2882,-2.3057,-2.3135,-2.3135,-2.3135,-2.3135,-2.3135,-2.3135,-2.3135,-2.3135,-2.3135,-2.3135,-2.3144,-2.3144,-2.3232,-2.3232,-2.3144,-2.3144,-2.3144,-2.3144,-2.3144,-2.3319,-2.3667,-2.4251,-2.4925,-2.5443,-2.6351,-2.7174,-2.7348,-2.7742,-2.8143,-2.8327,-2.9443,-3.0381,-3.0836,-3.1468,-3.2304,-3.3325,-3.4045,-3.4683,-3.5228,-3.5439,-3.5504,-3.5504,-3.5504,-3.5554,-3.5554,-3.5569,-3.5569,-3.5569,-3.5703,-3.5879,-3.6163,-3.6646,-3.7282,0.0,0.0,0.0,0.0,0.0,0.0,0.0,0.0,0.0,0.0,0.0,-0.0202,-0.0707,0.0,0.0,0.0,0.0,0.0,0.0,0.0,0.0,0.0,0.0,0.0,0.0,0.0,0.0,0.0,0.0,-0.8272,-0.8272,-0.8123,-0.8038,-0.8038,-0.8038,-0.8237,-0.8733,-0.9418,-1.0498,-1.1965,-1.3028,-1.4094,-1.507,-1.5445,-1.5737,-1.6021,-1.6407,-1.6878,-1.7426,-1.835,-1.908,-1.9803,-2.0709,-2.1356,-2.182,-2.2353,-2.2706,-2.2803,-2.3057,-2.3135,-2.3135,-2.3135,-2.3135,-2.3135,-2.3135,-2.3135,-2.3135,-2.3135,-2.3135,-2.3135,-2.3135,-2.3135,-2.3135,-2.3135,-2.3057,-2.2882,-2.2784,-2.2706,-2.2882,-2.3232,-2.3657,-2.4176,-2.4765,-2.5432,-2.5935,-2.6113,-2.6505,-2.6835,-2.701,-2.7903,-2.9028,-3.005,-3.0859,-3.1809,-3.2903,-3.3632,-3.4196,-3.475,-3.4964,-3.5096,-3.5096,-3.5228,-3.5359,-3.5359,-3.5439,-3.5504,-3.5504,-3.5539,-3.5653,-3.5831,-3.6274,-3.6815,0.0,0.0,0.0,0.0,0.0,0.0,0.0,0.0,0.0,0.0,0.0,-0.0101,-0.0303,0.0,0.0,0.0,0.0,0.0,0.0,0.0,0.0,0.0,0.0,0.0,0.0,0.0,0.0,0.0,0.0,0.0,-0.8221,-0.8106,-0.8038,-0.8038,-0.8038,-0.8137,-0.8432,-0.9122,-1.0006,-1.1096,-1.2446,-1.3607,-1.4592,-1.5255,-1.5635,-1.5832,-1.6123,-1.6312,-1.6588,-1.7527,-1.8164,-1.8696,-1.9803,-2.0628,-2.1266,-2.198,-2.2441,-2.2706,-2.2969,-2.3135,-2.3135,-2.3135,-2.3135,-2.3135,-2.3135,-2.3135,-2.3135,-2.3135,-2.3135,-2.3135,-2.3135,-2.3135,-2.3047,-2.296,-2.2784,-2.252,-2.2255,-2.2167,-2.2344,-2.2696,-2.3144,-2.3493,-2.4069,-2.4509,-2.4775,-2.4946,-2.5359,-2.56,-2.5684,-2.6351,-2.7406,-2.8834,-2.9999,-3.1071,-3.2245,-3.2974,-3.3632,-3.4128,-3.4414,-3.4549,-3.4549,-3.4802,-3.5001,-3.5016,-3.5162,-3.5309,-3.5309,-3.5309,-3.5409,-3.5638,-3.5894,-3.6399,0.0,0.0,0.0,0.0,0.0,0.0,0.0,0.0,0.0,0.0,0.0,-0.0101,-0.0303,-0.0707,-0.1111,0.0,0.0,0.0,0.0,0.0,0.0,0.0,0.0,0.0,0.0,0.0,0.0,0.0,0.0,0.0,-0.8069,-0.8045,-0.8038,-0.8038,-0.8038,-0.8137,-0.8432,-0.8931,-0.9821,-1.0806,-1.215,-1.3318,-1.4394,-1.5159,-1.5635,-1.5832,-1.6123,-1.6224,0.0,-1.6878,-1.734,-1.787,-1.8696,-1.9538,-2.0464,-2.1436,-2.2069,-2.253,-2.2969,-2.3135,-2.3135,-2.3135,-2.3135,-2.3135,-2.3135,-2.3135,-2.3135,-2.3135,-2.3135,-2.3135,-2.3135,-2.3135,-2.296,-2.253,-2.2157,-2.1704,-2.1535,-2.1535,-2.1535,-2.1784,-2.2422,-2.2969,-2.3232,-2.3841,-2.4282,-2.4292,-2.4509,-2.4754,-2.4946,-2.5359,-2.5946,-2.6682,-2.8585,-3.0152,-3.097,-3.2101,-3.2988,-3.3339,-3.3673,-3.3934,-3.4153,-3.4153,-3.4303,-3.4481,-3.4481,-3.4616,-3.4765,-3.4765,-3.4964,-3.5279,-3.5489,-3.5925,0.0,0.0,0.0,0.0,0.0,0.0,0.0,0.0,0.0,0.0,0.0,0.0,-0.0101,-0.0404,-0.0707,-0.1211,0.0,0.0,0.0,0.0,0.0,0.0,0.0,0.0,0.0,0.0,0.0,0.0,0.0,0.0,-0.8041,-0.8038,-0.8038,-0.8038,-0.8038,-0.8038,-0.8137,-0.873,-0.9422,-1.0314,-1.1678,-1.2937,-1.41,-1.4879,-1.5452,-1.5832,-1.5927,-1.5927,0.0,-1.6312,-1.6784,-1.734,-1.8071,-1.8996,-2.0011,-2.0718,-2.1356,-2.183,-2.2353,-2.253,-2.253,-2.2794,-2.2794,-2.2696,-2.3047,-2.3057,-2.2882,-2.2882,-2.2794,-2.2696,-2.2696,-2.2618,-2.2353,-2.19,-2.1445,-2.0898,-2.0619,-2.0529,-2.0619,-2.0988,-2.1535,-2.2078,-2.2441,-2.2882,-2.3144,-2.3319,-2.357,-2.3734,-2.4013,-2.4444,-2.4946,-2.5443,-2.7452,-2.9045,-2.9731,-3.0581,-3.1267,-3.1636,-3.206,-3.2349,-3.272,-3.3143,-3.352,-3.3701,-3.3962,-3.4099,-3.4167,-3.4303,-3.4385,-3.4572,-3.4839,-3.5234,0.0,0.0,0.0,0.0,0.0,0.0,0.0,0.0,0.0,0.0,0.0,0.0,0.0,-0.0202,-0.0404,-0.0606,0.0,-0.1816,0.0,0.0,0.0,0.0,0.0,0.0,0.0,0.0,0.0,0.0,0.0,0.0,-0.7842,-0.7942,-0.8038,-0.8038,-0.8038,-0.8038,-0.8038,-0.8531,-0.9221,-1.0019,-1.1389,-1.2651,-1.3902,-1.4688,-1.5363,-1.5832,-1.5832,-1.5832,0.0,-1.6028,-1.6312,-1.6791,-1.7527,-1.8357,-1.9271,-1.9994,-2.0645,-2.1114,-2.1741,-2.1909,-2.1998,-2.2451,-2.2441,-2.2264,-2.2608,-2.2608,-2.2627,-2.2618,-2.253,-2.2264,-2.2255,-2.19,-2.1544,-2.1078,-2.0447,-1.9812,-1.9446,-1.9355,-1.953,-1.9994,-2.0529,-2.1168,-2.1642,-2.1998,-2.2264,-2.253,-2.2706,-2.2882,-2.3144,-2.3503,-2.3937,-2.4444,-2.5975,-2.7348,-2.8347,-2.9045,-2.9589,-2.9973,-3.0417,-3.0882,-3.1267,-3.1842,-3.229,-3.2605,-3.2791,-3.3003,-3.3143,-3.3297,-3.3506,-3.3713,-3.4056,-3.4543,0.0,0.0,0.0,0.0,0.0,0.0,0.0,0.0,0.0,0.0,0.0,0.0,0.0,0.0,-0.0101,-0.0404,-0.0606,0.0,0.0,0.0,0.0,0.0,0.0,0.0,0.0,0.0,0.0,0.0,0.0,0.0,-0.7646,-0.7842,-0.8038,-0.8038,-0.8038,-0.8038,-0.8038,-0.8531,-0.9221,-1.0019,-1.1389,-1.2651,-1.3902,-1.4688,-1.5363,-1.5832,-1.5832,-1.5832,0.0,-1.5832,-1.5927,-1.6224,-1.6791,-1.7441,-1.8272,-1.9171,-1.982,-2.0382,-2.1177,-2.1445,-2.1445,-2.1909,-2.1919,-2.1731,-2.1704,-2.19,-2.2185,-2.2353,-2.2264,-2.1998,-2.1793,-2.1159,-2.0538,-2.0076,-1.9163,-1.8342,-1.8172,-1.8087,-1.8265,-1.8703,-1.943,-2.0167,-2.0898,-2.1266,-2.1544,-2.2008,-2.2097,-2.2185,-2.2353,-2.2618,-2.2979,-2.3503,-2.3917,-2.5084,-2.701,-2.7787,-2.8323,-2.8706,-2.9123,-2.9601,-2.9986,-3.0241,-3.0545,-3.0895,-3.097,-3.1119,-3.1516,-3.1723,-3.2218,-3.2932,-3.3185,-3.3811,0.0,0.0,0.0,0.0,0.0,0.0,0.0,0.0,0.0,0.0,0.0,0.0,0.0,0.0,0.0,-0.0101,-0.0303,0.0,0.0,0.0,0.0,0.0,0.0,0.0,0.0,0.0,0.0,0.0,0.0,0.0,-0.7341,-0.7543,-0.7842,-0.8038,-0.8038,-0.8038,-0.8038,-0.8531,-0.9221,-1.0019,-1.1389,-1.2651,-1.3902,-1.4688,-1.5363,-1.5832,-1.5832,-1.5832,-1.5832,-1.5832,-1.5927,-1.6224,-1.6595,-1.7059,-1.7613,-1.8064,-1.8527,-1.8912,-1.9438,-1.9712,-2.0002,-2.0645,-2.0727,-2.0538,-2.0727,-2.0997,-2.1275,-2.1006,-2.0916,-2.0826,-2.0529,-2.0085,-1.9546,-1.898,-1.8249,-1.7606,-1.7347,-1.7347,-1.7527,-1.7971,-1.8519,-1.9072,-1.9637,-1.9994,-2.0266,-2.0835,-2.0835,-2.1096,-2.1624,-2.1802,-2.2078,-2.2696,-2.3047,-2.3907,-2.5516,-2.5924,-2.6329,-2.673,-2.7139,-2.7706,-2.8505,-2.9003,-2.9394,-2.9691,-2.9922,-3.0152,-3.0304,-3.0758,-3.1341,-3.1942,-3.2331,-3.2676,0.0,0.0101,0.0202,0.0303,0.0303,0.0,0.0,0.0,0.0303,0.0202,0.0101,0.0101,0.0,0.0,0.0,0.0,-0.0101,0.0,0.0,0.0,0.0,0.0,0.0,0.0,0.0,0.0,0.0,0.0,0.0,0.0,-0.6739,-0.7141,-0.7444,-0.7842,-0.7939,-0.8038,-0.8038,-0.8531,-0.9221,-1.0019,-1.1296,-1.2554,-1.3806,-1.4592,-1.5267,-1.5737,-1.5737,-1.5832,0.0,-1.5832,-1.5927,-1.6123,-1.6312,-1.6588,-1.6958,-1.7333,-1.752,-1.7807,-1.835,-1.8627,-1.8912,-1.9646,-1.9637,-1.9347,-1.9355,-1.9812,-2.0357,-2.0011,-1.992,-1.9828,-1.9438,-1.8988,-1.8535,-1.7978,-1.7333,-1.6871,-1.6697,-1.6697,-1.6784,-1.7232,-1.7606,-1.8071,-1.8535,-1.8711,-1.9072,-1.9629,-1.9729,-1.9994,-2.0628,-2.0808,-2.1078,-2.1624,-2.2078,-2.2696,-2.3734,-2.4433,-2.4946,-2.5348,-2.5684,-2.6185,-2.6823,-2.7313,-2.7637,-2.7855,-2.8187,-2.8426,-2.8585,-2.9459,-3.0152,-3.0696,-3.1057,-3.1281,0.0,0.0,0.0,0.0,0.0,0.0,0.0,0.0,0.0,0.0505,0.0505,0.0404,0.0101,0.0101,0.0,0.0,0.0,0.0,0.0,0.0,0.0,0.0,0.0,0.0,0.0,0.0,0.0,0.0,0.0,0.0,-0.5842,-0.6442,-0.6945,-0.7547,-0.7842,-0.7939,-0.8038,-0.8531,-0.9221,-1.0019,-1.0998,-1.2165,-1.3511,-1.4298,-1.4975,0.0,-1.5635,-1.5737,-1.5737,-1.5825,-1.5832,-1.5825,-1.6028,-1.613,-1.6218,-1.6697,-1.6885,-1.6979,-1.7714,-1.7994,-1.8087,-1.8819,-1.8719,-1.8249,-1.7785,-1.8427,-1.9263,-1.9088,-1.9096,-1.8904,-1.8434,-1.7963,-1.7505,-1.6972,-1.6508,-1.613,-1.613,-1.613,-1.6218,-1.6487,-1.6683,-1.7066,-1.7505,-1.7598,-1.787,-1.8611,-1.8696,-1.8888,-1.9347,-1.9621,-1.9985,-2.0447,-2.0997,-2.1445,-2.1919,-2.3232,-2.41,-2.4327,-2.4594,-2.4765,-2.502,-2.5242,-2.54,-2.5652,-2.5924,-2.634,-2.6812,-2.8051,-2.887,-2.925,-2.9471,-2.9691,0.242,0.0,0.1311,0.1412,0.1412,0.0,0.0,0.0,0.0,0.0,0.0,0.0,0.0,0.0606,0.0303,0.0303,0.0101,0.0,0.0,0.0,0.0,0.0,0.0,0.0,0.0,0.0,0.0,0.0,0.0,-0.3728,-0.4732,-0.5331,-0.5934,-0.6639,-0.7138,-0.7537,-0.8038,-0.8333,-0.8924,-0.971,-1.06,-1.1683,-1.2948,-1.3715,-1.4394,-1.4879,-1.535,-1.554,-1.554,-1.573,-1.5832,-1.5832,-1.5832,-1.5927,-1.5927,-1.6021,-1.6116,-1.6116,-1.6501,-1.6777,-1.7059,-1.7347,-1.7441,-1.7246,-1.6958,-1.7326,-1.7785,-1.7792,-1.7792,-1.7606,-1.7138,-1.6763,-1.6379,-1.5913,-1.5547,-1.5369,-1.5369,-1.5369,-1.5458,-1.5629,-1.592,-1.6204,-1.6473,-1.6763,-1.6958,-1.734,-1.7434,-1.7613,-1.8056,-1.835,-1.8812,-1.9463,-1.9994,-2.0439,-2.0907,-2.1989,-2.2706,-2.2862,-2.2931,-2.3096,-2.326,-2.3694,-2.3943,-2.3943,-2.4914,-2.5935,-2.6835,-2.7336,-2.7742,-2.8199,-2.8371,-2.8438,0.4128,0.3323,0.2418,0.2621,0.2722,0.2621,0.0,0.0,0.0,0.0,0.0,0.0,0.0,0.0,0.0,0.0,0.0,0.0,0.0,0.0,0.0,0.0,0.0,0.0,0.0,0.0,0.0,0.0,0.0,-0.2622,-0.3629,-0.4128,-0.4931,-0.6037,-0.6537,-0.7138,-0.7842,-0.8237,-0.8726,-0.9217,-1.0015,-1.09,-1.1878,-1.2748,-1.3522,-1.4004,-1.458,-1.4867,-1.5159,-1.5261,-1.5452,-1.5642,-1.5642,-1.5737,-1.5832,-1.5832,-1.5832,-1.5832,-1.6123,-1.6407,-1.6588,-1.6595,-1.6602,-1.6602,-1.6305,-1.6393,-1.6574,-1.6857,-1.6857,-1.6669,-1.6197,-1.5906,-1.5527,-1.5057,-1.4777,-1.4688,-1.4592,-1.4592,-1.4586,-1.4669,-1.4867,-1.5057,-1.5242,-1.5439,-1.5635,-1.5927,-1.6021,-1.6292,-1.6567,-1.7138,-1.7613,-1.8257,-1.8896,-1.9438,-1.9911,-2.0357,-2.0898,-2.1722,-2.1606,-2.1596,-2.1774,-2.1845,-2.2101,-2.2473,-2.326,-2.4211,-2.5136,-2.5389,-2.5521,-2.5705,-2.5869,-2.5839,0.5636,0.483,0.3827,0.4131,0.4234,0.4131,0.393,0.0,0.0,0.0,0.0,0.0,0.0,0.0,0.0,0.0,0.0,0.0,0.0,0.0,0.0,0.0,0.0,0.0,0.0,0.0,0.0,0.0,0.0,-0.1715,-0.2523,-0.3025,-0.3929,-0.5233,-0.5934,-0.6637,-0.7447,-0.8038,-0.8432,-0.8726,-0.9422,-1.0113,-1.0605,-1.1683,-1.236,-1.2829,0.0,0.0,-1.4394,-1.4496,-1.4873,-1.5255,-1.5255,-1.5445,-1.5635,-1.5635,-1.5635,-1.5832,-1.6028,-1.6312,-1.6393,-1.6218,-1.6123,-1.6028,-1.5832,-1.5547,-1.554,-1.6109,-1.6103,-1.5818,-1.5337,-1.5051,-1.4765,-1.4202,-1.4106,-1.4004,-1.3715,-1.3715,-1.3619,-1.3619,-1.3709,-1.3806,-1.4004,-1.41,-1.4292,-1.449,-1.4771,-1.4956,-1.5242,-1.5913,-1.6581,-1.7044,-1.7785,-1.8342,-1.8912,-1.8664,-1.9074,-2.0271,-2.024,-2.0266,-2.0266,-2.0068,-2.0305,-2.1069,-2.1505,-2.2086,-2.2804,-2.2977,-2.2952,-2.2922,-2.3079,-2.3052,0.6542,0.6442,0.6139,0.5536,0.5336,0.5236,0.5037,0.0,0.0,0.0,0.0,0.0,0.0,0.0,0.0,0.0,0.0,0.0,0.0,0.0,0.0,0.0,0.0,0.0,0.0,0.0,0.0,0.0,0.0,-0.0808,-0.1414,-0.1917,-0.2722,-0.3828,-0.483,-0.5834,-0.6945,-0.764,-0.8237,-0.8432,-0.8825,-0.9217,-0.9805,-1.0699,-1.1194,-1.158,0.0,-1.2926,-1.3022,-1.3709,-1.41,-1.4196,-1.4388,-1.4682,-1.4879,-1.4879,-1.5166,-1.5547,-1.5832,-1.5927,-1.5927,-1.5832,-1.5737,-1.5635,-1.554,-1.5166,-1.4783,-1.4682,-1.4777,-1.4777,-1.4292,-1.3902,-1.3613,-1.3147,-1.305,-1.2953,-1.2662,-1.2657,-1.2559,-1.2365,-1.2646,-1.2926,-1.2926,-1.3318,-1.3613,-1.3709,-1.3902,-1.419,-1.449,-1.5153,-1.5812,-1.6285,-1.6864,-1.734,-1.7606,-1.7353,-1.7288,-1.7561,-1.8103,-1.8535,-1.8703,-1.8703,-1.9109,-1.9972,-2.0228,-2.0661,-2.1324,-2.1324,-2.1453,-2.1636,-2.1783,-2.1846,0.7341,0.7441,0.7341,0.7039,0.6637,0.6337,0.5939,0.0,0.0,0.0,0.0,0.0,0.0,0.0,0.0,0.0,0.0,0.0,0.0,0.0,0.0,0.0,0.0,0.0,0.0,0.0,0.0,0.0,0.0,0.0,-0.0707,-0.1313,-0.2018,-0.3127,-0.4228,-0.5334,-0.6342,-0.7138,-0.7736,-0.8237,-0.8432,-0.8726,-0.9019,-0.962,-1.0113,-1.04,0.0,-1.1477,-1.1965,-1.2257,-1.2743,-1.3221,-1.3414,-1.3806,-1.4298,-1.4592,-1.4981,-1.5267,-1.5261,-1.5166,-1.5166,-1.5064,-1.4968,-1.4771,-1.4675,-1.4292,-1.3806,-1.3511,-1.3613,-1.3715,-1.3232,-1.2748,-1.236,-1.1975,-1.198,-1.178,-1.1389,-1.1292,-1.1194,-1.0998,-1.1091,-1.1277,-1.1473,-1.1673,-1.1868,-1.1868,-1.2052,-1.2358,-1.2644,-1.3373,-1.4031,-1.4501,-1.5068,-1.5443,-1.5698,-1.549,-1.5687,-1.6407,-1.6816,-1.6987,-1.6799,-1.6889,-1.7086,-1.7351,-1.7624,-1.797,-1.839,-1.839,-1.8462,-1.8617,-1.8944,-1.909,0.7939,0.8038,0.8038,0.8038,0.0,0.7238,0.6839,0.0,0.0,0.0,0.0,0.0,0.0,0.0,0.0,0.0,0.0,0.0,0.0,0.0,0.0,0.0,0.0,0.0,0.0,0.0,0.0,0.0,0.0,0.0,-0.0303,-0.0707,-0.1515,-0.2522,-0.3527,-0.463,-0.5839,-0.6639,-0.7341,-0.7942,-0.8137,-0.8333,-0.8333,-0.8832,-0.9126,-0.9316,-0.962,-1.0117,-1.0703,-1.09,-1.138,-1.2052,-1.215,-1.264,-1.342,-1.41,-1.449,-1.4592,-1.4496,-1.4496,-1.4394,-1.4196,-1.4004,-1.3902,-1.3709,-1.3125,-1.264,-1.2344,-1.2247,-1.2247,-1.2073,-1.1585,-1.1194,-1.0904,-1.0801,-1.0708,-1.0216,-1.0117,-1.0019,-0.9821,-0.9723,-0.9908,-1.0058,-1.0147,-1.0134,-1.0087,-1.0432,-1.0801,-1.0986,-1.177,-1.2489,-1.2939,-1.3405,-1.3742,-1.3842,-1.3758,-1.4091,-1.5082,-1.5389,-1.5383,-1.5122,-1.5122,-1.5171,-1.4994,-1.5171,-1.5313,-1.55,-1.5588,-1.5641,-1.5752,-1.6338,-1.6627,0.8038,0.8038,0.8038,0.8038,0.7939,0.0,0.7543,0.7341,0.0,0.6437,0.0,0.0,0.0,0.0,0.0,0.0,0.0,0.0,0.0,0.0,0.0,0.0,0.0,0.0,0.0,0.0,0.0,0.0,0.0,0.0,0.0,-0.0303,-0.0808,-0.1613,-0.272,-0.3925,-0.5229,-0.6339,-0.7144,-0.7646,-0.7942,-0.8038,-0.8038,-0.8333,-0.8432,-0.8531,-0.9034,-0.9335,-0.943,-0.992,-1.0117,-1.0216,-1.0507,-1.1096,-1.1878,-1.2834,-1.3221,-1.3318,-1.3806,-1.3806,-1.3607,-1.3607,-1.3221,-1.2829,-1.2829,-1.2155,-1.1292,-1.0998,-1.04,-1.0002,-1.0703,-1.0511,-1.0019,-0.9826,-0.9727,-0.9628,-0.9331,-0.9335,-0.9232,-0.8924,-0.913,-0.9182,-0.9115,-0.928,-0.9411,-0.9332,-0.9677,-1.0041,-1.0301,-1.1221,-1.1951,-1.221,-1.2672,-1.2846,-1.2615,-1.2597,-1.2493,-1.2336,-1.3218,-1.3857,-1.405,-1.3863,-1.3817,-1.3899,-1.3717,-1.3591,-1.3496,-1.3763,-1.401,-1.4159,-1.509,-1.5741,0.8038,0.8038,0.8038,0.8038,0.8038,0.0,0.0,0.7543,0.7341,0.0,0.0,0.0,0.0,0.0,0.0,0.0,0.0,0.0,0.0,0.0,0.0,0.0,0.0,0.0,0.0,0.0,0.0,0.0,0.0,0.0,0.0,-0.0303,-0.0707,-0.1312,-0.2219,-0.3325,-0.4728,-0.5739,-0.6642,-0.7341,-0.7839,-0.8038,-0.8038,-0.8137,-0.8137,-0.8137,-0.834,-0.8535,-0.8733,-0.8928,-0.9229,-0.9529,-1.0117,-1.0708,-1.1194,-1.1873,-1.2257,-1.236,-1.2262,-1.216,-1.1965,-1.1673,-1.1477,-1.1282,-1.1086,-1.0596,-1.0105,-0.992,-0.9324,-0.9023,-0.9624,-0.9525,-0.9225,-0.8928,-0.8829,-0.873,-0.8134,-0.7963,-0.7794,-0.7302,-0.7337,-0.7359,-0.7305,-0.739,-0.737,-0.7315,-0.7695,-0.8,-0.8173,-0.8993,-0.9643,-0.9901,-1.0341,-1.0573,-1.0489,-1.0484,-1.0362,-1.0279,-1.1745,-1.2563,-1.23,-1.2207,-1.1899,-1.1358,-1.1271,-1.1229,-1.1225,-1.1488,-1.1918,-1.2607,-1.3372,-1.4041,0.8038,0.8038,0.8038,0.0,0.0,0.0,0.7743,0.7643,0.0,0.0,0.0,0.0,0.0,0.0,0.0,0.0,0.0,0.0,0.0,0.0,0.0,0.0,0.0,0.0,0.0,0.0,0.0,0.0,0.0,0.0,0.0,-0.0202,-0.0505,-0.101,-0.1817,-0.2923,-0.4128,-0.5336,-0.6239,-0.6936,-0.754,-0.7942,-0.8038,-0.8038,-0.8038,-0.8038,-0.8038,-0.8137,-0.8233,-0.8233,-0.8535,-0.8836,-0.9525,-0.9916,-1.0207,-1.0797,-1.1091,-1.1194,-1.09,-1.0806,-1.0605,-1.0314,-1.0117,-1.0019,-0.9826,-0.9521,-0.9217,-0.9031,-0.8535,-0.8237,-0.8638,-0.8535,-0.8333,-0.8134,-0.7898,-0.7566,-0.6976,-0.6677,-0.6489,-0.6101,-0.604,-0.5978,-0.5941,-0.5842,-0.5829,-0.5792,-0.6082,-0.6388,-0.6566,-0.7286,-0.7929,-0.8368,-0.8803,-0.8973,-0.8973,-0.8973,-0.8973,-0.8973,-1.0193,-1.0804,-1.0631,-1.0544,-1.0197,-0.9593,-0.9506,-0.9506,-0.9506,-0.9859,-1.0381,-1.1068,-1.1843,-1.2607,0.8038,0.8038,0.0,0.0,0.0,0.0,0.0,0.0,0.0,0.0,0.0,0.0,0.0,0.0,0.0,0.0,0.0,0.0,0.0,0.0,0.0,0.0,0.0,0.0,0.0,0.0,0.0,0.0,0.0,0.0,0.0,0.0,-0.0202,-0.0808,-0.1615,-0.252,-0.3627,-0.4933,-0.5837,-0.6437,-0.7241,-0.7746,-0.8038,-0.8038,-0.8038,-0.8038,-0.8038,-0.8038,-0.8038,-0.8038,-0.8038,-0.8038,-0.8336,-0.8528,-0.8821,-0.941,-0.9616,-0.9628,-0.9924,-0.9826,-0.9628,-0.9628,-0.943,-0.9236,-0.9137,-0.8832,-0.8432,-0.8432,-0.8038,-0.7543,-0.7543,-0.7543,-0.754,-0.7238,-0.6735,-0.6255,-0.5968,-0.5684,-0.5506,-0.5506,-0.5506,-0.5378,-0.5187,-0.5168,-0.5132,-0.5025,-0.5184,-0.5447,-0.563,-0.6337,-0.7132,-0.8109,-0.846,-0.8548,-0.8548,-0.8548,-0.8548,-0.8548,-0.8548,-0.8807,-0.9148,-0.8978,-0.889,-0.889,-0.8719,-0.8548,-0.8548,-0.9082,-0.9345,-0.9602,-1.0722,-1.1494,0.8038,0.0,0.0,0.0,0.0,0.0,0.0,0.0,0.0,0.0,0.0,0.0,0.0,0.0,0.0,0.0,0.0,0.0,0.0,0.0,0.0,0.0,0.0,0.0,0.0,0.0,0.0,0.0,0.0,0.0,0.0,0.0,-0.0202,-0.0505,-0.1111,-0.1817,-0.2723,-0.393,-0.4832,-0.5532,-0.6139,-0.6942,-0.7746,-0.7942,-0.8038,-0.8038,-0.8038,-0.8038,-0.8038,-0.8038,-0.8038,-0.8038,-0.8336,-0.8432,-0.8528,-0.892,-0.9023,-0.9023,-0.8928,-0.8829,-0.8733,-0.8535,-0.8435,-0.834,-0.8144,-0.7942,-0.7743,-0.7341,-0.7174,-0.6905,-0.651,-0.6155,-0.5919,-0.6195,-0.5833,-0.5272,-0.4411,-0.3967,-0.3633,-0.3353,-0.3221,-0.3184,-0.3074,-0.3071,-0.3064,-0.3045,-0.34,-0.3937,-0.4917,-0.5455,-0.608,-0.67,-0.7054,-0.7319,-0.7319,-0.7496,-0.758,-0.758,-0.7408,-0.7672,-0.8456,-0.846,-0.8197,-0.7665,-0.758,-0.7492,-0.7319,-0.758,-0.8021,-0.864,-0.941,-1.0106,0.8038,0.0,0.0,0.0,0.0,0.0,0.0,0.0,0.0,0.0,0.0,0.0,0.0,0.0,0.0,0.0,0.0,0.0,0.0,0.0,0.0,0.0,0.0,0.0,0.0,0.0,0.0,0.0,0.0,0.0,0.0,0.0,-0.0101,-0.0404,-0.0808,-0.1414,-0.2118,-0.3026,-0.383,-0.4427,-0.5133,-0.5839,-0.6542,-0.7138,-0.7437,-0.754,-0.7743,-0.7842,-0.7842,-0.7939,-0.8038,-0.8041,-0.8137,-0.8237,-0.8233,-0.8432,-0.8432,-0.8333,-0.8137,-0.7939,-0.7739,-0.754,-0.7441,-0.7338,-0.7141,-0.7045,-0.6933,-0.6583,-0.6219,-0.5861,-0.5526,-0.4866,-0.4442,-0.5106,-0.4674,-0.3948,-0.3196,-0.2686,-0.2283,-0.2009,-0.1898,-0.1881,-0.1881,-0.1881,-0.1881,-0.1881,-0.2331,-0.2956,-0.3757,-0.4385,-0.501,-0.5455,-0.5991,-0.626,-0.6346,-0.6432,-0.652,-0.652,-0.6435,-0.6612,-0.7051,-0.7228,-0.7143,-0.67,-0.6523,-0.6346,-0.626,-0.6432,-0.6782,-0.7224,-0.7921,-0.8444,0.8038,0.0,0.0,0.0,0.0,0.0,0.0,0.0,0.0,0.0,0.0,0.0,0.0,0.0,0.0,0.0,0.0,0.0,0.0,0.0,0.0,0.0,0.0,0.0,0.0,0.0,0.0,0.0101,0.0101,0.0101,0.0,0.0101,0.0,-0.0303,-0.0606,-0.101,-0.1513,-0.222,-0.2825,-0.3022,-0.4029,-0.4533,-0.4634,-0.5834,-0.6439,-0.6745,-0.7244,-0.7444,-0.7543,-0.7739,-0.7839,-0.7839,-0.7839,-0.7839,-0.7839,-0.7839,-0.7743,-0.7447,-0.7447,-0.7144,-0.6745,-0.6742,-0.6539,-0.6334,-0.6224,-0.6124,-0.5902,-0.5691,-0.5167,-0.4558,-0.4476,-0.3647,-0.3056,-0.3866,-0.3269,-0.2488,-0.2211,-0.1726,-0.1345,-0.1256,-0.1256,-0.1256,-0.1256,-0.1256,-0.1256,-0.1256,-0.1705,-0.2063,-0.2239,-0.3133,-0.3848,-0.438,-0.4921,-0.5369,-0.5542,-0.563,-0.563,-0.563,-0.563,-0.5455,-0.5282,-0.5727,-0.5994,-0.5905,-0.5549,-0.5282,-0.5193,-0.5455,-0.5542,-0.563,-0.6248,-0.6684,0.0,0.0,0.0,0.0,0.0,0.0,0.0,0.0,0.0,0.0,0.0,0.0,0.0,0.0,0.0,0.0,0.0,0.0,0.0,0.0,0.0,0.0,0.0,0.0,0.0,0.0,0.0,0.0303,0.0505,0.0505,0.0303,0.0505,0.0505,0.0202,0.0,-0.0303,-0.0606,-0.1212,-0.1716,-0.1916,-0.242,-0.2722,-0.3025,-0.4931,-0.5939,-0.6142,-0.6342,-0.6442,-0.6639,-0.6736,-0.6736,-0.6736,-0.6736,-0.6736,-0.6736,-0.6736,-0.6736,-0.6639,-0.6442,-0.6242,-0.6142,-0.5939,-0.5837,-0.572,-0.5241,-0.5121,-0.4905,-0.4041,-0.3597,-0.3273,-0.2702,-0.2109,-0.1717,-0.1815,-0.1721,-0.1535,-0.1173,-0.081,-0.0538,-0.0359,-0.0269,-0.0269,-0.0269,-0.0269,-0.0269,-0.0269,-0.0179,-0.0359,-0.0807,-0.1343,-0.1968,-0.2594,-0.3489,-0.4115,-0.4565,-0.4921,-0.5188,-0.5188,-0.4832,-0.4476,-0.4206,-0.5102,-0.528,-0.4656,-0.4567,-0.4387,-0.4026,-0.4024,-0.4204,-0.4565,-0.4917,-0.5359,0.0,0.0,0.0,0.0,0.0,0.0,0.0,0.0,0.0,0.0,0.0,0.0,0.0,0.0,0.0,0.0,0.0,0.0,0.0,0.0,0.0,0.0,0.0,0.0,0.0,0.0,0.1716,0.1211,0.1211,0.111,0.1009,0.111,0.101,0.0808,0.0505,0.0303,0.0,-0.0505,-0.0909,-0.1009,-0.1413,-0.1716,-0.2118,-0.3726,-0.4531,-0.4732,-0.5236,-0.5536,-0.5634,-0.5934,-0.6037,-0.6037,-0.6037,-0.6037,-0.6037,-0.6037,-0.5837,-0.5636,-0.5438,-0.5135,-0.4626,-0.4482,-0.4272,-0.406,-0.3692,-0.3573,-0.3367,-0.2736,-0.233,-0.203,-0.1646,-0.1266,-0.0897,-0.0807,-0.0807,-0.0897,-0.0628,-0.0359,-0.018,0.0,0.0,0.0,0.0,0.009,0.0179,0.0359,0.0538,0.0628,0.0448,0.0179,-0.0268,-0.0805,-0.152,-0.2056,-0.2505,-0.2772,-0.2949,-0.2949,-0.2683,-0.2504,-0.2236,-0.2592,-0.295,-0.3133,-0.2773,-0.2415,-0.2056,-0.2056,-0.2236,-0.2415,-0.2681,-0.2858,0.0,0.0,0.0,0.0,0.0,0.0,0.0,0.0,0.0,0.0,0.0,0.0,0.0,0.0,0.0,0.0,0.0,0.0,0.0,0.0,0.0,0.0,0.0,0.0,0.0,0.0,0.2925,0.2218,0.2117,0.2017,0.1915,0.1915,0.1816,0.1515,0.1212,0.0808,0.0505,0.0,-0.0303,-0.0303,-0.0808,-0.1111,-0.1311,-0.2318,-0.2821,-0.3022,-0.3929,-0.4331,-0.4433,-0.4832,-0.5033,-0.5033,-0.5033,-0.5033,-0.5033,-0.5033,-0.4732,-0.4331,-0.4331,-0.3718,-0.3001,-0.2953,-0.264,-0.2236,-0.2192,-0.2084,-0.1793,-0.1666,-0.1381,-0.1009,-0.0901,-0.0628,-0.0359,-0.0269,-0.0269,-0.0269,-0.0359,-0.018,0.0,0.009,0.009,0.018,0.018,0.0449,0.0807,0.0986,0.1345,0.1704,0.1883,0.1791,0.1431,0.0984,0.0626,0.0179,-0.0268,-0.0447,-0.0447,-0.0447,-0.0447,-0.0268,0.0,0.0358,0.0089,-0.0715,-0.0537,-0.0268,-0.0089,-0.0089,-0.0089,-0.0179,-0.0268,-0.0447,0.0,0.0,0.0,0.0,0.0,0.0,0.0,0.0,0.0,0.0,0.0,0.0,0.0,0.0,0.0,0.0,0.0,0.0,0.0,0.0,0.0,0.0,0.0,0.0,0.0,0.0,0.413,0.3123,0.3426,0.3428,0.3022,0.3225,0.3126,0.2624,0.2118,0.1514,0.0707,0.0404,0.0202,-0.0101,-0.0101,-0.0202,-0.0202,-0.0606,-0.1312,-0.2118,-0.2319,-0.252,-0.2723,-0.2823,-0.2823,-0.2823,-0.2823,-0.2823,-0.2823,-0.2823,-0.2823,-0.2723,-0.242,-0.2294,-0.2164,-0.1866,-0.1748,-0.1622,-0.1402,-0.13,-0.1202,-0.0725,-0.054,-0.045,-0.018,-0.009,0.0,0.0269,0.0269,0.0269,0.0,0.0,0.009,0.0269,0.0718,0.0987,0.0987,0.1525,0.2063,0.2239,0.2955,0.3582,0.3851,0.3851,0.3669,0.322,0.2326,0.1611,0.1163,0.0716,0.0537,0.0537,0.0716,0.1074,0.1522,0.2146,0.286,0.3482,0.1787,0.0984,0.1163,0.1163,0.1074,0.0895,0.0895,0.0716,0.0,0.0,0.0,0.0,0.0,0.0,0.0,0.0,0.0,0.0,0.0,0.0,0.0,0.0,0.0,0.0,0.0,0.0,0.0,0.0,0.0,0.0,0.0,0.0,0.0,0.0,0.5436,0.4832,0.4834,0.4832,0.4529,0.4533,0.4232,0.3728,0.3022,0.2319,0.1716,0.1312,0.1009,0.0908,0.0908,0.0908,0.0908,0.0807,0.0101,-0.111,-0.1414,-0.1615,-0.1716,-0.1917,-0.1917,-0.1917,-0.1917,-0.1917,-0.1917,-0.1917,-0.1904,-0.169,-0.159,-0.1374,-0.106,-0.0953,-0.085,-0.0654,-0.055,-0.0455,-0.0272,0.0,0.0269,0.0448,0.0628,0.0718,0.0808,0.0897,0.1076,0.1166,0.1077,0.0808,0.0718,0.1077,0.1345,0.1524,0.1703,0.224,0.2689,0.2867,0.3758,0.4472,0.4654,0.4921,0.4919,0.4652,0.4206,0.3848,0.3487,0.3218,0.3129,0.3129,0.3218,0.3486,0.3842,0.4374,0.4999,0.5711,0.4283,0.366,0.4016,0.4103,0.4101,0.3926,0.3926,0.3749,0.0,0.0,0.0,0.0,0.0,0.0,0.0,0.0,0.0,0.0,0.0,0.0,0.0,0.0,0.0,0.0,0.0,0.0,0.0,0.0,0.0,0.0,0.0,0.0,0.0,0.0,0.6539,0.6242,0.6039,0.5937,0.5937,0.5739,0.5338,0.4832,0.4128,0.3425,0.2723,0.2117,0.1815,0.1815,0.1815,0.1815,0.1815,0.1815,0.1211,0.0303,-0.0303,-0.0505,-0.0505,-0.0706,-0.0806,-0.0806,-0.0802,-0.0801,-0.0801,-0.0797,-0.069,-0.0585,-0.0585,-0.0289,0.0094,0.0093,0.0184,0.0366,0.0361,0.0539,0.0628,0.0718,0.0987,0.1256,0.1345,0.1524,0.1613,0.1793,0.1973,0.2062,0.1883,0.1704,0.1704,0.1973,0.2241,0.251,0.2774,0.3223,0.3758,0.4026,0.4828,0.545,0.5719,0.5897,0.5988,0.5813,0.5638,0.5458,0.5277,0.5277,0.5277,0.5277,0.5366,0.5542,0.5802,0.6245,0.6861,0.7478,0.7031,0.6763,0.6505,0.6678,0.6678,0.6505,0.6505,0.6419,0.0,0.0,0.0,0.0,0.0,0.0,0.0,0.0,0.0,0.0,0.0,0.0,0.0,0.0,0.0,0.0,0.0,0.0,0.0,0.0,0.0,0.0,0.0,0.0,0.0,0.0,0.0,0.6845,0.6942,0.7039,0.6742,0.6745,0.6442,0.5942,0.5334,0.4628,0.3527,0.2723,0.2321,0.2321,0.2321,0.2321,0.2321,0.2321,0.232,0.222,0.1715,0.1412,0.1412,0.1412,0.1412,0.1409,0.1386,0.1377,0.1374,0.1252,0.1242,0.1242,0.1242,0.132,0.1297,0.1295,0.1278,0.1347,0.1346,0.1345,0.1436,0.1615,0.1705,0.1794,0.206,0.215,0.2239,0.2688,0.2868,0.2688,0.2239,0.2509,0.2778,0.2868,0.3583,0.4208,0.4469,0.5095,0.5805,0.6514,0.6782,0.7139,0.7584,0.7316,0.7051,0.7051,0.6435,0.6083,0.6083,0.6083,0.6083,0.6083,0.6257,0.6517,0.6962,0.7482,0.8269,0.9405,1.0265,0.9735,0.7727,0.7727,0.7727,0.7727,0.7727,0.7727,0.0,0.0,0.0,0.0,0.0,0.0,0.0,0.0,0.0,0.0,0.0,0.0,0.0,0.0,0.0,0.0,0.0,0.0,0.0,0.0,0.0,0.0,0.0,0.0,0.0,0.0,0.0,0.754,0.764,0.764,0.754,0.7444,0.7144,0.6739,0.6234,0.5634,0.4933,0.4632,0.4431,0.4431,0.4431,0.4401,0.4349,0.4349,0.4322,0.4177,0.3981,0.3229,0.208,0.208,0.2065,0.1943,0.193,0.1925,0.1924,0.191,0.189,0.1869,0.1869,0.1936,0.1903,0.1903,0.1893,0.1882,0.1882,0.2151,0.242,0.251,0.2957,0.3405,0.3492,0.3758,0.4115,0.4561,0.4739,0.4739,0.4823,0.4559,0.4295,0.465,0.5008,0.5364,0.5891,0.6514,0.6956,0.7394,0.7925,0.8281,0.8285,0.8281,0.8193,0.8105,0.7845,0.7669,0.7669,0.7669,0.7669,0.7669,0.7929,0.8193,0.8464,0.9069,0.9932,1.0885,1.166,1.1649,1.0677,1.1021,1.1107,1.0935,1.0935,1.0677,0.0,0.0,0.0,0.0,0.0,0.0,0.0,0.0,0.0,0.0,0.0,0.0,0.0,0.0,0.0,0.0,0.0,0.0,0.0,0.0,0.0,0.0,0.0,0.0,0.0,0.0,0.0,0.8038,0.8038,0.0,0.8038,0.7842,0.7643,0.7341,0.6839,0.6318,0.5981,0.5882,0.5765,0.5728,0.5728,0.5689,0.5617,0.5617,0.558,0.5422,0.5422,0.46,0.3299,0.3299,0.3274,0.3232,0.321,0.3203,0.32,0.3179,0.3142,0.3106,0.3106,0.3169,0.3132,0.3132,0.3132,0.3132,0.3132,0.34,0.3758,0.3848,0.4383,0.5006,0.5097,0.5453,0.5894,0.6251,0.6428,0.6605,0.7048,0.6337,0.5719,0.6074,0.634,0.6779,0.7482,0.8013,0.8452,0.8882,0.9235,0.9501,0.9414,0.9327,0.9157,0.9069,0.8894,0.8803,0.8803,0.8982,0.9074,0.9161,0.9501,0.985,1.0207,1.089,1.166,1.2601,1.336,1.386,1.4079,1.3678,1.3432,1.3353,1.3353,1.3171,0.0,0.0,0.0,0.0,0.0,0.0,0.0,0.0,0.0,0.0,0.0,0.0,0.0,0.0,0.0,0.0,0.0,0.0,0.0,0.0,0.0,0.0,0.0,0.0,0.0,0.0,0.0,0.8038,0.8038,0.8038,0.8038,0.8035,0.7836,0.764,0.7135,0.6773,0.6646,0.6357,0.62,0.6083,0.6083,0.6083,0.6078,0.6078,0.6075,0.6072,0.6072,0.579,0.5317,0.5225,0.5225,0.5214,0.5111,0.5163,0.5151,0.5049,0.501,0.501,0.501,0.501,0.501,0.5008,0.5008,0.5097,0.5097,0.5272,0.5536,0.5719,0.6068,0.6505,0.6776,0.7221,0.7577,0.7577,0.7933,0.8285,0.8544,0.7661,0.6956,0.7139,0.7757,0.8456,0.9148,0.9676,1.0294,1.1149,1.0982,1.0809,1.1322,1.0549,0.9941,1.0028,0.9584,0.9318,0.9318,0.9763,1.0115,1.0376,1.0982,1.158,1.2015,1.2681,1.3522,1.4448,1.5282,1.6437,1.7738,1.5598,1.4608,1.4866,1.4866,1.4935,1.5737,0.0,0.0,0.0,0.0,0.0,0.0,0.0,0.0,0.0,0.0,0.0,0.0,0.0,0.0,0.0,0.0,0.0,0.0,0.0,0.0,0.0,0.0,0.0,0.0,0.0,0.8038,0.0,0.8038,0.8038,0.8038,0.7933,0.7778,0.7778,0.7485,0.7318,0.7279,0.7279,0.7259,0.7402,0.7402,0.7533,0.7703,0.7703,0.7822,0.7889,0.7889,0.7796,0.7534,0.6282,0.5626,0.5546,0.5512,0.5502,0.5497,0.5555,0.5542,0.5544,0.5725,0.5813,0.5813,0.616,0.6337,0.6334,0.6508,0.6688,0.6953,0.7129,0.757,0.8009,0.8444,0.8619,0.8798,0.9152,0.9331,0.9506,0.9937,0.9758,0.9497,0.9157,0.9336,0.968,1.0539,1.0977,1.1413,1.202,1.21,1.2186,1.2272,1.21,1.2009,1.2163,1.2072,1.198,1.2151,1.2242,1.2498,1.2747,1.3087,1.3341,1.3685,1.4196,1.4782,1.5538,1.6273,1.7245,1.8541,1.7641,1.7471,1.7937,1.7777,1.7768,0.0,0.0,0.0,0.0,0.0,0.0,1.4873,1.449,0.0,0.0,0.0,0.0,0.0,0.0,0.0,0.0,0.0,0.0,0.0,0.0,0.0,0.0,0.0,0.0,0.0,0.8435,0.8137,0.8137,0.798,0.7919,0.7858,0.7773,0.7723,0.7723,0.7736,0.766,0.7688,0.7873,0.793,0.8044,0.8223,0.8442,0.8613,0.8702,0.8819,0.8894,0.8894,0.8894,0.8811,0.767,0.7032,0.6694,0.6605,0.6697,0.6782,0.6782,0.6782,0.6956,0.7051,0.7228,0.7312,0.7573,0.7746,0.783,0.7914,0.8181,0.854,0.8623,0.9148,0.9758,1.0274,1.0361,1.0453,1.0717,1.0809,1.089,1.1413,1.1499,1.1327,1.0722,1.0722,1.1063,1.2089,1.2522,1.2869,1.347,1.3555,1.3555,1.3724,1.3633,1.362,1.3776,1.3847,1.3931,1.4253,1.442,1.4664,1.5072,1.5479,1.589,1.6062,1.6561,1.7139,1.7632,1.8186,1.914,2.0469,1.9483,1.9395,2.0081,2.0062,2.0207,0.0,0.0,0.0,0.0,0.0,0.0,1.554,1.5166,1.4783,0.0,0.0,0.0,0.0,0.0,0.0,0.0,0.0,0.0,0.0,0.0,0.0,0.0,0.0,0.0,0.943,0.8913,0.8506,0.8502,0.8164,0.7825,0.7698,0.7677,0.7667,0.7667,0.7833,0.7937,0.7793,0.8246,0.8442,0.8372,0.8807,0.9065,0.9152,0.9323,0.9497,0.9492,0.9492,0.9492,0.9492,0.9492,0.8978,0.8285,0.8113,0.8113,0.8285,0.8285,0.846,0.8636,0.8723,0.8894,0.9065,0.9152,0.9323,0.9405,0.9492,0.9763,1.0115,1.0202,1.0809,1.1585,1.2015,1.2186,1.218,1.2266,1.2272,1.2357,1.2875,1.2954,1.2784,1.2266,1.2266,1.2607,1.3704,1.4132,1.4475,1.5082,1.4992,1.4985,1.5249,1.5054,1.5032,1.5372,1.5426,1.5651,1.6055,1.6537,1.6952,1.7357,1.808,1.8647,1.8833,1.9376,1.9847,2.009,2.0633,2.1562,2.285,2.1181,2.0874,2.1834,2.206,2.2424,0.0,0.0,0.0,0.0,0.0,0.0,1.573,1.5642,1.5547,0.0,0.0,0.0,0.0,0.0,0.0,0.0,0.0,0.0,0.0,0.0,0.0,0.0,0.0,0.0,1.0511,0.9875,0.9401,0.9111,0.8665,0.846,0.843,0.8129,0.8059,0.8238,0.8196,0.8278,0.8681,0.8773,0.9016,0.9598,0.968,1.0115,1.0804,1.089,1.1063,1.1494,1.1494,1.1494,1.1402,1.1063,1.0193,0.8973,0.8973,0.8973,0.8973,0.8973,0.9061,0.9148,0.9506,0.9685,0.9854,1.0631,1.089,1.0977,1.1322,1.1494,1.1671,1.1843,1.2272,1.2699,1.279,1.3118,1.3451,1.3626,1.3802,1.3971,1.4223,1.4475,1.4713,1.5123,1.4461,1.4132,1.497,1.5213,1.5538,1.5891,1.5891,1.5966,1.6378,1.6453,1.6862,1.7819,1.8204,1.8665,1.9219,1.9515,1.9818,2.0071,2.0236,2.0391,2.0623,2.07,2.0941,2.1344,2.2542,2.3503,2.4302,2.3576,2.3649,2.429,2.4637,2.4992,0.0,0.0,0.0,1.6407,0.0,0.0,0.0,1.5927,1.5832,0.0,0.0,0.0,0.0,0.0,0.0,0.0,0.0,0.0,0.0,0.0,0.0,0.0,0.0,0.0,1.1362,1.0589,0.9831,0.9461,0.9179,0.8993,0.8902,0.8727,0.8682,0.8767,0.8945,0.9161,0.9419,0.985,1.0284,1.0636,1.0982,1.1413,1.1843,1.1929,1.2186,1.2528,1.2528,1.2607,1.2863,1.2601,1.2163,1.1466,1.0361,1.0019,1.0279,1.0279,1.0366,1.0626,1.089,1.1068,1.1241,1.1671,1.1929,1.2015,1.2272,1.2528,1.279,1.3379,1.3717,1.3886,1.4223,1.4552,1.4803,1.5054,1.5137,1.5304,1.5636,1.5959,1.6445,1.718,1.7155,1.6911,1.669,1.6846,1.7082,1.7504,1.7747,1.7908,1.8149,1.8381,1.885,1.964,2.0022,2.0566,2.1334,2.1694,2.1996,2.2307,2.2606,2.2829,2.2903,2.3176,2.3458,2.3906,2.4767,2.553,2.6276,2.6455,2.6345,2.6133,2.671,2.7167,0.0,0.0,0.0,0.0,0.0,1.6407,0.0,0.0,0.0,0.0,0.0,0.0,0.0,0.0,0.0,0.0,0.0,0.0,0.0,0.0,0.0,0.0,0.0,0.0,1.2237,1.1349,1.0505,1.0023,0.9924,0.9762,0.9589,0.9497,0.9497,0.9579,0.9937,1.0202,1.0376,1.1154,1.1585,1.1671,1.2277,1.2619,1.2705,1.2881,1.313,1.3385,1.3464,1.3711,1.4126,1.4119,1.4203,1.4119,1.2083,1.1488,1.1837,1.1837,1.2095,1.2351,1.2437,1.2613,1.279,1.2875,1.3039,1.3209,1.3209,1.3555,1.3977,1.465,1.4985,1.5228,1.5726,1.6057,1.6221,1.6378,1.6542,1.6706,1.7017,1.7423,1.798,1.8789,1.9492,1.9562,1.8621,1.8621,1.8859,1.9265,1.958,1.9825,1.9904,2.0275,2.073,2.1181,2.1649,2.2253,2.2999,2.3441,2.3806,2.4253,2.4696,2.4992,2.5052,2.5591,2.6064,2.6463,2.6912,2.7552,2.8333,2.9066,2.8892,2.7802,2.8525,2.9108,0.0,0.0,0.0,0.0,1.7419,0.0,0.0,0.0,0.0,1.6487,0.0,0.0,0.0,0.0,0.0,0.0,0.0,0.0,0.0,0.0,0.0,0.0,0.0,1.3544,1.3235,1.2574,1.1982,1.1727,1.1365,1.1089,1.1063,1.0631,1.0631,1.1063,1.1149,1.1413,1.2106,1.2192,1.2448,1.2881,1.2966,1.3313,1.3913,1.3913,1.425,1.4831,1.5068,1.5228,1.5477,1.5462,1.5455,1.5365,1.4119,1.362,1.3704,1.3704,1.3704,1.3789,1.4048,1.4139,1.423,1.4657,1.4908,1.5054,1.5054,1.5228,1.5484,1.5567,1.6049,1.6453,1.6535,1.7188,1.7755,1.7755,1.8086,1.8496,1.8718,1.9036,1.9511,2.0187,2.0663,2.075,2.0041,2.0129,2.0372,2.0575,2.0643,2.0807,2.1125,2.1583,2.2038,2.2649,2.3379,2.4047,2.4636,2.5087,2.5441,2.5836,2.5906,2.6102,2.6352,2.6896,2.7339,2.7696,2.8575,2.933,2.9868,3.0939,3.0954,3.0047,3.0453,3.0925,0.0,0.0,0.0,0.0,0.0,0.0,1.7885,0.0,1.7181,0.0,0.0,0.0,0.0,0.0,0.0,0.0,1.5245,0.0,0.0,0.0,0.0,0.0,0.0,0.0,1.3236,1.2946,1.2659,1.2454,1.2186,1.21,1.21,1.1929,1.1929,1.21,1.2272,1.2534,1.2966,1.3222,1.3561,1.4062,1.4153,1.4489,1.4824,1.4992,1.5325,1.5906,1.6049,1.6453,1.7025,1.7017,1.718,1.7423,1.6927,1.6018,1.4956,1.4956,1.5039,1.5213,1.5387,1.5387,1.5387,1.565,1.5726,1.5884,1.6049,1.6214,1.6378,1.6862,1.7269,1.7594,1.8078,1.8487,1.8807,1.9036,1.9274,1.952,1.9972,2.044,2.1048,2.1931,2.2553,2.2936,2.2988,2.2328,2.1821,2.2059,2.2489,2.285,2.3147,2.3514,2.3952,2.4529,2.504,2.5475,2.6126,2.6471,2.6812,2.7082,2.7471,2.7907,2.8414,2.8834,2.9247,2.9789,3.0543,3.1228,3.185,3.2723,3.3092,3.3077,3.2594,3.2532,2.1713,0.0,0.0,0.0,0.0,0.0,0.0,0.0,0.0,0.0,0.0,0.0,0.0,0.0,0.0,0.0,0.0,1.5075,0.0,0.0,0.0,0.0,0.0,0.0,0.0,1.3646,1.3561,1.3385,1.3385,1.3385,1.3385,1.33,1.33,1.3385,1.3561,1.373,1.3977,1.4328,1.4657,1.4985,1.5242,1.5484,1.5801,1.5891,1.6304,1.6878,1.7033,1.7594,1.8247,1.8327,1.8567,1.8895,1.8895,1.7989,1.6683,1.6601,1.6609,1.6788,1.6788,1.6788,1.6788,1.6788,1.6788,1.687,1.7261,1.735,1.7585,1.831,1.8638,1.8877,1.952,1.9844,2.0001,2.0372,2.044,2.0682,2.1298,2.1821,2.2478,2.3441,2.412,2.4647,2.5217,2.4192,2.3401,2.3632,2.4215,2.4636,2.4838,2.5205,2.5627,2.6032,2.6445,2.6867,2.7351,2.7802,2.8117,2.8519,2.9142,2.9704,3.0194,3.0526,3.1028,3.166,3.2228,3.2914,3.3569,3.4268,3.4858,3.5323,3.4349,3.4021,0.0,0.0,0.0,2.2041,0.0,0.0,0.0,0.0,1.934,0.0,0.0,0.0,0.0,0.0,0.0,0.0,0.0,0.0,0.0,0.0,0.0,0.0,0.0,0.0,0.0,1.4915,1.5006,1.5006,1.5006,1.5006,1.5006,1.4741,1.4741,1.5006,1.5006,1.5166,1.5311,1.5567,1.565,1.565,1.5974,1.6296,1.6698,1.6698,1.7107,1.7997,1.8167,1.8505,1.8993,1.9143,1.9301,1.9301,1.9301,1.9222,1.9134,1.8736,1.8576,1.8656,1.8656,1.8656,1.8656,1.8656,1.8656,1.8656,1.8886,1.9045,1.9292,1.9747,2.0138,2.0459,2.0682,2.1088,2.1492,2.169,2.1863,2.2176,2.2777,2.3276,2.3768,2.4492,2.5004,2.5441,2.5988,2.5417,2.5075,2.5487,2.5557,2.5697,2.5975,2.6389,2.6731,2.6854,2.7524,2.8051,2.8427,2.8939,2.9566,3.0346,3.0881,3.1159,3.1317,3.1788,3.229,3.2817,3.362,3.43,3.4858,3.5504,3.5959,3.6138,3.5514,3.5459,0.0,0.0,2.3309,2.3454,0.0,0.0,0.0,0.0,0.0,0.0,0.0,0.0,0.0,0.0,0.0,0.0,0.0,0.0,0.0,0.0,0.0,0.0,0.0,0.0,0.0,0.0,0.0,1.5733,1.5733,1.5733,1.5733,1.5643,1.5643,1.5733,1.5733,1.5891,1.6288,1.6296,1.6624,1.7188,1.7269,1.7666,1.823,1.8318,1.8798,1.9492,1.9668,2.0079,2.0644,2.0722,2.0867,2.0944,2.0944,2.0944,2.0789,1.9529,1.9213,1.9362,1.9608,1.9687,1.9687,1.9835,1.9913,1.9913,2.0138,2.0372,2.0605,2.1068,2.1375,2.168,2.2145,2.2392,2.2617,2.3106,2.3327,2.361,2.4337,2.4826,2.5252,2.6045,2.6402,2.6744,2.7284,2.7271,2.6989,2.6389,2.6526,2.6812,2.7162,2.755,2.7999,2.8542,2.9052,2.9552,3.0015,3.0556,3.1086,3.166,3.2013,3.2384,3.2817,3.3344,3.3855,3.4252,3.4968,3.547,3.5908,3.6493,3.6985,3.7268,3.7234,3.6988,2.4176,2.4348,0.0,2.484,2.4392,0.0,2.3607,0.0,0.0,0.0,0.0,0.0,0.0,0.0,0.0,0.0,0.0,0.0,0.0,1.7934,0.0,0.0,0.0,0.0,0.0,0.0,1.6624,1.6788,1.6944,1.7025,1.7025,1.7025,1.7025,1.7025,1.7025,1.7188,1.7504,1.7594,1.7997,1.8709,1.8718,1.9116,1.9668,1.9835,2.0216,2.074,2.0991,2.1318,2.1807,2.1807,2.1883,2.2025,2.2025,2.2025,2.1873,2.0624,2.0313,2.0537,2.0779,2.0934,2.1011,2.1165,2.1165,2.1231,2.1538,2.168,2.1907,2.251,2.2734,2.2957,2.3486,2.3644,2.3863,2.4348,2.4684,2.5028,2.58,2.6214,2.6693,2.7404,2.7683,2.7947,2.8481,2.8789,2.8583,2.767,2.7802,2.8117,2.8519,2.8903,2.938,2.9997,3.0421,3.0984,3.1702,3.2204,3.264,3.3171,3.3415,3.3772,3.4252,3.4686,3.5078,3.5504,3.6002,3.6422,3.6847,3.736,3.7755,3.8114,3.8355,3.819]}]]